[[[{"header":{"parameterUnit":"kt","parameterCategory":2,"dx":1,"dy":1,"la1":29.587661999999998,"la2":31.0,"lo1":-88.76705300000003,"lo2":-86.6583820000003,"nx":115,"ny":88,"refTime":"2022-09-20T12:00:00:Z","depth":0,"parameterNumber":1,"parameterNumberName":"U-component_of_WINDS"},"data":[-0.7046,-0.4564,-0.2873,-0.1439,-0.0131,0.0262,0.1832,0.4044,0.4828,0.6392,0.8084,0.8608,0.8483,0.7835,0.77,0.8467,1.0274,1.1431,1.22,1.3349,1.5243,1.6503,1.8004,1.9739,2.1429,2.3229,2.5034,2.6698,2.8241,2.9936,3.1505,3.3263,3.5019,3.5836,3.6538,3.8414,4.0199,4.0962,4.2595,4.4174,4.5043,4.6193,4.7567,4.8543,4.929,5.0078,5.071,5.1291,5.2072,5.2777,5.3516,5.3689,5.3824,5.3743,5.407,5.4477,5.5575,5.6051,5.6823,5.7428,5.8107,5.8489,5.8659,5.8845,5.9,5.9206,5.9345,5.9459,5.9522,5.9595,5.9949,6.0245,6.0953,6.3263,6.4871,6.6135,6.6826,6.7435,6.8121,6.8128,6.7974,6.7857,6.7667,6.7226,6.6744,6.6261,6.5528,6.4953,6.4453,6.373,6.2923,6.1754,6.0414,5.9942,5.9002,5.6228,5.5979,5.6982,5.7517,5.6647,5.5765,5.4818,5.485,5.5615,5.6487,5.7666,5.8686,5.9187,6.0197,6.1006,6.1397,6.1546,6.1718,6.1651,6.1369,-0.8219,-0.6648,-0.365,-0.1698,-0.0524,-0.0131,0.1047,0.2613,0.3783,0.5215,0.6514,0.6652,0.653,0.731,0.8338,0.9243,1.0397,1.1808,1.3349,1.4747,1.6262,1.738,1.875,2.0121,2.147,2.3138,2.5153,2.7048,2.9178,3.0519,3.2259,3.4702,3.594,3.687,3.9278,4.1229,4.2255,4.2686,4.3854,4.5243,4.6417,4.7499,4.8712,4.9863,5.0884,5.1752,5.2329,5.2972,5.3676,5.3746,5.3115,5.2889,5.2496,5.2572,5.2864,5.3621,5.4713,5.5562,5.6446,5.7449,5.8208,5.8821,5.8977,5.9104,5.911,5.925,5.9402,5.9506,5.9619,5.9835,6.0314,6.079,6.1498,6.2759,6.3854,6.5008,6.5028,6.514,6.5719,6.6207,6.6085,6.6044,6.5727,6.5256,6.4881,6.4524,6.3949,6.3457,6.2877,6.2245,6.1187,5.9776,5.7808,5.6109,5.4928,5.4105,5.4211,5.5118,5.5277,5.439,5.3554,5.2926,5.28,5.3491,5.4546,5.572,5.6772,5.7316,5.8563,5.9553,5.9602,5.9403,5.9867,6.0607,6.047,-0.7436,-0.6002,-0.3783,-0.2092,-0.0786,0.0,0.1046,0.2483,0.3657,0.4176,0.4299,0.5218,0.588,0.6661,0.782,0.872,1.0268,1.2192,1.3604,1.5127,1.6639,1.8004,1.9369,2.0626,2.1849,2.3168,2.5153,2.7263,2.9747,3.1119,3.2609,3.4936,3.6711,3.8212,4.0468,4.2097,4.3222,4.3821,4.5299,4.6634,4.7833,4.8787,4.9886,5.0533,5.1389,5.2077,5.2629,5.2835,5.325,5.2979,5.2413,5.1748,5.1695,5.1584,5.2103,5.2906,5.3768,5.4813,5.5986,5.6996,5.7753,5.8584,5.8954,5.9088,5.9152,5.9175,5.9327,5.9506,5.9619,5.8805,5.9318,5.9029,5.9619,5.93,5.9934,6.0816,6.104,6.1579,6.2626,6.2956,6.2744,6.2735,6.3094,6.2636,6.2664,6.2279,6.1939,6.1345,6.1336,6.0972,5.9373,5.7568,5.478,5.2769,5.2555,5.2678,5.2726,5.2767,5.3019,5.2406,5.1795,5.114,5.1197,5.273,5.401,5.4475,5.4403,5.4704,5.5711,5.7315,5.7395,5.725,5.8545,5.9552,5.9469,-0.6912,-0.5868,-0.444,-0.3009,-0.157,-0.0262,0.0784,0.1567,0.3137,0.3529,0.3131,0.4046,0.4964,0.5485,0.6782,0.8079,0.9501,1.1168,1.2967,1.4367,1.6252,1.7494,1.8974,2.0367,2.1971,2.3288,2.4694,2.6564,2.8912,3.106,3.2916,3.55,3.6641,3.9057,4.1631,4.3347,4.435,4.49,4.6175,4.738,4.8627,4.9768,5.0323,5.0801,5.1347,5.1992,5.1712,5.1922,5.216,5.205,5.1593,5.1359,5.1487,5.134,5.1773,5.2568,5.3232,5.4624,5.5929,5.7145,5.7877,5.861,5.8883,5.9044,5.895,5.91,5.9177,5.9376,5.9142,5.8191,5.7521,5.6952,5.6509,5.5521,5.4835,5.5527,5.6203,5.7621,5.9194,5.9161,5.8837,5.9189,5.9805,5.9989,6.017,5.9867,5.9338,5.9072,5.8883,5.7154,5.5171,5.3794,5.1181,5.0704,5.1385,5.1483,5.1144,5.1067,5.0957,5.0618,5.0175,4.9624,4.9311,5.1356,5.2889,5.2998,5.3014,5.2776,5.3234,5.468,5.5131,5.5138,5.6246,5.68,5.7426,-0.8203,-0.7815,-0.6526,-0.4573,-0.327,-0.1176,-0.0784,-0.1306,0.1959,0.3137,0.3005,0.3268,0.3529,0.444,0.6392,0.7565,0.885,1.0782,1.2456,1.2584,1.536,1.7244,1.8602,1.9986,2.1849,2.2926,2.4217,2.5995,2.7611,3.0083,3.3269,3.6659,3.722,3.9098,4.2288,4.4324,4.5207,4.56,4.6467,4.7499,4.8881,4.9554,4.9943,5.0127,5.0743,5.1287,5.0649,5.0693,5.1326,5.1011,5.0561,4.9791,4.9716,4.9575,5.0393,5.1283,5.2978,5.449,5.5978,5.7207,5.8075,5.8547,5.8672,5.7844,5.5883,5.4936,5.4705,5.4872,5.4175,5.3303,5.2138,5.1432,5.0458,4.936,4.9396,5.0202,5.0811,5.1812,5.321,5.4004,5.3781,5.4189,5.4815,5.5017,5.496,5.5939,5.5937,5.5975,5.4784,5.2117,5.0639,4.9638,4.8346,4.7983,4.8624,4.8831,4.8951,4.9215,4.908,4.8818,4.8746,4.8241,4.7605,4.9016,5.0496,5.0933,5.1485,5.1158,5.1326,5.2411,5.2853,5.293,5.307,5.3397,5.4247,-0.6128,-0.4564,-0.3918,-0.2874,-0.1306,0.0131,-0.0261,-0.1045,0.1437,0.2221,0.1698,0.2352,0.3266,0.4179,0.6258,0.782,0.8591,1.0661,1.2576,1.3587,1.597,1.7596,1.9357,2.0981,2.22,2.3409,2.459,2.5661,2.7603,3.0094,3.348,3.7272,3.8233,4.0037,4.2355,4.4554,4.5416,4.5588,4.601,4.695,4.7617,4.81,4.8525,4.8878,4.9401,4.9971,5.0044,4.9486,4.9821,4.9835,4.9073,4.8524,4.8441,4.9398,5.0461,5.1942,5.2967,5.3857,5.5157,5.6512,5.7418,5.8372,5.8759,5.496,5.1492,4.9376,4.943,4.987,4.8957,4.7881,4.6596,4.5336,4.4133,4.3037,4.3915,4.4783,4.5341,4.593,4.7054,4.8199,4.8835,4.9191,4.9543,4.9686,5.018,5.1636,5.2368,5.2176,5.0256,4.7904,4.6826,4.641,4.5826,4.5423,4.522,4.5408,4.6117,4.6678,4.7086,4.7739,4.7398,4.7256,4.7562,4.7978,4.8305,4.8914,4.9697,4.9404,4.9334,4.9938,5.0417,5.0536,5.061,5.0765,5.1986,-0.4182,-0.2483,-0.2483,-0.1828,-0.0653,0.1176,0.1176,0.0131,0.1567,0.183,0.0654,0.1569,0.2615,0.4176,0.6002,0.7431,0.8979,1.0654,1.2815,1.4583,1.6085,1.8331,2.0019,2.1279,2.2661,2.3872,2.4843,2.5698,2.7556,2.977,3.3459,3.7289,3.8188,3.992,4.2015,4.4155,4.4232,4.4374,4.4974,4.598,4.6778,4.7188,4.7393,4.7924,4.8379,4.8351,4.8569,4.8175,4.847,4.8637,4.8057,4.7848,4.7916,4.943,5.0618,5.2297,5.1723,5.1867,5.2844,5.1861,5.0532,5.0605,5.2127,4.6873,4.3546,4.1418,4.2202,4.3896,4.4587,4.2961,4.1484,4.0302,3.9126,3.8012,3.7606,3.8242,3.8512,3.9476,4.1435,4.2536,4.3756,4.4265,4.5357,4.5574,4.6084,4.7712,4.8343,4.7588,4.6169,4.4513,4.3476,4.3648,4.3466,4.3775,4.3491,4.3976,4.4264,4.4501,4.5987,4.6911,4.6642,4.6697,4.7256,4.7431,4.7141,4.7429,4.7893,4.7798,4.77,4.8129,4.8412,4.8249,4.8279,4.8756,4.9685,-0.3135,-0.3137,-0.3137,-0.2874,-0.2219,0.1428,0.2862,0.2871,0.2608,0.1828,0.0655,0.0786,0.17,0.3003,0.4567,0.6262,0.7949,1.0274,1.2154,1.3897,1.6087,1.8278,1.9885,2.0962,2.2492,2.3928,2.5007,2.5726,2.7684,2.9867,3.3106,3.6412,3.7824,3.9464,4.1195,4.2726,4.3075,4.3179,4.3753,4.4824,4.5875,4.6332,4.6515,4.6835,4.7105,4.6908,4.577,4.5475,4.6048,4.593,4.6564,4.7031,4.8153,4.9463,5.0018,4.9618,4.7468,4.7438,4.7266,4.3164,4.154,3.9232,4.0232,4.0987,3.9211,3.7836,3.766,3.8591,3.8693,3.7402,3.665,3.5508,3.4453,3.3829,3.2827,3.3276,3.3407,3.462,3.6659,3.7872,3.9198,3.9828,4.0971,4.1465,4.1788,4.3182,4.3693,4.2904,4.179,4.0315,4.0663,4.0921,4.1562,4.2047,4.3032,4.3759,4.3812,4.2819,4.4383,4.5668,4.5702,4.5672,4.619,4.6363,4.5959,4.6044,4.656,4.6583,4.6428,4.6345,4.6688,4.6663,4.681,4.7173,4.7704,-0.2542,-0.1783,-0.1686,-0.1295,-0.0127,0.1746,0.2599,0.2608,0.2524,0.1799,0.1042,0.1307,0.2089,0.2871,0.4044,0.5605,0.8074,0.9985,1.1592,1.408,1.6376,1.862,2.0252,2.1332,2.2594,2.3763,2.4751,2.57,2.7456,2.9844,3.2479,3.5183,3.7558,3.8979,3.9844,4.0997,4.1481,4.202,4.192,4.3006,4.3903,4.467,4.5036,4.5259,4.5318,4.4792,4.2372,4.0907,4.0231,3.7894,3.7885,3.9087,4.3185,4.541,4.6482,4.7154,4.5887,4.483,4.2494,3.8279,3.3841,2.9008,2.7382,2.8398,2.9615,3.163,3.1971,3.2361,3.1353,3.0521,3.0171,3.1607,3.1194,3.1871,3.1878,3.3673,3.4127,3.4708,3.6332,3.6229,3.7027,3.6776,3.7027,3.7444,3.8139,3.8794,3.9298,3.8147,3.709,3.7334,3.786,3.8591,3.9346,3.998,4.1065,4.268,4.2732,4.1466,4.2552,4.4037,4.423,4.5071,4.5243,4.5414,4.5472,4.5586,4.5698,4.5754,4.5952,4.5952,4.5725,4.5585,4.5528,4.5841,4.632,-0.1358,-0.0494,-0.0126,0.05,0.1461,0.2286,0.3095,0.3561,0.3286,0.2758,0.2179,0.2445,0.3351,0.4524,0.5805,0.7285,0.9681,1.1038,1.2597,1.5097,1.6965,1.9023,2.0497,2.1566,2.2577,2.3949,2.5295,2.6426,2.7506,3.0568,3.224,3.3533,3.6163,3.8204,3.8688,3.9578,3.9897,4.0505,4.0226,3.9995,4.0333,4.0199,4.0152,4.019,4.0642,3.9691,3.7333,3.7046,3.6504,3.5162,3.4286,3.5792,3.9217,4.0647,4.1639,4.2193,4.3458,4.168,3.7197,3.3418,2.9633,2.5807,2.3603,2.4647,2.445,2.4916,2.5641,2.7146,2.9276,2.932,2.7646,2.9294,3.0179,3.0817,3.1818,3.3588,3.447,3.513,3.5236,3.5214,3.5047,3.4874,3.4905,3.5712,3.5931,3.6397,3.6201,3.5098,3.5804,3.6154,3.6509,3.7287,3.7923,3.8359,3.9388,4.1704,4.2316,4.1595,4.2071,4.295,4.3726,4.4578,4.484,4.5013,4.5071,4.5157,4.5329,4.5443,4.5528,4.5585,4.55,4.5414,4.5272,4.5358,4.5641,0.036,0.048,0.1203,0.2124,0.31,0.3063,0.4445,0.6062,0.5409,0.473,0.4477,0.4492,0.5926,0.7505,0.7388,0.8938,1.1095,1.258,1.4238,1.6132,1.7811,1.9481,2.0863,2.2057,2.3117,2.4772,2.6054,2.7256,2.8548,3.1051,3.2176,3.3301,3.5362,3.7096,3.742,3.908,3.9375,3.848,3.7289,3.622,3.5449,3.4395,3.4526,3.4786,3.5273,3.4977,3.3297,3.2845,3.2144,3.1404,3.0795,3.2125,3.4964,3.5885,3.6202,3.6452,3.8106,3.5668,3.0169,2.6014,2.4762,2.3662,2.3844,2.4916,2.5759,2.6698,2.7762,2.8126,2.9273,2.9861,3.0426,3.0987,3.1525,3.21,3.2957,3.4041,3.4363,3.4812,3.4341,3.3976,3.3868,3.3625,3.3772,3.3828,3.3787,3.3662,3.3306,3.3991,3.5412,3.5926,3.6361,3.7132,3.7847,3.8042,3.8351,4.0742,4.1955,4.1848,4.1911,4.2585,4.3277,4.3781,4.4138,4.4519,4.4694,4.4868,4.4927,4.51,4.5042,4.5042,4.51,4.5071,4.5013,4.51,4.5585,0.0697,0.0699,0.0951,0.3476,0.7262,0.7531,0.7952,0.8487,0.8273,0.7819,0.7076,0.7105,0.7511,0.7285,0.7605,0.9023,1.1123,1.2763,1.45,1.6448,1.8481,2.0427,2.1875,2.3066,2.3857,2.5398,2.6725,2.8166,2.9612,3.0983,3.2227,3.3699,3.5325,3.6646,3.7716,3.9156,3.9076,3.7415,3.6295,3.5508,3.3555,3.2228,3.1792,3.3136,3.2397,3.1413,2.955,2.8377,2.7518,2.6054,2.5205,2.6177,2.8916,3.1017,3.1222,3.1641,3.164,2.9721,2.5675,2.3169,2.3649,2.4233,2.505,2.6363,2.7315,2.7762,2.8701,2.9424,2.9538,2.9766,3.0087,3.0612,3.1283,3.1969,3.2936,3.3501,3.3696,3.3804,3.3329,3.2676,3.2422,3.2141,3.2151,3.2005,3.2199,3.2281,3.2242,3.309,3.4295,3.4908,3.5534,3.6257,3.7156,3.7176,3.7194,3.883,4.0098,4.0095,4.0589,4.1564,4.2336,4.2666,4.3032,4.3602,4.4049,4.4459,4.4606,4.4753,4.4694,4.4575,4.4634,4.4694,4.4634,4.4868,4.5358,0.3573,0.3578,0.3313,0.5501,0.917,0.8737,0.9057,0.974,0.9895,0.9756,0.9688,1.0406,1.0863,1.1125,1.1102,1.1806,1.3488,1.5042,1.6384,1.8108,1.9289,2.1034,2.2446,2.3648,2.4792,2.5826,2.7282,2.8925,3.0214,3.1235,3.2729,3.4392,3.581,3.6602,3.7001,3.7701,3.6753,3.4903,3.2901,3.1381,2.9667,2.8385,2.788,2.9059,2.8118,2.6983,2.557,2.4093,2.2817,2.1563,2.0236,2.2688,2.5968,2.5897,2.6244,2.7034,2.7477,2.6125,2.3522,2.293,2.3529,2.4694,2.6112,2.7315,2.8623,2.8605,2.9082,2.9538,2.9766,2.9879,3.02,3.048,3.0889,3.1374,3.1948,3.2499,3.2718,3.2806,3.2348,3.1465,3.0993,3.0792,3.064,3.0463,3.067,3.0938,3.1409,3.1923,3.2484,3.3158,3.3772,3.4525,3.5497,3.5779,3.6404,3.721,3.8212,3.8649,3.8983,4.0108,4.1161,4.147,4.2084,4.2758,4.3214,4.3602,4.396,4.4226,4.4402,4.4342,4.4282,4.4282,4.437,4.4547,4.5186,0.8371,0.8803,0.8284,0.8936,0.9885,0.8397,0.9355,1.1812,1.1391,1.206,1.3146,1.4051,1.5649,1.6717,1.6431,1.7111,1.9456,1.9512,1.9697,2.0122,2.0921,2.2081,2.342,2.4528,2.5375,2.6139,2.7875,2.9212,3.015,3.1395,3.2868,3.4517,3.568,3.587,3.6085,3.6396,3.5217,3.2902,2.9419,2.68,2.4469,2.2613,2.1464,2.1032,2.079,2.0652,2.0862,2.0973,2.1005,2.2757,2.1078,2.2215,2.3639,2.3364,2.3546,2.426,2.4649,2.4647,2.412,2.3664,2.3889,2.5405,2.6814,2.7779,2.8392,2.8738,2.9215,2.9443,3.0087,3.02,3.0631,3.106,3.1354,3.1707,3.1818,3.1928,3.1707,3.1707,3.1152,3.0181,2.9917,3.0006,2.988,3.0039,3.0188,3.0463,3.0831,3.1153,3.1633,3.204,3.2414,3.3208,3.4213,3.4837,3.5432,3.6424,3.7395,3.7948,3.8083,3.8933,4.0179,4.0589,4.1187,4.1965,4.3032,4.2913,4.3095,4.3664,4.4049,4.4049,4.4049,4.4077,4.4193,4.4254,4.4811,1.1111,1.6028,1.6716,1.7109,1.7324,1.7008,1.7122,1.7668,1.7452,1.7769,1.8256,1.8177,1.8226,1.8384,1.8136,1.8362,1.8627,1.9105,2.0328,2.1672,2.2641,2.3845,2.5019,2.6159,2.6712,2.717,2.8703,2.9851,3.0734,3.1734,3.3167,3.5091,3.5539,3.5282,3.5438,3.5389,3.4764,3.2646,2.906,2.5844,2.3273,2.128,2.0933,2.0698,2.0306,2.0086,2.103,2.0791,2.1388,2.2875,2.2215,2.2335,2.3559,2.3303,2.3288,2.3544,2.3438,2.3904,2.4487,2.4352,2.5523,2.6464,2.7396,2.6598,2.7082,2.7547,2.8126,2.952,3.0294,3.0836,3.1263,3.1303,3.1414,3.1525,3.1434,3.106,3.0612,3.05,2.9955,2.931,2.9114,2.9229,2.9499,2.9462,2.9756,3.0009,3.0221,3.0541,3.0822,3.127,3.1959,3.2842,3.3456,3.3695,3.4213,3.5047,3.6574,3.7373,3.7397,3.816,4.0011,4.0711,4.0711,4.1751,4.3032,4.3123,4.3186,4.3394,4.3692,4.3913,4.4142,4.4093,4.4238,4.4049,4.4578,1.4944,1.8617,1.9204,1.9428,1.927,1.9259,1.9233,1.9292,1.9678,2.0031,2.0313,2.0542,2.064,2.0656,2.0463,2.0448,2.0971,2.1721,2.2517,2.3576,2.4072,2.4924,2.6251,2.6733,2.7464,2.7848,2.8925,3.0091,3.147,3.2461,3.3681,3.539,3.5331,3.5098,3.472,3.4499,3.355,3.18,2.944,2.6306,2.3719,2.2139,2.1677,2.2179,2.0902,2.1285,2.2036,2.1783,2.2207,2.3287,2.3127,2.3168,2.4039,2.4263,2.4128,2.4248,2.3664,2.3904,2.4606,2.3514,2.3978,2.505,2.5405,2.5523,2.6948,2.7993,2.9026,2.9842,3.0519,3.0948,3.1171,3.1262,3.1223,3.0884,3.0602,3.0048,2.944,2.9288,2.9082,2.8659,2.8251,2.8706,2.9029,2.957,3.0202,3.0145,2.9974,3.0351,3.067,3.0895,3.1545,3.243,3.2671,3.278,3.3435,3.3955,3.5641,3.6878,3.6878,3.7669,3.964,4.0564,4.0519,4.1187,4.2455,4.3123,4.3457,4.365,4.3889,4.4027,4.4256,4.5037,4.5738,4.5389,4.5723,1.9558,1.9329,1.9414,1.9294,1.9371,1.9453,1.9218,1.9407,2.0359,2.0708,2.2283,2.2369,2.2965,2.3505,2.3999,2.4509,2.5038,2.5151,2.5226,2.5507,2.5713,2.6066,2.6528,2.6416,2.7534,2.8389,2.8679,2.9831,3.1698,3.356,3.4884,3.5346,3.5307,3.5098,3.3842,3.3156,3.1455,2.9768,2.8683,2.6895,2.4556,2.3244,2.2899,2.2761,2.2153,2.2078,2.3116,2.286,2.3055,2.4043,2.3633,2.3859,2.4622,2.4694,2.459,2.4248,2.4024,2.3799,2.3649,2.2912,2.2912,2.4471,2.4456,2.5743,2.7164,2.8568,2.9255,3.0219,3.0919,3.1144,3.1144,3.1139,3.0716,3.0275,2.97,2.8985,2.8492,2.8659,2.8544,2.8215,2.8428,2.8713,2.9077,2.9917,3.0538,3.0106,2.9785,3.0219,3.0558,3.0558,3.1119,3.1697,3.205,3.2581,3.3196,3.3504,3.4872,3.6393,3.658,3.689,3.8532,3.9713,3.9847,4.084,4.1617,4.2482,4.3376,4.3915,4.4106,4.4582,4.5196,4.606,4.701,4.7342,4.7361,2.3618,2.3695,2.4472,2.483,2.4792,2.4755,2.5017,2.5557,2.4942,2.539,2.7005,2.6243,2.6171,2.6905,2.6976,2.6976,2.7199,2.7199,2.7311,2.7513,2.7604,2.7987,2.8435,2.8525,2.8346,2.877,2.9485,3.0724,3.2952,3.4238,3.4828,3.5085,3.4399,3.3633,3.2973,3.2282,3.1169,3.0072,2.9518,2.8491,2.6448,2.4491,2.3485,2.3834,2.2579,2.2566,2.3982,2.3715,2.4096,2.4693,2.5062,2.52,2.5421,2.6145,2.5893,2.4456,2.3514,2.3394,2.3499,2.3124,2.3978,2.5539,2.5978,2.6681,2.7744,2.8259,2.8526,2.927,3.0983,3.2398,3.1075,3.1043,3.0676,2.9934,2.9017,2.8411,2.8286,2.8215,2.8215,2.8544,2.8774,2.91,2.9671,3.0426,3.0332,2.9898,2.9766,3.0219,3.0445,3.0445,3.069,3.127,3.1828,3.2471,3.3287,3.3631,3.5478,3.6933,3.7205,3.753,3.8386,3.9217,4.0358,4.1588,4.2228,4.3045,4.3666,4.4301,4.5089,4.5826,4.6306,4.6995,4.7867,4.83,4.8996,2.5748,2.6376,2.6834,2.7297,2.7531,2.7568,2.7721,2.7901,2.7402,2.7764,2.8392,2.8124,2.8124,2.8637,2.8549,2.8281,2.8192,2.8192,2.8213,2.8256,2.8256,2.8367,2.8119,2.8119,2.8299,2.9275,3.1426,3.3668,3.5697,3.5748,3.5808,3.5567,3.4241,3.3361,3.2852,3.2318,3.1238,3.0531,3.0284,2.9561,2.8049,2.705,2.6025,2.5722,2.4646,2.436,2.5214,2.5283,2.54,2.6112,2.6698,2.6648,2.6851,2.7222,2.7612,2.6178,2.5389,2.5153,2.5255,2.5137,2.5539,2.6615,2.6797,2.7379,2.8259,2.8778,2.9499,3.0425,3.2357,3.2278,3.0812,3.0942,3.0403,2.9455,2.8923,2.8589,2.834,2.8331,2.8641,2.9082,2.9652,3.0087,3.0519,3.02,3.0012,2.9898,2.9879,2.9993,3.0332,3.0558,3.0783,3.1251,3.1697,3.2759,3.4083,3.5264,3.7223,3.7774,3.8192,3.8859,3.9589,3.9994,4.1006,4.2206,4.3278,4.4128,4.4663,4.5145,4.6197,4.7174,4.7847,4.8321,4.8952,4.9628,5.0825,2.7311,2.8192,2.8192,2.8507,2.8896,2.8968,2.8881,2.8726,2.8549,2.8837,2.9476,2.9124,2.9388,2.9849,2.9674,2.9323,2.9279,2.9457,2.9252,2.9149,2.9101,2.9009,2.891,2.896,2.913,3.0304,3.3059,3.6053,3.7491,3.7468,3.7077,3.7152,3.5499,3.4176,3.3963,3.3432,3.3099,3.2436,3.2536,3.1941,3.0782,2.9941,2.9423,2.8064,2.6452,2.6397,2.7291,2.7478,2.7426,2.7863,2.8403,2.8215,2.8128,2.8768,2.8715,2.7649,2.7171,2.6982,2.7052,2.6934,2.6833,2.6986,2.7574,2.859,2.9579,3.0497,3.0882,3.1601,3.162,3.1329,3.0112,3.0268,2.9836,2.9039,2.8824,2.9221,2.8804,2.8967,2.952,2.9974,3.0651,3.1211,3.0744,3.0294,3.0087,2.9993,2.9861,2.9993,3.0332,3.0558,3.1139,3.1585,3.1939,3.3456,3.5073,3.6793,3.7737,3.8067,3.8046,3.8612,3.982,4.0429,4.1615,4.2803,4.3911,4.4763,4.5407,4.5797,4.6873,4.8146,4.9063,5.0025,5.044,5.0826,5.2091,2.9609,2.9761,2.9784,2.9826,2.9867,2.989,3.0306,3.0674,2.9936,3.0369,3.1527,3.0776,3.0767,3.1429,3.1368,3.1235,3.1127,3.1224,3.1185,3.1224,3.1277,3.1276,3.1186,3.1539,3.2409,3.3909,3.6029,3.7186,3.8046,3.7742,3.8415,3.8454,3.7267,3.6325,3.61,3.6365,3.6084,3.5075,3.5485,3.5401,3.398,3.3098,3.1926,3.0211,2.8437,2.8014,2.8941,2.9135,2.9181,2.9677,2.982,2.9749,2.9537,2.9535,2.9038,2.897,2.8516,2.8448,2.8537,2.8764,2.9152,2.9521,2.9945,3.0453,3.1007,3.143,3.1714,3.1501,3.1265,3.0505,2.8887,2.9447,2.9211,2.8796,2.927,2.9765,2.9879,3.0407,3.0631,3.0987,3.0968,3.1303,3.0948,3.0612,3.0294,2.9974,2.9974,3.0087,3.0294,3.0763,3.1828,3.2422,3.3339,3.4711,3.6129,3.7717,3.7571,3.7484,3.6968,3.812,3.9528,4.0801,4.2398,4.3578,4.4607,4.5262,4.5839,4.6705,4.7737,4.894,4.9954,5.0926,5.1547,5.2162,5.2536,3.0392,3.0869,3.0846,3.1126,3.1527,3.1466,3.1527,3.1612,3.1164,3.1334,3.1816,3.2198,3.2279,3.25,3.261,3.2681,3.2469,3.2263,3.2113,3.2242,3.3116,3.3136,3.3118,3.4929,3.7156,3.8792,3.96,4.0595,4.1018,4.0994,4.0493,4.0618,3.9109,3.8216,3.7399,3.8054,3.7752,3.662,3.705,3.6986,3.5563,3.5047,3.4261,3.2544,3.0523,2.9539,3.0318,3.0451,3.0463,3.0585,3.1124,3.1602,3.1373,3.123,3.0997,3.0836,3.0586,3.0461,3.0568,3.1084,3.158,3.1913,3.1424,3.1714,3.2024,3.1701,3.1673,3.1979,3.1878,3.1392,2.9954,2.9855,2.9584,2.9424,2.9823,3.0275,3.0631,3.1616,3.2039,3.0856,3.108,3.1394,3.1283,3.1171,3.0987,3.1375,3.1375,3.1336,3.1541,3.2313,3.3202,3.4117,3.4862,3.5958,3.7485,3.8147,3.8119,3.8216,3.8169,3.9441,4.0746,4.2037,4.3291,4.4488,4.5761,4.6304,4.6677,4.7792,4.8779,4.9658,5.055,5.1727,5.2493,5.279,5.3056,3.1041,3.1829,3.1636,3.214,3.2828,3.2911,3.2759,3.2843,3.298,3.319,3.3015,3.3917,3.4286,3.4052,3.4483,3.4411,3.4345,3.4011,3.322,3.3204,3.4667,3.5178,3.6396,3.9167,4.1539,4.2138,4.2743,4.3636,4.4424,4.3503,4.3086,4.343,4.2345,4.0588,4.0224,4.1146,3.9777,3.8043,3.8902,3.9082,3.8095,3.76,3.673,3.5203,3.3359,3.2074,3.1606,3.1589,3.1476,3.1476,3.2154,3.2621,3.2724,3.2781,3.2541,3.2455,3.2336,3.2271,3.2395,3.2518,3.313,3.277,3.1897,3.1707,3.2168,3.1443,3.1568,3.1948,3.2622,3.1964,3.0712,3.0144,3.0144,3.05,3.0889,3.1243,3.1485,3.2478,3.2279,3.1283,3.1707,3.254,3.1989,3.2404,3.2659,3.2761,3.2801,3.2781,3.3423,3.4239,3.5116,3.613,3.7066,3.8248,3.9448,4.0198,4.0454,4.074,4.1159,4.2089,4.3057,4.4192,4.4797,4.5768,4.687,4.7143,4.734,4.8298,4.8796,4.9961,5.1026,5.1794,5.2547,5.3309,5.3722,3.2199,3.2638,3.2056,3.2448,3.339,3.385,3.4359,3.4938,3.5671,3.6124,3.6188,3.6896,3.686,3.6896,3.703,3.7411,3.7196,3.7092,3.7239,3.742,3.8047,3.9557,4.0927,4.3359,4.4144,4.3927,4.366,4.4777,4.5632,4.5095,4.5763,4.6614,4.6014,4.5369,4.4686,4.5441,4.5314,4.3862,4.3568,4.3022,4.2026,4.0507,3.9142,3.767,3.6299,3.5067,3.3657,3.2775,3.2411,3.2339,3.2541,3.3019,3.361,3.328,3.3147,3.3012,3.2716,3.2518,3.2537,3.2518,3.2376,3.2205,3.1341,3.0525,3.0843,3.109,3.1268,3.1198,3.1066,3.1408,3.0792,3.0239,3.0709,3.1717,3.2588,3.2786,3.2697,3.2827,3.2629,3.1525,3.2499,3.3664,3.4239,3.4754,3.4945,3.5136,3.5348,3.5327,3.5669,3.6439,3.7244,3.8187,3.9207,4.0386,4.1265,4.2266,4.2607,4.297,4.3209,4.3555,4.4534,4.5421,4.6062,4.6856,4.7891,4.8263,4.8592,4.8553,4.8523,4.9725,5.2007,5.2506,5.2784,5.4214,5.5347,3.2671,3.3157,3.3223,3.3725,3.4549,3.527,3.5723,3.6088,3.6505,3.6832,3.7157,3.791,3.8399,3.848,3.8901,3.9046,3.8961,3.8956,3.9024,3.9122,3.9596,4.1537,4.4235,4.5933,4.6623,4.6385,4.7141,4.7783,4.8338,4.829,4.8444,4.9052,4.857,4.7621,4.6931,4.7314,4.7067,4.5784,4.5296,4.483,4.3914,4.2396,4.0844,3.945,3.8129,3.6579,3.4484,3.2963,3.2048,3.2102,3.2468,3.2652,3.2835,3.2944,3.3124,3.2761,3.2622,3.248,3.2763,3.2885,3.2725,3.2168,3.1581,3.124,3.124,3.0934,3.1658,3.2143,3.2358,3.2689,3.2863,3.2882,3.3241,3.3563,3.4451,3.4341,3.3459,3.4188,3.4112,3.3835,3.462,3.6214,3.6611,3.6834,3.7075,3.7519,3.7782,3.776,3.7876,3.8662,3.9434,4.0283,4.1136,4.188,4.2724,4.3266,4.3686,4.3989,4.4195,4.4335,4.5138,4.6062,4.6743,4.7531,4.8745,4.9745,5.0599,5.1034,5.0552,5.1026,5.2949,5.4375,5.511,5.6247,5.7226,3.3962,3.448,3.472,3.5306,3.6063,3.6798,3.7268,3.7445,3.778,3.8338,3.8636,3.9553,4.0303,4.0528,4.1023,4.1187,4.1271,4.1165,4.0986,4.1,4.1303,4.3296,4.5708,4.7318,4.8221,4.8805,4.948,5.048,5.1043,5.0989,5.0898,5.0602,5.0582,4.9545,4.8322,4.8753,4.816,4.6933,4.6224,4.5294,4.4621,4.3271,4.1865,4.069,3.9878,3.8158,3.5835,3.3854,3.2631,3.1782,3.1845,3.1852,3.2081,3.2186,3.2158,3.1997,3.1967,3.1916,3.2137,3.2237,3.2137,3.172,3.123,3.1405,3.1544,3.1272,3.2158,3.3539,3.379,3.3782,3.4712,3.4664,3.4483,3.4858,3.5495,3.549,3.482,3.5517,3.6127,3.547,3.7057,3.8344,3.8888,3.9046,3.9319,3.9636,3.9772,3.9772,4.0071,4.0654,4.121,4.198,4.233,4.3178,4.3723,4.4199,4.4531,4.4742,4.4811,4.483,4.5459,4.6428,4.722,4.8223,4.9638,5.0517,5.182,5.3109,5.3209,5.2802,5.4257,5.507,5.623,5.7542,5.8408,3.6872,3.7162,3.6658,3.7037,3.806,3.8606,3.9054,3.9755,4.0575,4.1297,4.1907,4.2309,4.2954,4.3633,4.3811,4.4069,4.4541,4.4371,4.4392,4.4711,4.4926,4.557,4.6594,4.7808,4.9156,5.0247,5.066,5.1279,5.2375,5.2519,5.2709,5.3027,5.2278,5.1773,5.082,5.0407,5.0039,4.9396,4.7624,4.6667,4.6352,4.4365,4.2884,4.2474,4.1942,4.057,3.8127,3.6612,3.4719,3.2065,3.0734,3.0749,3.1676,3.0863,3.0733,3.1151,3.0524,3.0335,3.0183,3.0487,3.022,3.0143,3.024,3.0069,3.062,3.1837,3.316,3.4275,3.3947,3.3995,3.4619,3.4423,3.4017,3.391,3.5628,3.6289,3.5623,3.6881,3.7753,3.7978,3.8957,4.0254,4.1071,4.114,4.1675,4.2186,4.2396,4.2183,4.2326,4.221,4.2844,4.2987,4.2966,4.3463,4.3654,4.4082,4.4319,4.4531,4.4718,4.4927,4.5509,4.6655,4.7556,4.9207,5.065,5.1409,5.244,5.3925,5.4621,5.5297,5.5661,5.5561,5.6478,5.798,5.9348,3.743,3.7972,3.7974,3.8528,3.9365,4.0234,4.0915,4.1444,4.1882,4.2575,4.3272,4.3584,4.3991,4.4508,4.4835,4.5013,4.5186,4.5443,4.6047,4.6711,4.6274,4.7024,4.8601,4.8628,4.948,5.1667,5.2825,5.3601,5.417,5.442,5.416,5.3542,5.3346,5.2621,5.1353,5.0965,5.086,5.065,4.9072,4.8144,4.759,4.555,4.4223,4.3844,4.2428,4.0499,3.8551,3.7338,3.5826,3.373,3.0862,2.9331,2.929,2.9784,2.986,2.9803,2.9803,3.0087,3.0445,3.0445,3.0351,3.0332,3.0783,3.1119,3.1525,3.241,3.3716,3.4712,3.4666,3.4752,3.5124,3.5234,3.5497,3.5475,3.6531,3.7176,3.7985,3.9185,4.01,4.0399,4.1164,4.1956,4.2447,4.2564,4.2774,4.2985,4.3148,4.3148,4.3148,4.3148,4.3198,4.3318,4.3365,4.3485,4.3605,4.3844,4.4082,4.4531,4.4976,4.5534,4.6085,4.722,4.8333,4.9986,5.1966,5.2807,5.4544,5.5811,5.7037,5.8109,5.9008,5.9225,5.9698,6.049,6.1183,3.8824,3.9339,3.954,4.0027,4.0732,4.1475,4.2107,4.2569,4.2639,4.3122,4.3806,4.3997,4.4291,4.4834,4.5042,4.5186,4.5414,4.5698,4.6449,4.7464,4.6941,4.7842,4.9627,4.9363,5.0394,5.2831,5.4446,5.5261,5.5325,5.5421,5.4919,5.3699,5.3473,5.2621,5.1249,5.1173,5.1124,5.0992,4.9718,4.8937,4.8391,4.6352,4.502,4.4317,4.2768,4.107,3.955,3.864,3.7022,3.4572,3.1932,2.9448,2.8086,2.8569,2.9025,2.8854,2.963,3.0332,3.0709,3.0934,3.0914,3.1007,3.1808,3.232,3.252,3.3414,3.4537,3.5512,3.5308,3.5331,3.5683,3.6129,3.6308,3.6907,3.7575,3.8411,3.955,4.0654,4.1559,4.2073,4.2704,4.3078,4.3125,4.3102,4.3078,4.3148,4.3148,4.3148,4.3148,4.3148,4.3245,4.3365,4.3462,4.3462,4.382,4.4034,4.46,4.5277,4.597,4.6655,4.7307,4.8307,4.9207,5.0764,5.2994,5.486,5.6816,5.839,5.9617,6.0776,6.1518,6.2432,6.3411,6.3931,6.406,4.1432,4.1482,4.1605,4.1791,4.2223,4.2353,4.2679,4.3085,4.3155,4.3477,4.3974,4.3959,4.4353,4.487,4.5186,4.5414,4.5698,4.5984,4.6795,4.79,4.7929,4.8893,5.0748,5.0601,5.155,5.3462,5.5031,5.5759,5.5759,5.5328,5.4735,5.3806,5.3078,5.2219,5.111,5.1249,5.1229,5.102,5.0172,4.8963,4.7642,4.663,4.5368,4.401,4.3581,4.2801,4.1883,4.1302,3.873,3.4646,3.3525,3.1595,2.8017,2.7601,2.7924,2.8753,2.9852,3.0426,3.0596,3.1007,3.1211,3.1545,3.254,3.3217,3.3414,3.4299,3.5357,3.6084,3.575,3.5464,3.6196,3.6256,3.6471,3.7236,3.8748,3.9984,4.0885,4.1326,4.1698,4.3013,4.3271,4.3125,4.3148,4.3148,4.3245,4.3365,4.3365,4.3462,4.3701,4.3701,4.3365,4.3365,4.3796,4.4341,4.4341,4.4341,4.5252,4.6149,4.7195,4.7976,4.8745,4.9288,5.0278,5.1573,5.3732,5.6099,5.7933,6.039,6.1746,6.3052,6.3684,6.4397,6.5035,6.556,6.6291,4.1841,4.2135,4.2114,4.2415,4.2857,4.2914,4.3204,4.3625,4.3666,4.3923,4.4293,4.4318,4.4609,4.5186,4.5272,4.55,4.5867,4.6853,4.7929,4.9093,4.9301,5.0772,5.2696,5.2437,5.3132,5.4789,5.5607,5.5973,5.6246,5.579,5.5018,5.4134,5.3513,5.2722,5.1868,5.1822,5.185,5.1644,5.1146,5.0645,5.0011,4.817,4.6743,4.6199,4.4952,4.3556,4.2045,4.0516,3.8135,3.4958,3.2121,2.9866,2.7851,2.7453,2.762,2.8336,2.9674,3.069,3.1007,3.1211,3.1545,3.223,3.2671,3.3326,3.4106,3.4428,3.4966,3.5486,3.5286,3.5219,3.6116,3.8249,3.9994,4.0633,4.1355,4.2223,4.3317,4.3578,4.4189,4.5063,4.4786,4.4341,4.4223,4.3581,4.3701,4.4341,4.4341,4.4786,4.5368,4.56,4.5484,4.5459,4.5368,4.5575,4.601,4.6149,4.6718,4.806,4.9207,4.9504,5.0145,5.0672,5.1472,5.2729,5.4529,5.6829,5.9247,6.1807,6.3684,6.5185,6.5732,6.5965,6.6547,6.7056,6.7829,4.2577,4.2656,4.2653,4.2935,4.3399,4.345,4.3729,4.4126,4.4223,4.447,4.4643,4.4753,4.4985,4.5443,4.5414,4.5556,4.601,4.7318,4.8629,4.9856,5.0185,5.1778,5.4148,5.2855,5.3373,5.5272,5.5305,5.5668,5.6605,5.6456,5.5698,5.4735,5.4038,5.3218,5.2506,5.236,5.2417,5.2298,5.2157,5.1737,5.0986,4.9153,4.8417,4.861,4.6516,4.4555,4.3051,4.1056,3.8684,3.5658,3.2673,3.0417,2.9052,2.8468,2.8567,2.9615,3.1138,3.1948,3.1948,3.1948,3.23,3.2671,3.2801,3.3435,3.4213,3.4535,3.4962,3.5582,3.5952,3.6809,3.7933,4.0823,4.3012,4.3258,4.3811,4.4579,4.5146,4.5459,4.578,4.6352,4.6124,4.5575,4.5344,4.4576,4.4223,4.5228,4.555,4.578,4.6466,4.6579,4.6466,4.6579,4.6692,4.6944,4.7616,4.7949,4.8391,4.9745,5.0517,5.07,5.1444,5.2046,5.3173,5.4441,5.6758,5.8995,6.0224,6.2726,6.4868,6.6321,6.6866,6.7214,6.8141,6.8405,6.9079,4.3748,4.3238,4.3195,4.3495,4.3979,4.3935,4.4238,4.4603,4.4757,4.4928,4.4956,4.5157,4.5414,4.5698,4.5698,4.5754,4.6152,4.7519,4.8864,5.0097,5.063,5.2141,5.4492,5.2384,5.2714,5.5208,5.485,5.5444,5.7285,5.7053,5.6397,5.5421,5.4546,5.3806,5.2908,5.2836,5.2879,5.2876,5.2749,5.2304,5.0986,4.9825,4.9718,5.0196,4.8066,4.592,4.4493,4.2833,4.0122,3.6494,3.4755,3.3084,3.1445,3.0139,3.0329,3.2337,3.3836,3.4191,3.3372,3.3245,3.3266,3.3087,3.3416,3.3869,3.479,3.5259,3.5854,3.6633,3.7747,3.9411,4.1619,4.3815,4.4873,4.4999,4.5946,4.6565,4.6692,4.6692,4.6692,4.6918,4.7031,4.6918,4.6718,4.578,4.569,4.6377,4.6718,4.6944,4.7143,4.7031,4.7143,4.7143,4.7255,4.7616,4.9772,4.988,5.0093,5.0937,5.1353,5.1485,5.2468,5.3667,5.494,5.6524,5.8843,6.059,6.1692,6.3496,6.578,6.6898,6.7434,6.82,6.9025,6.9543,7.0516,4.3763,4.4285,4.3935,4.4087,4.4636,4.4608,4.4818,4.51,4.5157,4.5157,4.5157,4.5243,4.5471,4.5809,4.5809,4.5977,4.632,4.7634,4.9011,5.0483,5.1697,5.3185,5.4676,5.4515,5.5093,5.6003,5.6266,5.6912,5.772,5.7317,5.6546,5.5698,5.4706,5.3777,5.295,5.2908,5.2836,5.2865,5.2865,5.2736,5.2202,5.1325,5.0882,5.0799,4.8378,4.5992,4.3979,4.2243,3.9772,3.6449,3.4984,3.377,3.2507,3.1184,3.1082,3.2569,3.3963,3.4724,3.4617,3.398,3.4078,3.5074,3.4662,3.5107,3.6412,3.6908,3.7546,3.8592,4.0126,4.2138,4.4666,4.6529,4.7234,4.6955,4.752,4.8138,4.8028,4.8002,4.8333,4.9207,4.9098,4.9098,4.8112,4.7056,4.6718,4.7779,4.8028,4.8223,4.9072,4.9207,4.918,4.9288,4.9288,4.9638,5.012,5.0544,5.1146,5.1737,5.2405,5.3195,5.539,5.5922,5.6849,5.8896,6.0814,6.2582,6.3549,6.4978,6.6929,6.7495,6.8232,6.9058,7.0048,7.1268,7.2331,4.3242,4.3612,4.322,4.3766,4.4813,4.5013,4.5157,4.5329,4.5414,4.5443,4.55,4.55,4.5725,4.6061,4.6061,4.6145,4.657,4.8479,4.9804,5.0749,5.2325,5.3789,5.5082,5.5183,5.5578,5.6577,5.711,5.7578,5.7868,5.7696,5.7022,5.5973,5.5484,5.4546,5.3247,5.3206,5.3177,5.3148,5.3177,5.3206,5.3049,5.2164,5.1509,5.0967,4.8616,4.6255,4.436,4.2778,4.0702,3.79,3.6512,3.5495,3.4842,3.3642,3.3472,3.4619,3.5563,3.6032,3.5927,3.4948,3.4729,3.5653,3.5223,3.5528,3.691,3.741,3.8681,4.0819,4.2749,4.4501,4.6446,4.783,4.8579,4.8496,4.8715,4.907,4.926,4.926,4.9585,5.0227,5.0333,4.9907,4.8798,4.8333,4.8553,4.9016,4.926,4.9477,5.012,5.0333,5.0333,5.0439,5.0909,5.1222,5.1325,5.1429,5.1942,5.2764,5.3453,5.4386,5.6503,5.7749,5.9656,6.1369,6.3157,6.4526,6.5378,6.6321,6.7119,6.7926,6.8705,6.9689,7.1561,7.2776,7.5148,4.2685,4.2337,4.2495,4.3319,4.5014,4.5272,4.5329,4.5414,4.5585,4.5698,4.5669,4.5809,4.6061,4.6228,4.6404,4.6688,4.7143,4.9652,5.0956,5.1342,5.2684,5.4186,5.5607,5.4758,5.5056,5.6574,5.7229,5.7665,5.79,5.8178,5.772,5.6456,5.6336,5.5421,5.3962,5.3699,5.3601,5.3572,5.3767,5.3796,5.3582,5.2446,5.1615,5.133,4.8973,4.692,4.5357,4.3946,4.2232,4.0378,3.8786,3.8041,3.7866,3.6894,3.6774,3.7809,3.7929,3.7726,3.7145,3.6302,3.566,3.526,3.5417,3.5714,3.6486,3.7501,3.9641,4.2465,4.4732,4.6032,4.7442,4.8281,4.9043,4.9719,4.9854,4.9988,5.0333,5.0439,5.0333,5.0333,5.0333,4.9986,4.9152,4.9558,5.012,5.012,5.012,5.0305,5.0755,5.0755,5.0622,5.0832,5.1737,5.2521,5.255,5.2779,5.3195,5.3681,5.4679,5.6159,5.7811,6.0049,6.2381,6.3058,6.4724,6.5906,6.6384,6.6674,6.7182,6.8225,6.9091,7.0111,7.3026,7.4625,7.7546,4.4475,4.637,4.5735,4.5692,4.6057,4.5754,4.5669,4.5696,4.5809,4.5809,4.5809,4.5894,4.6061,4.6345,4.7312,4.8008,4.8614,5.0154,5.1551,5.2744,5.3433,5.4428,5.5699,5.6359,5.6712,5.7167,5.7837,5.8094,5.821,5.8682,5.8316,5.7254,5.5943,5.5112,5.4735,5.4059,5.3572,5.3669,5.4765,5.489,5.3962,5.2666,5.1899,5.147,4.9015,4.7059,4.587,4.4219,4.2736,4.1631,4.0805,4.0427,4.0372,3.9975,3.9853,4.0011,3.9574,3.9107,3.8933,3.7728,3.7265,3.8144,3.7034,3.7069,3.8997,4.0179,4.1188,4.2145,4.3576,4.5182,4.7076,4.8592,5.0039,5.1194,5.1222,5.1146,5.1146,5.0727,5.0333,5.0333,5.0333,5.0333,5.0013,5.0227,5.0439,5.0439,5.0333,5.0937,5.184,5.1635,5.1635,5.2016,5.242,5.2865,5.2779,5.3784,5.4954,5.5724,5.7175,5.8896,6.0632,6.1976,6.3492,6.4868,6.5831,6.6544,6.712,6.7466,6.8017,6.8992,7.0015,7.1359,7.3809,7.6249,8.0579,4.5025,4.6333,4.6015,4.6088,4.6611,4.6311,4.6061,4.5894,4.6174,4.6228,4.6228,4.6228,4.6423,4.6736,4.7975,4.8736,4.9165,5.1103,5.2535,5.3584,5.4337,5.5365,5.6515,5.7229,5.7609,5.7837,5.8263,5.8547,5.8714,5.8962,5.8816,5.8284,5.6986,5.6184,5.576,5.5331,5.4924,5.4641,5.4254,5.3719,5.3011,5.0821,4.95,4.9391,4.7962,4.6862,4.6174,4.5158,4.4042,4.2998,4.262,4.2126,4.1458,4.1208,4.0836,4.0217,3.9748,3.926,3.8843,3.8529,3.8852,3.9765,3.9163,3.9538,4.1365,4.1991,4.2564,4.3323,4.436,4.5828,4.7876,4.8864,5.0115,5.1699,5.1783,5.1783,5.1914,5.1635,5.1429,5.1429,5.1429,5.1429,5.1401,5.1429,5.1429,5.1429,5.1429,5.1709,5.2493,5.3108,5.3813,5.4602,5.5268,5.5561,5.5707,5.6935,5.7711,5.7642,5.9942,6.1944,6.2878,6.49,6.6256,6.7583,6.7775,6.8012,6.8772,6.8567,6.8714,6.9713,7.1096,7.2597,7.4583,7.765,8.1617,4.5374,4.5736,4.563,4.6184,4.726,4.7018,4.6611,4.6228,4.6641,4.6782,4.6618,4.6618,4.6812,4.7146,4.855,4.9344,4.9663,5.2384,5.3825,5.4213,5.5426,5.6487,5.7404,5.7696,5.804,5.8348,5.8599,5.888,5.9095,5.9127,5.9095,5.903,5.8535,5.7711,5.6924,5.6805,5.6624,5.6139,5.3739,5.2626,5.2909,4.9497,4.7456,4.7116,4.698,4.6593,4.6071,4.6093,4.5531,4.4222,4.3894,4.3187,4.197,4.1817,4.1121,3.9866,3.957,3.9084,3.8154,3.883,3.9641,4.0269,4.0792,4.1576,4.2652,4.312,4.3688,4.4648,4.5677,4.7077,4.8508,4.8912,4.9812,5.1495,5.1865,5.2079,5.2477,5.2578,5.2621,5.2521,5.2722,5.2593,5.2521,5.2621,5.2521,5.2722,5.275,5.285,5.3193,5.4748,5.6424,5.7364,5.8429,5.9087,5.9093,6.0433,6.0852,6.0146,6.3206,6.5385,6.5294,6.7275,6.9325,7.0663,7.0279,7.0349,7.1036,6.9954,7.0131,7.1584,7.2513,7.4025,7.6154,7.9197,8.1986,4.7632,4.9776,4.9043,4.905,4.9311,4.7942,4.739,4.7499,0.0,0.0,0.0,4.6618,4.6812,4.7153,4.9586,5.0715,5.1099,5.3975,5.5334,5.5517,5.6543,5.7285,5.7696,5.804,5.8379,5.8599,5.8848,5.9013,5.9095,5.9176,5.8981,5.8619,5.9062,5.8587,5.713,5.7074,5.7366,5.7926,5.6442,5.6438,5.8103,5.4342,5.1318,4.9429,4.8229,4.6776,4.5049,4.5914,4.575,4.4337,4.3992,4.3611,4.3087,4.3087,4.2793,4.1994,4.1163,4.009,3.881,3.8331,3.8317,3.8836,3.9427,4.0373,4.1891,4.3422,4.4049,4.3405,4.462,4.5925,4.7258,4.8411,4.9742,5.1252,5.1706,5.1943,5.2096,5.2358,5.2707,5.2722,5.2764,5.2693,5.2793,5.2821,5.2821,5.3288,5.364,5.3699,5.3786,5.5762,5.7824,5.8588,5.9117,5.9625,6.0523,6.1824,6.313,6.4144,6.6516,6.8448,6.9064,7.041,7.1532,7.1765,7.2123,7.2564,7.3182,7.2289,7.2554,7.4905,7.5059,7.5611,7.9121,8.2091,8.4017,4.9671,5.0977,5.0667,5.0386,0.0,4.9162,4.8982,4.9279,4.8452,4.7658,4.6945,4.6945,4.7577,4.8623,5.0577,5.1927,5.3148,5.5182,5.6337,5.6577,5.711,5.7547,5.804,5.8348,5.8714,5.893,5.9095,5.9176,5.9176,5.9419,5.8786,5.7588,5.8138,5.7496,5.5745,5.5815,5.6516,5.78,5.7232,5.7519,5.8447,5.5467,5.2631,5.0081,4.9762,0.0,0.0,0.0,0.0,0.0,0.0,0.0,0.0,0.0,0.0,4.0026,3.8665,3.7344,3.5963,3.5941,3.6487,3.7542,3.8352,3.867,3.8313,4.1797,4.3588,4.2723,4.455,4.6437,4.7956,4.8747,4.9716,5.1071,5.1432,5.1698,5.1878,5.2079,5.2578,5.3389,5.3567,5.3928,5.4552,5.467,5.4735,5.5048,5.5172,5.5108,5.4979,5.6721,5.8589,5.9376,6.0511,6.185,6.2794,6.3773,6.4736,6.5722,6.7517,6.8632,6.8401,7.0244,7.1767,7.1601,7.256,7.3439,7.3649,7.3312,7.3445,7.5083,7.6024,7.7781,8.1845,8.3843,8.4811,5.1146,5.1114,5.1415,5.111,5.0457,5.0495,5.0673,5.071,4.95,4.8407,4.7639,4.7831,4.8635,5.0081,5.1714,5.3194,5.4672,5.6082,5.6964,5.7404,5.746,5.7891,5.8567,5.8765,5.9045,5.9338,5.9338,5.9306,5.9306,5.958,5.8948,5.7417,5.7623,5.6753,5.4973,0.0,0.0,0.0,5.7703,5.8519,5.9336,5.6918,5.4076,5.1177,5.1557,0.0,4.9188,4.8983,4.8805,4.85,4.8252,0.0,0.0,0.0,0.0,0.0,0.0,0.0,0.0,0.0,0.0,0.0,3.5562,3.5772,3.5229,3.9497,4.2046,4.1456,4.3921,4.6287,4.7712,4.8058,4.8877,5.0287,5.0771,5.1158,5.1576,5.1903,5.2505,5.3911,5.4003,5.4586,5.5693,5.6119,5.6211,5.6546,5.6607,5.6518,5.6456,5.8077,5.9437,6.029,6.2068,6.3693,6.4529,6.4936,6.517,6.6126,6.7529,6.8172,6.7786,6.9768,7.1208,7.088,7.2087,7.304,7.3058,7.3229,7.373,7.5156,7.6941,7.9555,8.3732,8.4775,8.5068,5.1146,5.1114,5.1383,5.1483,5.1518,5.1818,5.1719,5.1185,5.0912,5.0141,4.9106,4.9806,5.0051,5.0142,5.2944,5.4427,5.4759,5.6434,5.7285,5.7404,5.7923,5.8702,5.9642,5.9225,5.9467,6.0268,5.9865,5.95,5.9338,5.9739,5.986,5.9623,5.9744,5.9015,5.7285,5.5863,5.5317,5.5846,5.8719,6.2279,6.6351,6.2459,5.8597,5.5016,5.3683,5.141,4.8048,4.889,4.8829,4.7504,4.7284,4.6457,4.4637,4.2658,3.9998,0.0,3.4194,0.0,0.0,0.0,0.0,0.0,0.0,0.0,0.0,3.6819,3.7997,3.8133,4.1018,4.2988,4.3094,4.4339,4.5884,4.7842,4.9081,4.9991,5.0679,5.1712,5.2478,5.2684,5.2715,5.3206,5.455,5.4647,5.5431,5.6949,5.6774,5.6805,5.8408,5.973,6.0934,6.2173,6.2531,6.3202,6.4114,6.4397,6.5026,6.6735,6.7673,6.8503,6.8686,6.9841,7.0616,7.0617,7.075,7.1133,7.1373,7.2179,7.3719,7.6625,7.8114,8.017,8.3643,8.5024,8.5587,5.1383,5.1485,5.1619,5.1359,5.0667,5.016,5.0722,5.1785,4.9693,4.8941,4.9205,4.8059,4.8712,5.0747,5.2997,5.5068,5.6726,5.8166,5.872,5.8835,5.9451,6.0125,6.0626,6.0323,6.0584,6.1065,6.0991,6.065,6.0223,6.0607,6.0048,5.8612,5.8722,5.7596,5.5166,5.5103,5.594,5.7419,6.0557,6.4118,6.7878,6.6038,6.2885,5.8831,5.7155,5.4707,5.1438,5.0945,5.0433,4.9672,4.8713,4.6778,4.3677,4.0195,3.6871,0.0,0.0,0.0,0.0,0.0,0.0,0.0,0.0,0.0,0.0,0.0,3.517,3.6732,4.108,4.3295,4.2099,4.2608,4.319,4.3616,4.5131,4.6565,4.7583,5.0099,5.1608,5.1327,5.227,5.3377,5.4707,5.553,5.6606,5.7979,5.6271,5.5145,5.6086,5.8295,5.9798,6.006,6.1921,6.3543,6.3638,6.3653,6.4168,6.5692,6.6021,6.6018,6.6325,6.7343,6.8262,6.853,6.917,6.9911,7.0756,7.1303,7.2872,7.6148,7.8135,8.0073,8.3154,8.4972,8.5979,5.0573,5.0671,5.0507,5.0005,4.9247,4.8617,4.9998,5.2421,4.964,4.8661,4.915,4.7489,4.8011,5.0195,5.1808,5.4125,5.7039,5.8143,5.9033,5.9667,6.0644,6.1218,6.1512,6.1369,6.1508,6.186,6.1896,6.1613,6.1065,6.0909,5.9538,5.7177,5.7001,5.5585,5.3085,5.4773,5.6875,5.9145,6.2785,6.5892,6.8449,6.8463,6.6373,6.2205,6.0085,5.7578,5.4656,5.2805,5.1784,5.1719,5.0042,4.7029,4.2698,3.7752,0.0,0.0,0.0,0.0,0.0,0.0,0.0,0.0,0.0,2.5629,2.1708,0.0,3.1995,0.0,3.929,4.2307,4.1631,4.1395,0.0,0.0,4.1718,4.2751,4.4012,4.7251,4.9244,4.8887,5.0814,5.2703,5.4051,5.5163,5.6698,5.8937,5.6912,5.4944,5.461,5.7072,5.8663,5.8328,6.0195,6.1967,6.1781,6.1961,6.2559,6.4241,6.4086,6.3715,6.3715,6.4765,6.5761,6.6085,6.7352,6.8466,6.9118,7.0144,7.1829,7.4734,7.6511,7.8336,8.1558,8.3725,8.5321,4.7764,4.7675,4.6734,4.6667,4.7401,4.8836,5.0921,5.3287,5.2905,5.1475,4.9567,5.1035,5.0014,4.7249,4.8607,0.0,5.3187,5.4589,5.6519,5.8824,6.048,6.1583,6.2245,6.1826,6.193,6.2687,6.2347,6.2036,6.1624,6.0002,5.8154,5.6271,5.5223,5.4168,5.3268,5.5788,5.8134,5.9979,6.5511,6.8503,6.8793,6.9681,6.8436,6.4692,6.1464,5.8427,5.5618,5.342,5.2337,5.2487,5.004,4.6495,4.1859,0.0,0.0,0.0,0.0,0.0,0.0,0.0,0.0,0.0,0.0,0.0,0.0,0.0,0.0,2.7745,3.2614,0.0,4.0747,4.0109,0.0,0.0,0.0,3.9445,4.0018,4.269,4.4452,4.44,0.0,0.0,5.1067,5.1518,5.3812,5.9721,6.0064,5.9227,5.7786,5.8348,5.8861,5.7822,5.692,5.6608,5.8248,5.8996,6.0146,6.2243,6.2959,6.2822,6.2856,6.3429,6.3755,6.4095,6.5407,6.6505,6.5405,6.8021,7.0547,7.1487,7.2957,7.5117,7.8629,8.0763,8.2561,4.3873,3.9201,3.7841,3.8616,4.0636,4.0499,4.3554,4.855,4.6696,4.5166,4.4117,4.3742,4.1819,3.8839,3.989,0.0,0.0,0.0,5.2798,5.6441,5.8431,6.0418,6.222,6.2963,6.344,6.3727,6.379,6.3083,6.1578,6.1053,5.623,4.7409,0.0,0.0,4.7093,5.2689,5.671,5.9289,6.5893,6.9482,6.9565,7.1849,7.136,6.7833,6.4637,6.1786,5.9293,5.7576,5.5307,5.2408,4.8496,4.373,0.0,0.0,0.0,0.0,0.0,0.0,0.0,0.0,0.0,0.0,0.0,1.8073,1.6473,0.0,0.0,0.0,2.8145,3.0444,3.303,3.5912,0.0,0.0,0.0,0.0,0.0,0.0,0.0,4.2071,4.5506,4.9204,5.265,5.1705,5.1646,5.4362,5.4888,5.4387,5.2881,0.0,5.6624,5.6715,5.6009,5.6238,5.8226,5.7761,5.7366,5.8188,5.9711,6.0893,6.1067,6.2655,6.4272,6.5291,6.5532,6.572,6.6675,6.6569,6.6653,6.6968,6.8339,7.1005,7.5445,7.7908,8.0294,3.8632,0.0,0.0,0.0,0.0,3.4272,3.7466,4.2898,4.0781,3.9389,3.8615,3.851,0.0,0.0,0.0,0.0,0.0,0.0,4.9414,5.2103,5.6687,5.9324,6.0422,6.1477,6.1934,6.1899,6.1495,6.0189,5.8101,5.6596,5.0497,4.0068,0.0,0.0,0.0,0.0,5.5392,5.8163,6.6198,7.0538,7.0659,7.3213,7.339,7.0932,6.7214,6.4278,6.2328,5.9344,5.5695,5.138,4.5914,0.0,0.0,0.0,0.0,0.0,0.0,0.0,0.0,0.0,0.0,0.0,0.0,0.0,0.0,0.0,0.0,0.0,0.0,0.0,2.8068,3.2272,3.3647,0.0,0.0,0.0,0.0,0.0,0.0,0.0,0.0,0.0,5.2189,5.1271,5.0827,0.0,0.0,5.2418,5.1266,5.3169,5.4774,5.4823,5.4266,0.0,5.6884,5.6376,5.6003,5.6582,5.8593,5.9971,5.9567,6.0979,6.2695,6.4003,6.4166,6.4297,6.5102,6.3366,6.1786,6.1786,6.3072,6.5573,6.9182,7.201,7.4704,0.0,0.0,0.0,0.0,0.0,0.0,0.0,0.0,3.7075,3.5793,0.0,3.7748,0.0,0.0,0.0,0.0,3.6933,4.3836,0.0,0.0,5.5268,5.8773,5.6234,5.6251,5.6259,5.6087,5.3915,5.1844,4.9789,4.4164,0.0,0.0,0.0,0.0,0.0,0.0,5.4522,5.6503,6.6706,7.2195,7.2269,7.3474,7.4064,7.3725,6.8712,6.5308,6.3666,5.7282,5.2249,4.9143,4.2201,0.0,0.0,0.0,0.0,0.0,0.0,0.0,0.0,0.0,0.0,0.0,0.0,0.0,0.0,0.0,0.0,0.0,0.0,0.0,0.0,2.9989,0.0,0.0,0.0,0.0,0.0,0.0,0.0,0.0,0.0,0.0,4.8063,4.9235,5.1626,5.6095,0.0,0.0,0.0,0.0,5.4056,5.2531,5.0793,5.0437,5.2078,5.4275,5.6622,5.9138,0.0,0.0,5.8951,5.8209,5.7909,5.7904,6.0509,6.168,5.9093,5.707,5.5897,5.5897,5.7093,5.8369,5.935,6.2289,6.4875,0.0,0.0,0.0,0.0,0.0,0.0,0.0,0.0,0.0,3.0546,0.0,3.0361,0.0,0.0,0.0,0.0,0.0,0.0,0.0,0.0,4.6867,4.9883,5.0609,5.2683,5.3149,0.0,5.0152,4.496,0.0,0.0,0.0,0.0,0.0,0.0,0.0,0.0,5.2506,5.3714,6.5056,7.1803,7.3096,7.4466,7.4687,7.3689,7.184,6.7411,6.0234,5.5646,5.0284,0.0,0.0,0.0,0.0,0.0,0.0,0.0,0.0,0.0,0.0,0.0,0.0,0.0,0.0,0.0,0.0,0.0,0.0,0.0,0.0,0.0,0.0,0.0,2.9017,0.0,0.0,0.0,0.0,0.0,0.0,0.0,0.0,0.0,4.1889,4.5261,4.9265,5.3935,5.4786,5.5618,5.7433,0.0,0.0,0.0,0.0,0.0,0.0,0.0,5.4425,5.3322,5.3468,5.3799,5.3897,5.6112,5.7926,5.7889,0.0,0.0,5.1701,5.0669,5.0777,5.0777,5.1342,5.2584,5.5019,5.6384,5.7994,0.0,0.0,0.0,0.0,0.0,0.0,0.0,0.0,0.0,2.5128,2.4201,0.0,0.0,0.0,0.0,0.0,0.0,0.0,0.0,0.0,0.0,0.0,4.4013,4.6103,0.0,0.0,0.0,0.0,0.0,0.0,0.0,0.0,0.0,0.0,0.0,0.0,5.131,5.3112,6.4632,7.1797,7.3554,7.469,7.4786,7.3759,7.3722,6.9158,5.9508,0.0,0.0,0.0,0.0,0.0,0.0,0.0,0.0,0.0,0.0,0.0,0.0,0.0,0.0,0.0,0.0,0.0,0.0,0.0,0.0,0.0,0.0,0.0,0.0,0.0,2.6452,0.0,0.0,0.0,0.0,0.0,0.0,0.0,0.0,0.0,0.0,0.0,4.6793,5.0438,5.3424,5.6061,5.8286,5.8633,5.9844,0.0,0.0,0.0,0.0,0.0,0.0,0.0,0.0,0.0,0.0,0.0,0.0,0.0,0.0,5.2016,4.6763,4.589,4.5983,4.5983,0.0,0.0,0.0,0.0,0.0,0.0,0.0,0.0,0.0,0.0,0.0,0.0,0.0,0.0,0.0,1.9988,0.0,0.0,2.2348,0.0,0.0,0.0,0.0,0.0,0.0,0.0,0.0,0.0,0.0,0.0,0.0,0.0,0.0,0.0,0.0,0.0,0.0,0.0,0.0,0.0,0.0,5.0969,5.4435,6.5588,7.2222,7.3822,7.4102,7.4265,7.4228,7.4174,7.0127,6.1634,0.0,0.0,0.0,0.0,0.0,0.0,0.0,0.0,0.0,0.0,0.0,0.0,0.0,0.0,0.0,0.0,0.0,0.0,0.0,0.0,0.0,0.0,0.0,0.0,0.0,0.0,2.3252,2.7019,2.9762,0.0,0.0,0.0,0.0,0.0,0.0,0.0,0.0,0.0,4.6149,5.2675,5.7572,5.8349,5.8523,5.9403,6.1386,5.914,5.7669,5.9088,5.9164,5.8439,0.0,0.0,0.0,0.0,0.0,0.0,0.0,0.0,0.0,0.0,0.0,0.0,0.0,0.0,0.0,0.0,0.0,0.0,0.0,0.0,0.0,0.0,0.0,0.0,0.0,0.0,0.0,0.0,0.0,0.0,0.0,0.0,0.0,0.0,0.0,0.0,0.0,0.0,0.0,0.0,0.0,0.0,0.0,0.0,0.0,0.0,0.0,0.0,0.0,0.0,0.0,0.0,0.0,0.0,4.9491,5.282,6.4165,7.139,7.4217,7.4348,7.442,7.4454,7.2187,6.7035,0.0,0.0,0.0,0.0,0.0,0.0,0.0,0.0,0.0,0.0,0.0,0.0,0.0,0.0,0.0,0.0,0.0,0.0,0.0,0.0,0.0,0.0,0.0,0.0,0.0,0.0,0.0,0.0,3.0529,3.0071,2.6767,0.0,0.0,0.0,0.0,0.0,0.0,0.0,0.0,0.0,0.0,5.8181,6.1505,6.1047,6.1462,6.4282,6.2925,6.1402,6.0947,6.0721,5.8933,5.4075,0.0,0.0,0.0,0.0,0.0,0.0,0.0,0.0,0.0,0.0,0.0,0.0,0.0,0.0,0.0,0.0,0.0,0.0,0.0,0.0,0.0,0.0,0.0,0.0,0.0,0.0,0.0,0.0,0.0,0.0,0.0,0.0,0.0,0.0,0.0,0.0,0.0,0.0,0.0,0.0,0.0,0.0,0.0,0.0,0.0,0.0,0.0,0.0,0.0,0.0,0.0,0.0,0.0,4.917,5.3134,6.392,7.1166,7.4408,7.3981,7.4007,7.4712,7.0814,6.4781,0.0,0.0,0.0,0.0,0.0,0.0,0.0,0.0,0.0,0.0,0.0,0.0,0.0,0.0,0.0,0.0,0.0,0.0,0.0,0.0,0.0,0.0,0.0,0.0,0.0,0.0,0.0,0.0,2.9053,2.9285,2.7013,0.0,0.0,0.0,0.0,0.0,0.0,0.0,0.0,0.0,0.0,5.7709,6.0477,6.0648,0.0,0.0,6.3307,6.1751,6.1551,6.2408,6.0587,5.309,5.1867,0.0,0.0,0.0,0.0,0.0,0.0,0.0,0.0,0.0,0.0,0.0,0.0,0.0,0.0,0.0,0.0,0.0,0.0,0.0,0.0,0.0,0.0,0.0,0.0,0.0,0.0,0.0,0.0,0.0,0.0,0.0,0.0,0.0,0.0,0.0,0.0,0.0,0.0,0.0,0.0,0.0,0.0,0.0,0.0,0.0,0.0,0.0,0.0,0.0,0.0,0.0,0.0,0.0,5.4781,6.465,7.1439,7.467,7.3203,7.3189,7.4873,6.9723,6.3137,0.0,0.0,0.0,0.0,0.0,0.0,0.0,0.0,0.0,0.0,0.0,0.0,0.0,0.0,0.0,0.0,0.0,0.0,0.0,0.0,0.0,0.0,0.0,0.0,0.0,0.0,0.0,0.0,0.0,0.0,0.0,0.0,0.0,0.0,0.0,0.0,0.0,0.0,0.0,0.0,0.0,5.6606,5.6737,5.8204,6.0351,0.0,6.103,5.9318,6.0567,6.3437,6.2391,5.2891,0.0,0.0,0.0,0.0,0.0,0.0,0.0,0.0,0.0,0.0,0.0,0.0,0.0,0.0,0.0,0.0,0.0,0.0,0.0,0.0,0.0,0.0,0.0,0.0,0.0,0.0,0.0,0.0,0.0,0.0,0.0,0.0,0.0,0.0,0.0,0.0,0.0,0.0,0.0,0.0,0.0,0.0,0.0,0.0,0.0,0.0,0.0,0.0,0.0,0.0,0.0,0.0,0.0,0.0,5.4822,6.4777,7.1535,7.4804,7.3325,7.3874,7.6596,6.8178,0.0,0.0,0.0,0.0,0.0,0.0,0.0,0.0,0.0,0.0,0.0,0.0,0.0,0.0,0.0,0.0,0.0,0.0,0.0,0.0,0.0,0.0,0.0,0.0,0.0,0.0,0.0,2.1198,0.0,0.0,0.0,0.0,0.0,0.0,0.0,0.0,0.0,0.0,0.0,0.0,0.0,0.0,5.7098,5.8315,5.8846,5.9485,0.0,0.0,5.7722,5.4404,5.7715,5.8228,0.0,0.0,0.0,0.0,0.0,0.0,0.0,0.0,0.0,0.0,0.0,0.0,0.0,0.0,0.0,0.0,0.0,0.0,0.0,0.0,0.0,0.0,0.0,0.0,0.0,0.0,0.0,0.0,0.0,0.0,0.0,0.0,0.0,0.0,0.0,0.0,0.0,0.0,0.0,0.0,0.0,0.0,0.0,0.0,0.0,0.0,0.0,0.0,0.0,0.0,0.0,0.0,0.0,0.0,4.9076,5.4852,6.3364,7.008,7.4602,7.3236,7.3569,7.6113,6.6951,5.9999,0.0,0.0,0.0,0.0,0.0,0.0,0.0,0.0,0.0,0.0,0.0,0.0,0.0,0.0,0.0,0.0,0.0,0.0,0.0,0.0,0.0,0.0,0.0,0.0,0.0,0.0,0.0,0.0,0.0,0.0,0.0,0.0,0.0,0.0,0.0,0.0,0.0,0.0,0.0,0.0,0.0,0.0,5.6491,5.5625,0.0,0.0,0.0,5.5239,5.387,0.0,0.0,0.0,0.0,0.0,0.0,0.0,0.0,0.0,0.0,0.0,0.0,0.0,0.0,0.0,0.0,0.0,0.0,0.0,0.0,0.0,0.0,0.0,0.0,0.0,0.0,0.0,0.0,0.0,0.0,0.0,0.0,0.0,0.0,0.0,0.0,0.0,0.0,0.0,0.0,0.0,0.0,0.0,0.0,0.0,0.0,0.0,0.0,0.0,0.0,0.0,0.0,0.0,0.0,0.0,0.0,0.0,5.4775,6.1442,6.8083,7.4172,7.2975,7.2943,7.4594,6.6583,5.9774,0.0,0.0,0.0,0.0,0.0,0.0,0.0,0.0,0.0,0.0,0.0,0.0,0.0,0.0,0.0,0.0,0.0,0.0,0.0,0.0,0.0,0.0,0.0,0.0,0.0,0.0,0.0,0.0,0.0,0.0,0.0,0.0,0.0,0.0,0.0,0.0,0.0,0.0,0.0,0.0,0.0,4.9893,5.3616,5.1175,5.0017,0.0,0.0,5.2478,5.5344,5.7019,0.0,0.0,0.0,0.0,0.0,0.0,0.0,0.0,0.0,0.0,0.0,0.0,0.0,0.0,0.0,0.0,0.0,0.0,0.0,0.0,0.0,0.0,0.0,0.0,0.0,0.0,0.0,0.0,0.0,0.0,0.0,0.0,0.0,0.0,0.0,0.0,0.0,0.0,0.0,0.0,0.0,0.0,0.0,0.0,0.0,0.0,0.0,0.0,0.0,0.0,0.0,0.0,0.0,0.0,0.0,0.0,5.4773,6.1268,6.7865,7.4204,7.2878,7.3396,7.6191,6.9522,6.2697,0.0,0.0,0.0,0.0,0.0,0.0,0.0,0.0,0.0,0.0,0.0,0.0,0.0,0.0,0.0,0.0,0.0,0.0,0.0,0.0,0.0,0.0,0.0,0.0,0.0,0.0,0.0,0.0,0.0,0.0,0.0,0.0,0.0,0.0,0.0,0.0,0.0,0.0,0.0,0.0,0.0,4.9003,5.5092,5.1914,0.0,0.0,0.0,0.0,5.0437,5.0647,0.0,0.0,0.0,0.0,0.0,0.0,0.0,0.0,0.0,0.0,0.0,0.0,0.0,0.0,0.0,0.0,0.0,0.0,0.0,0.0,0.0,0.0,0.0,0.0,0.0,0.0,0.0,0.0,0.0,0.0,0.0,0.0,0.0,0.0,0.0,0.0,0.0,0.0,0.0,0.0,0.0,0.0,0.0,0.0,0.0,0.0,0.0,0.0,0.0,0.0,0.0,0.0,0.0,0.0,0.0,0.0,5.5521,5.9961,6.6086,7.3964,7.3432,7.3767,7.5272,7.0451,6.4155,0.0,0.0,0.0,0.0,0.0,0.0,0.0,0.0,0.0,0.0,0.0,0.0,0.0,0.0,0.0,0.0,0.0,0.0,0.0,0.0,0.0,0.0,0.0,0.0,0.0,0.0,0.0,0.0,0.0,0.0,0.0,0.0,0.0,0.0,0.0,0.0,0.0,0.0,0.0,0.0,4.3746,4.5616,5.0811,0.0,0.0,0.0,0.0,0.0,0.0,4.684,4.5538,0.0,0.0,0.0,0.0,0.0,0.0,0.0,0.0,0.0,0.0,0.0,0.0,0.0,0.0,0.0,0.0,0.0,0.0,0.0,0.0,0.0,0.0,0.0,0.0,0.0,0.0,0.0,0.0,0.0,0.0,0.0,0.0,0.0,0.0,0.0,0.0,0.0,0.0,0.0,0.0,0.0,0.0,0.0,0.0,0.0,0.0,0.0,0.0,0.0,0.0,0.0,0.0,0.0,0.0,0.0,5.5516,5.8107,6.3858,7.2905,7.3483,7.3658,7.374,7.016,6.4399,5.6367,0.0,0.0,0.0,0.0,0.0,0.0,0.0,0.0,0.0,0.0,0.0,0.0,0.0,0.0,0.0,0.0,0.0,0.0,0.0,0.0,0.0,0.0,0.0,0.0,0.0,0.0,0.0,0.0,0.0,0.0,0.0,0.0,0.0,0.0,0.0,0.0,0.0,0.0,0.0,4.0675,4.1511,0.0,0.0,0.0,0.0,0.0,0.0,0.0,0.0,4.2399,0.0,0.0,0.0,0.0,0.0,0.0,0.0,0.0,0.0,0.0,0.0,0.0,0.0,0.0,0.0,0.0,0.0,0.0,0.0,0.0,0.0,0.0,0.0,0.0,0.0,0.0,0.0,0.0,0.0,0.0,0.0,0.0,0.0,0.0,0.0,0.0,0.0,0.0,0.0,0.0,0.0,0.0,0.0,0.0,0.0,0.0,0.0,0.0,0.0,0.0,0.0,0.0,0.0,0.0,0.0,0.0,5.5901,6.2316,6.9273,7.0937,7.2279,7.3561,6.9036,6.3131,5.6052,0.0,0.0,0.0,0.0,0.0,0.0,0.0,0.0,0.0,0.0,0.0,0.0,0.0,0.0,0.0,0.0,0.0,0.0,0.0,0.0,0.0,0.0,0.0,0.0,0.0,0.0,0.0,0.0,0.0,0.0,0.0,0.0,0.0,0.0,0.0,0.0,0.0,0.0,3.1299,3.4426,0.0,0.0,0.0,0.0,0.0,0.0,0.0,0.0,4.2483,0.0,0.0,0.0,0.0,0.0,0.0,0.0,0.0,0.0,0.0,0.0,0.0,0.0,0.0,0.0,0.0,0.0,0.0,0.0,0.0,0.0,0.0,0.0,0.0,0.0,0.0,0.0,0.0,0.0,0.0,0.0,0.0,0.0,0.0,0.0,0.0,0.0,0.0,0.0,0.0,0.0,0.0,0.0,0.0,0.0,0.0,0.0,0.0,0.0,0.0,0.0,0.0,0.0,0.0,0.0,0.0,0.0,0.0,6.1924,6.837,7.028,7.1927,7.3275,6.5997,5.9528,0.0,0.0,0.0,0.0,0.0,0.0,0.0,0.0,0.0,0.0,0.0,0.0,0.0,0.0,0.0,0.0,0.0,0.0,0.0,0.0,0.0,0.0,0.0,0.0,0.0,0.0,0.0,0.0,0.0,0.0,0.0,0.0,0.0,0.0,0.0,0.0,0.0,0.0,0.0,0.0,0.0,0.0,0.0,0.0,0.0,0.0,0.0,0.0,0.0,0.0,0.0,0.0,0.0,0.0,0.0,0.0,0.0,0.0,0.0,0.0,0.0,0.0,0.0,0.0,0.0,0.0,0.0,0.0,0.0,0.0,0.0,0.0,0.0,0.0,0.0,0.0,0.0,0.0,0.0,0.0,0.0,0.0,0.0,0.0,0.0,0.0,0.0,0.0,0.0,0.0,0.0,0.0,0.0,0.0,0.0,0.0,0.0,0.0,0.0,0.0,0.0,0.0,0.0,0.0,0.0,0.0,0.0,0.0,6.1217,6.6628,6.9273,7.1344,7.302,6.3299,5.6079,0.0,0.0,0.0,0.0,0.0,0.0,0.0,0.0,0.0,0.0,0.0,0.0,0.0,0.0,0.0,0.0,0.0,0.0,0.0,0.0,0.0,0.0,0.0,0.0,0.0,0.0,0.0,0.0,0.0,0.0,0.0,0.0,0.0,0.0,0.0,0.0,0.0,0.0,0.0,0.0,0.0,0.0,0.0,0.0,0.0,0.0,0.0,0.0,4.0064,0.0,0.0,0.0,0.0,0.0,0.0,0.0,0.0,0.0,0.0,0.0,0.0,0.0,0.0,0.0,0.0,0.0,0.0,0.0,0.0,0.0,0.0,0.0,0.0,0.0,0.0,0.0,0.0,0.0,0.0,0.0,0.0,0.0,0.0,0.0,0.0,0.0,0.0,0.0,0.0,0.0,0.0,0.0,0.0,0.0,0.0,0.0,0.0,0.0,0.0,0.0,0.0,0.0,0.0,0.0,0.0,0.0,0.0,0.0,5.9225,6.1466,6.6231,6.9481,7.0893,6.2621,5.4389,0.0,0.0,0.0,0.0,0.0,0.0,0.0,0.0,0.0,0.0,0.0,0.0,0.0,0.0,0.0,0.0,0.0,0.0,0.0,0.0,0.0,0.0,0.0,0.0,0.0,0.0,0.0,0.0,0.0,0.0,0.0,0.0,0.0,0.0,0.0,0.0,0.0,0.0,0.0,0.0,0.0,0.0,0.0,0.0,0.0,0.0,0.0,0.0,0.0,0.0,0.0,0.0,0.0,0.0,0.0,0.0,0.0,0.0,0.0,0.0,0.0,0.0,0.0,0.0,0.0,0.0,0.0,0.0,0.0,0.0,0.0,0.0,0.0,0.0,0.0,0.0,0.0,0.0,0.0,0.0,0.0,0.0,0.0,0.0,0.0,0.0,0.0,0.0,0.0,0.0,0.0,0.0,0.0,0.0,0.0,0.0,0.0,0.0,0.0,0.0,0.0,0.0,0.0,0.0,0.0,0.0,0.0,0.0,5.6801,6.0391,6.3607,6.4704,6.3558,5.7119,5.114,0.0,0.0,0.0,0.0,0.0,0.0,0.0,0.0,0.0,0.0,0.0,0.0,0.0,0.0,0.0,0.0,0.0,0.0,0.0,0.0,0.0,0.0,0.0,0.0,0.0,0.0,0.0,0.0,0.0,0.0,0.0,0.0,0.0,0.0,0.0,0.0,0.0,0.0,0.0,0.0,0.0,0.0,0.0,0.0,0.0,0.0,0.0,0.0,0.0,0.0,0.0,0.0,0.0,0.0,0.0,0.0,0.0,0.0,0.0,0.0,0.0,0.0,0.0,0.0,0.0,0.0,0.0,0.0,0.0,0.0,0.0,0.0,0.0,0.0,0.0,0.0,0.0,0.0,0.0,0.0,0.0,0.0,0.0,0.0,0.0,0.0,0.0,0.0,0.0,0.0,0.0,0.0,0.0,0.0,0.0,0.0,0.0,0.0,0.0,0.0,0.0,0.0,0.0,0.0,0.0,0.0,0.0,0.0,0.0,5.8166,5.9624,5.8957,5.6132,5.2421,4.8123,0.0,0.0,0.0,0.0,0.0,0.0,0.0,0.0,0.0,0.0,0.0,0.0,0.0,0.0,0.0,0.0,0.0,0.0,0.0,0.0,0.0,0.0,0.0,0.0,0.0,0.0,0.0,0.0,0.0,0.0,0.0,0.0,0.0,0.0,0.0,0.0,0.0,0.0,0.0,0.0,0.0,0.0,0.0,0.0,0.0,0.0,0.0,0.0,0.0,0.0,0.0,0.0,0.0,0.0,0.0,0.0,0.0,0.0,0.0,0.0,0.0,0.0,0.0,0.0,0.0,0.0,0.0,0.0,0.0,0.0,0.0,0.0,0.0,0.0,0.0,0.0,0.0,0.0,0.0,0.0,0.0,0.0,0.0,0.0,0.0,0.0,0.0,0.0,0.0,0.0,0.0,0.0,0.0,0.0,0.0,0.0,0.0,0.0,0.0,0.0,0.0,0.0,0.0,0.0,0.0,0.0,0.0,0.0,0.0,5.3235,5.3283,5.245,5.0846,5.0381,4.5813,0.0,0.0,0.0,0.0,0.0,0.0,0.0,0.0,0.0,0.0,0.0,0.0,0.0,0.0,0.0,0.0,0.0,0.0,0.0,0.0,0.0,0.0,0.0,0.0,0.0,0.0,0.0,0.0,0.0,0.0,0.0,0.0,0.0,0.0,0.0,0.0,0.0,0.0,0.0,0.0,0.0,0.0,0.0,0.0,0.0,0.0,0.0,0.0,0.0,0.0,0.0,0.0,0.0,0.0,0.0,0.0,0.0,0.0,0.0,0.0,0.0,0.0,0.0,0.0,0.0,0.0,0.0,0.0,0.0,0.0,0.0,0.0,0.0,0.0,0.0,0.0,0.0,0.0,0.0,0.0,0.0,0.0,0.0,0.0,0.0,0.0,0.0,0.0,0.0,0.0,0.0,0.0,0.0,0.0,0.0,0.0,0.0,0.0,0.0,0.0,0.0,0.0,0.0,0.0,0.0,0.0,0.0,0.0,0.0,4.7965,4.8102,4.7843,4.7199,4.6151,4.2523,3.6004,0.0,0.0,0.0,0.0,0.0,0.0,0.0,0.0,0.0,0.0,0.0,0.0,0.0,0.0,0.0,0.0,0.0,0.0,0.0,0.0,0.0,0.0,0.0,0.0,0.0,0.0,0.0,0.0,0.0,0.0,0.0,0.0,0.0,0.0,0.0,0.0,0.0,0.0,0.0,0.0,0.0,0.0,0.0,0.0,0.0,0.0,0.0,0.0,0.0,0.0,0.0,0.0,0.0,0.0,0.0,0.0,0.0,0.0,0.0,0.0,0.0,0.0,0.0,0.0,0.0,0.0,0.0,0.0,0.0,0.0,0.0,0.0,0.0,0.0,0.0,0.0,0.0,0.0,0.0,0.0,0.0,0.0,0.0,0.0,0.0,0.0,0.0,0.0,0.0,0.0,0.0,0.0,0.0,0.0,0.0,0.0,0.0,0.0,0.0,0.0,0.0,0.0,0.0,0.0,0.0,0.0,0.0,0.0,4.3721,4.438,4.441,4.3879,4.3263,4.0473,0.0,0.0,0.0,0.0,0.0,0.0,0.0,0.0,0.0,0.0,0.0,0.0,0.0,0.0,0.0,0.0,0.0,0.0,0.0,0.0,0.0,0.0,0.0,0.0,0.0,0.0,0.0,0.0,0.0,0.0,0.0,0.0,0.0,0.0,0.0,0.0,0.0,0.0,0.0,0.0,0.0,0.0,0.0,0.0,0.0,0.0,0.0,0.0,0.0,0.0,0.0,0.0,0.0,0.0,0.0,0.0,0.0,0.0,0.0,0.0,0.0,0.0,0.0,0.0,0.0,0.0,0.0,0.0,0.0,0.0,0.0,0.0,0.0,0.0,0.0,0.0,0.0,0.0,0.0,0.0,0.0,0.0,0.0,0.0,0.0,0.0,0.0,0.0,0.0,0.0,0.0,0.0,0.0,0.0,0.0,0.0,0.0,0.0,0.0,0.0,0.0,0.0,0.0,0.0,0.0,0.0,0.0,0.0,3.9087,4.0681,4.2168,4.2357,4.0799,4.2176,3.9874,0.0,0.0,0.0,0.0,0.0,0.0,0.0,0.0,0.0,0.0,0.0,0.0,0.0,0.0,0.0,0.0,0.0,0.0,0.0,0.0,0.0,0.0,0.0,0.0,0.0,0.0,0.0,0.0,0.0,0.0,0.0,0.0,0.0,0.0,0.0,0.0,0.0,0.0,0.0,0.0,0.0,0.0,0.0,0.0,0.0,0.0,0.0,0.0,0.0,0.0,0.0,0.0,0.0,0.0,0.0,0.0,0.0,0.0,0.0,0.0,0.0,0.0,0.0,0.0,0.0,0.0,0.0,0.0,0.0,0.0,0.0,0.0,0.0,0.0,0.0,0.0,0.0,0.0,0.0,0.0,0.0,0.0,0.0,0.0,0.0,0.0,0.0,0.0,0.0,0.0,0.0,0.0,0.0,0.0,0.0,0.0,0.0,0.0,0.0,0.0,0.0,0.0,0.0,0.0,0.0,0.0,0.0,0.0,0.0,3.8915,0.0,4.2023,0.0,4.2095,3.9782,0.0,0.0,0.0,0.0,0.0,0.0,0.0,0.0,0.0,0.0,0.0,0.0,0.0,0.0,0.0,0.0,0.0,0.0,0.0,0.0,0.0,0.0,0.0,0.0,0.0,0.0,0.0,0.0,0.0,0.0,0.0,0.0,0.0,0.0,0.0,0.0,0.0,0.0,0.0,0.0,0.0,0.0,0.0,0.0,0.0,0.0,0.0,0.0,0.0,0.0,0.0,0.0,0.0,0.0,0.0,0.0,0.0,0.0,0.0,0.0,0.0,0.0,0.0,0.0,0.0,0.0,0.0,0.0,0.0,0.0,0.0,0.0,0.0,0.0,0.0,0.0,0.0,0.0,0.0,0.0,0.0,0.0,0.0,0.0,0.0,0.0,0.0,0.0,0.0,0.0,0.0,0.0,0.0,0.0,0.0,0.0,0.0,0.0,0.0,0.0,0.0,0.0,0.0,0.0,0.0,0.0,0.0,0.0,0.0,3.8138,3.9077,4.0556,4.2432,4.1205,3.9401,0.0,0.0,0.0,0.0,0.0,0.0,0.0,0.0,0.0,0.0,0.0,0.0,0.0,0.0,0.0,0.0,0.0,0.0,0.0,0.0,0.0,0.0,0.0,0.0,0.0,0.0,0.0,0.0,0.0,0.0,0.0,0.0,0.0,0.0,0.0,0.0,0.0,0.0,0.0,0.0,0.0,0.0,0.0,0.0,0.0,0.0,0.0,0.0,0.0,0.0,0.0,0.0,0.0,0.0,0.0,0.0,0.0,0.0,0.0,0.0,0.0,0.0,0.0,0.0,0.0,0.0,0.0,0.0,0.0,0.0,0.0,0.0,0.0,0.0,0.0,0.0,0.0,0.0,0.0,0.0,0.0,0.0,0.0,0.0,0.0,0.0,0.0,0.0,0.0,0.0,0.0,0.0,0.0,0.0,0.0,0.0,0.0,0.0,0.0,0.0,0.0,0.0,0.0,0.0,0.0,0.0,0.0,0.0,0.0,0.0,3.8211,3.8211,3.8247,3.9546,3.8896,0.0,0.0,0.0,0.0,0.0,0.0,0.0,0.0,0.0,0.0,0.0,0.0,0.0,0.0,0.0,0.0,0.0,0.0,0.0,0.0,0.0,0.0,0.0,0.0,0.0,0.0,0.0,0.0,0.0,0.0,0.0,0.0,0.0,0.0,0.0,0.0,0.0,0.0,0.0,0.0,0.0,0.0,0.0,0.0,0.0,0.0,0.0,0.0,0.0,0.0,0.0,0.0,0.0,0.0,0.0,0.0,0.0,0.0,0.0,0.0,0.0,0.0,0.0,0.0,0.0,0.0,0.0,0.0,0.0,0.0,0.0,0.0,0.0,0.0,0.0,0.0,0.0,0.0,0.0,0.0,0.0,0.0,0.0,0.0,0.0,0.0,0.0,0.0,0.0,0.0,0.0,0.0,0.0,0.0,0.0,0.0,0.0,0.0,0.0,0.0,0.0,0.0,0.0,0.0,0.0,0.0,0.0,0.0,0.0,0.0,3.9221,0.0,3.8175,3.8499,3.886,3.9077,0.0,0.0,0.0,0.0,0.0,0.0,0.0,0.0,0.0,0.0,0.0,0.0,0.0,0.0,0.0,0.0,0.0,0.0,0.0,0.0,0.0,0.0,0.0,0.0,0.0,0.0,0.0,0.0,0.0,0.0,0.0,0.0,0.0,0.0,0.0,0.0,0.0,0.0,0.0,0.0,0.0,0.0,0.0,0.0,0.0,0.0,0.0,0.0,0.0,0.0,0.0,0.0,0.0,0.0,0.0,0.0,0.0,0.0,0.0,0.0,0.0,0.0,0.0,0.0,0.0,0.0,0.0,0.0,0.0,0.0,0.0,0.0,0.0,0.0,0.0,0.0,0.0,0.0,0.0,0.0,0.0,0.0,0.0,0.0,0.0,0.0,0.0,0.0,0.0,0.0,0.0,0.0,0.0,0.0,0.0,0.0,0.0,0.0,0.0,0.0,0.0,0.0,0.0,0.0,0.0,0.0,0.0,0.0,0.0,0.0,0.0,3.8102,3.8066,3.8499,0.0,0.0,0.0,0.0,0.0,0.0,0.0,0.0,0.0,0.0,0.0,0.0,0.0,0.0,0.0,0.0,0.0,0.0,0.0,0.0,0.0,0.0,0.0,0.0,0.0,0.0,0.0,0.0,0.0,0.0,0.0,0.0,0.0,0.0,0.0,0.0,0.0,0.0,0.0,0.0,0.0,0.0,0.0,0.0,0.0,0.0,0.0,0.0,0.0,0.0,0.0,0.0,0.0,0.0,0.0,0.0,0.0,0.0,0.0,0.0,0.0,0.0,0.0,0.0,0.0,0.0,0.0,0.0,0.0,0.0,0.0,0.0,0.0,0.0,0.0,0.0,0.0,0.0,0.0,0.0,0.0,0.0,0.0,0.0,0.0,0.0,0.0,0.0,0.0,0.0,0.0,0.0,0.0,0.0,0.0,0.0,0.0,0.0,0.0,0.0,0.0,0.0,0.0,0.0,0.0,0.0,0.0,0.0,0.0,0.0,0.0,3.8066,3.8066,3.8066,0.0,3.8066,0.0,0.0,0.0,0.0,0.0,0.0,0.0,0.0,0.0,0.0,0.0,0.0,0.0,0.0,0.0,0.0,0.0,0.0,0.0,0.0,0.0,0.0,0.0,0.0,0.0,0.0,0.0,0.0,0.0,0.0,0.0,0.0,0.0,0.0,0.0,0.0,0.0,0.0,0.0,0.0,0.0,0.0,0.0,0.0,0.0,0.0,0.0,0.0,0.0,0.0,0.0,0.0,0.0,0.0,0.0,0.0,0.0,0.0,0.0,0.0,0.0,0.0,0.0,0.0,0.0,0.0,0.0,0.0,0.0,0.0,0.0,0.0,0.0,0.0,0.0,0.0,0.0,0.0,0.0,0.0,0.0,0.0,0.0,0.0,0.0,0.0,0.0,0.0,0.0,0.0,0.0,0.0,0.0,0.0,0.0,0.0,0.0,0.0,0.0,0.0,0.0,0.0,0.0,0.0,0.0,0.0,0.0,0.0,0.0,0.0,0.0,0.0,3.8066,3.8066,3.8066,0.0,0.0,0.0,0.0,0.0,0.0,0.0,0.0,0.0,0.0,0.0,0.0,0.0,0.0,0.0,0.0,0.0,0.0,0.0,0.0,0.0,0.0,0.0,0.0,0.0,0.0,0.0,0.0,0.0,0.0,0.0,0.0,0.0,0.0,0.0,0.0,0.0,0.0,0.0,0.0,0.0,0.0,0.0,0.0,0.0,0.0,0.0,0.0,0.0,0.0,0.0,0.0,0.0,0.0,0.0,0.0,0.0,0.0,0.0,0.0,0.0,0.0,0.0,0.0,0.0,0.0,0.0,0.0,0.0,0.0,0.0,0.0,0.0,0.0,0.0,0.0,0.0,0.0,0.0,0.0,0.0,0.0,0.0,0.0,0.0,0.0,0.0,0.0,0.0,0.0,0.0,0.0,0.0,0.0,0.0,0.0,0.0,0.0,0.0,0.0,0.0,0.0,0.0,0.0,0.0,0.0,0.0,0.0,0.0,0.0,3.8066,3.8066,3.8066,3.8066,3.8066,0.0,0.0,0.0,0.0,0.0,0.0,0.0,0.0,0.0,0.0,0.0,0.0,0.0,0.0,0.0,0.0,0.0,0.0,0.0,0.0,0.0,0.0,0.0,0.0,0.0,0.0,0.0,0.0,0.0,0.0,0.0,0.0,0.0,0.0,0.0,0.0,0.0,0.0,0.0,0.0,0.0,0.0,0.0,0.0,0.0,0.0,0.0,0.0,0.0,0.0,0.0,0.0,0.0,0.0,0.0,0.0,0.0,0.0,0.0,0.0,0.0,0.0,0.0,0.0,0.0,0.0,0.0,0.0,0.0,0.0,0.0,0.0,0.0,0.0,0.0,0.0,0.0,0.0,0.0,0.0,0.0,0.0,0.0,0.0,0.0,0.0,0.0,0.0,0.0,0.0,0.0,0.0,0.0,0.0,0.0,0.0,0.0,0.0,0.0,0.0,0.0,0.0,0.0,0.0,0.0,0.0,0.0,0.0,0.0,0.0,0.0,0.0,0.0,0.0,3.8066,0.0,0.0,0.0,0.0,0.0,0.0,0.0,0.0,0.0,0.0,0.0,0.0,0.0,0.0,0.0,0.0,0.0,0.0,0.0,0.0,0.0,0.0,0.0,0.0,0.0,0.0,0.0,0.0,0.0,0.0,0.0,0.0,0.0,0.0,0.0,0.0,0.0,0.0,0.0,0.0,0.0,0.0,0.0,0.0,0.0,0.0,0.0,0.0,0.0,0.0,0.0,0.0,0.0,0.0,0.0,0.0,0.0,0.0,0.0,0.0,0.0,0.0,0.0,0.0,0.0,0.0,0.0,0.0,0.0,0.0,0.0,0.0,0.0,0.0,0.0,0.0,0.0,0.0,0.0,0.0,0.0,0.0,0.0,0.0,0.0,0.0,0.0,0.0,0.0,0.0,0.0,0.0,0.0,0.0,0.0,0.0,0.0,0.0,0.0,0.0,0.0,0.0,0.0,0.0,0.0,0.0,0.0,0.0,0.0,0.0,0.0,0.0,0.0,0.0,0.0,0.0,0.0,0.0,0.0,0.0,0.0,0.0,0.0,0.0,0.0,0.0,0.0,0.0,0.0,0.0,0.0,0.0,0.0,0.0,0.0,0.0,0.0,0.0,0.0,0.0,0.0,0.0,0.0,0.0,0.0,0.0,0.0,0.0,0.0,0.0,0.0,0.0,0.0,0.0,0.0,0.0,0.0,0.0,0.0,0.0,0.0,0.0,0.0,0.0,0.0,0.0,0.0,0.0,0.0,0.0,0.0,0.0,0.0,0.0,0.0,0.0,0.0,0.0,0.0,0.0,0.0,0.0,0.0,0.0,0.0,0.0,0.0,0.0,0.0,0.0,0.0,0.0,0.0,0.0,0.0,0.0,0.0,0.0,0.0,0.0,0.0,0.0,0.0,0.0,0.0,0.0,0.0,0.0,0.0,0.0,0.0,0.0,0.0,0.0,0.0,0.0,0.0,0.0,0.0,0.0,0.0,0.0,0.0,0.0,0.0,0.0,0.0,0.0,0.0,0.0,0.0,0.0,0.0,0.0,0.0,0.0,0.0,0.0,0.0,0.0,0.0,0.0,0.0,0.0,0.0,0.0,0.0,0.0,0.0,0.0,0.0,0.0,0.0,0.0,0.0,0.0,0.0,0.0,0.0,0.0,0.0,0.0,0.0,0.0,0.0,0.0,0.0,0.0,0.0,0.0,0.0,0.0,0.0,0.0,0.0,0.0,0.0,0.0,0.0,0.0,0.0,0.0,0.0,0.0,0.0,0.0,0.0,0.0,0.0,0.0,0.0,0.0,0.0,0.0,0.0,0.0,0.0,0.0,0.0,0.0,0.0,0.0,0.0,0.0,0.0,0.0,0.0,0.0,0.0,0.0,0.0,0.0,0.0,0.0,0.0,0.0,0.0,0.0,0.0,0.0,0.0,0.0,0.0,0.0,0.0,0.0,0.0,0.0,0.0,0.0,0.0,0.0,0.0,0.0,0.0,0.0,0.0,0.0,0.0,0.0,0.0,0.0,0.0,0.0,0.0,0.0,0.0,0.0,0.0,0.0,0.0,0.0,0.0,0.0,0.0,0.0,0.0,0.0,0.0,0.0,0.0,0.0,0.0,0.0,0.0,0.0,0.0,0.0,0.0,0.0,0.0,0.0,0.0,0.0,0.0,0.0,0.0,0.0,0.0,0.0,0.0,0.0,0.0,0.0,0.0,0.0,0.0,0.0,0.0,0.0,0.0,0.0,0.0,0.0,0.0,0.0,0.0,0.0,0.0,0.0,0.0,0.0,0.0,0.0,0.0,0.0,0.0,0.0,0.0,0.0,0.0,0.0,0.0,0.0,0.0,0.0,0.0,0.0,0.0,0.0,0.0,0.0,0.0,0.0,0.0,0.0,0.0,0.0,0.0,0.0,0.0,0.0,0.0,0.0,0.0,0.0,0.0,0.0,0.0,0.0,0.0,0.0,0.0,0.0,0.0,0.0,0.0,0.0,0.0,0.0,0.0,0.0,0.0,0.0,0.0,0.0,0.0,0.0,0.0,0.0,0.0,0.0,0.0,0.0,0.0,0.0,0.0,0.0,0.0,0.0,0.0,0.0,0.0,0.0,0.0,0.0,0.0,0.0,0.0,0.0,0.0,0.0,0.0,0.0,0.0,0.0,0.0,0.0,0.0,0.0,0.0,0.0,0.0,0.0,0.0,0.0,0.0,0.0,0.0,0.0,0.0,0.0,0.0,0.0,0.0,0.0,0.0,0.0,0.0,0.0,0.0,0.0,0.0,0.0,0.0,0.0,0.0,0.0,0.0,0.0,0.0,0.0,0.0,0.0,0.0,0.0,0.0,0.0,0.0,0.0,0.0,0.0,0.0,0.0,0.0,0.0,0.0,0.0,0.0,0.0,0.0,0.0,0.0,0.0,0.0,0.0,0.0,0.0,0.0,0.0,0.0,0.0,0.0,0.0,0.0,0.0,0.0,0.0,0.0,0.0,0.0,0.0,0.0,0.0,0.0,0.0,0.0,0.0,0.0,0.0,0.0,0.0,0.0,0.0,0.0,0.0,0.0,0.0,0.0,0.0,0.0,0.0,0.0,0.0,0.0,0.0,0.0,0.0,0.0,0.0,0.0,0.0,0.0,0.0,0.0,0.0,0.0,0.0,0.0,0.0,0.0,0.0,0.0,0.0,0.0,0.0,0.0,0.0,0.0,0.0,0.0,0.0,0.0,0.0,0.0,0.0,0.0,0.0,0.0,0.0,0.0,0.0,0.0,0.0,0.0,0.0,0.0,0.0,0.0,0.0,0.0,0.0,0.0,0.0,0.0,0.0,0.0,0.0,0.0,0.0,0.0,0.0,0.0,0.0,0.0,0.0,0.0,0.0,0.0,0.0,0.0,0.0,0.0,0.0,0.0,0.0,0.0,0.0,0.0,0.0,0.0,0.0,0.0,0.0,0.0,0.0,0.0,0.0,0.0,0.0,0.0,0.0,0.0,0.0,0.0,0.0,0.0,0.0,0.0,0.0,0.0,0.0,0.0,0.0,0.0,0.0,0.0,0.0,0.0,0.0,0.0,0.0,0.0,0.0,0.0,0.0,0.0,0.0,0.0,0.0,0.0,0.0,0.0,0.0,0.0,0.0,0.0,0.0,0.0,0.0,0.0,0.0,0.0,0.0,0.0,0.0,0.0,0.0,0.0,0.0,0.0,0.0,0.0,0.0,0.0,0.0,0.0,0.0,0.0,0.0,0.0,0.0,0.0,0.0,0.0,0.0,0.0,0.0,0.0,0.0,0.0,0.0,0.0,0.0,0.0,0.0,0.0,0.0,0.0,0.0,0.0,0.0,0.0,0.0,0.0,0.0,0.0,0.0,0.0,0.0,0.0,0.0,0.0,0.0,0.0,0.0,0.0,0.0,0.0,0.0,0.0,0.0,0.0,0.0,0.0,0.0,0.0,0.0,0.0,0.0,0.0,0.0,0.0,0.0,0.0,0.0,0.0,0.0,0.0,0.0,0.0,0.0,0.0,0.0,0.0,0.0,0.0,0.0,0.0,0.0,0.0,0.0,0.0,0.0,0.0,0.0,0.0,0.0,0.0,0.0,0.0,0.0,0.0,0.0,0.0,0.0,0.0,0.0,0.0,0.0,0.0,0.0,0.0,0.0,0.0,0.0,0.0,0.0,0.0,0.0,0.0,0.0,0.0,0.0,0.0,0.0,0.0,0.0,0.0,0.0,0.0,0.0,0.0,0.0,0.0,0.0,0.0,0.0,0.0,0.0,0.0,0.0,0.0,0.0,0.0,0.0,0.0,0.0,0.0,0.0,0.0,0.0,0.0,0.0,0.0,0.0,0.0,0.0,0.0,0.0,0.0,0.0,0.0,0.0,0.0,0.0,0.0,0.0,0.0,0.0,0.0,0.0,0.0,0.0,0.0,0.0,0.0,0.0,0.0,0.0,0.0,0.0,0.0,0.0,0.0,0.0,0.0,0.0,0.0,0.0,0.0,0.0,0.0,0.0,0.0,0.0,0.0,0.0,0.0,0.0,0.0,0.0,0.0,0.0,0.0,0.0,0.0,0.0,0.0,0.0,0.0,0.0,0.0,0.0,0.0,0.0,0.0,0.0,0.0,0.0,0.0,0.0,0.0,0.0,0.0,0.0,0.0,0.0,0.0,0.0,0.0,0.0,0.0,0.0,0.0,0.0,0.0,0.0,0.0,0.0,0.0,0.0,0.0,0.0,0.0,0.0,0.0,0.0,0.0,0.0,0.0,0.0,0.0,0.0,0.0,0.0,0.0,0.0,0.0,0.0,0.0,0.0,0.0,0.0,0.0,0.0,0.0,0.0,0.0,0.0,0.0,0.0,0.0,0.0,0.0,0.0,0.0,0.0]}],[{"header":{"parameterUnit":"kt","parameterCategory":2,"dx":1,"dy":1,"la1":29.587661999999998,"la2":31.0,"lo1":-88.76705300000003,"lo2":-86.6583820000003,"nx":115,"ny":88,"refTime":"2022-09-20T12:00:00:Z","depth":0,"parameterNumber":2,"parameterNumberName":"V-component_of_WINDS"},"data":[5.9532,5.9659,5.9803,5.993,6.0061,6.0099,5.9958,5.9697,5.9677,5.9568,5.94,5.9365,5.9421,5.951,5.9489,5.9308,5.9022,5.8809,5.8654,5.8404,5.7899,5.7552,5.7101,5.6524,5.5824,5.5058,5.4303,5.3547,5.2836,5.185,5.0912,4.9782,4.8422,4.7773,4.719,4.5577,4.4062,4.3354,4.1858,4.0301,3.9328,3.791,3.6171,3.4786,3.3718,3.2676,3.1687,3.0515,2.9162,2.7621,2.5813,2.4185,2.3124,2.2536,2.1435,1.9828,1.9,1.7673,1.6428,1.5388,1.395,1.2432,1.1801,1.1039,1.0403,0.9642,0.9002,0.8489,0.744,0.6132,0.564,0.3157,0.2661,0.1795,0.1274,-0.0289,-0.3795,-0.59,-0.746,-0.9272,-1.107,-1.3036,-1.4538,-1.7542,-1.9296,-2.0892,-2.3205,-2.4447,-2.6041,-2.7381,-2.9008,-2.962,-3.0451,-3.3056,-3.4929,-3.4457,-3.4136,-3.5261,-3.5766,-3.5225,-3.4846,-3.4923,-3.4943,-3.4584,-3.4616,-3.4649,-3.4569,-3.469,-3.4231,-3.3642,-3.3163,-3.2724,-3.2643,-3.2608,-3.2975,5.942,5.9502,5.9684,5.9848,6.0059,6.0099,5.9977,5.9853,5.9714,5.9606,5.9478,5.9539,5.9629,5.9539,5.9327,5.9192,5.8962,5.8696,5.8404,5.8066,5.766,5.7294,5.686,5.643,5.5931,5.5179,5.4248,5.3371,5.2368,5.1554,5.0393,4.865,4.7694,4.698,4.4986,4.3257,4.2255,4.1765,4.0538,3.9156,3.7756,3.6448,3.4746,3.3004,3.1335,2.9879,2.8857,2.7576,2.6179,2.5062,2.4346,2.2314,2.1077,2.0049,1.859,1.7293,1.6337,1.5018,1.3551,1.3263,1.2107,1.1168,1.0532,1.0023,0.9759,0.9119,0.8348,0.757,0.6266,0.563,0.5808,0.5185,0.5786,0.5767,0.5446,0.4831,-0.0993,-0.5986,-0.8069,-1.0338,-1.2995,-1.5856,-1.8847,-2.2948,-2.4743,-2.6069,-2.764,-2.8752,-2.9823,-3.0865,-3.2022,-3.2964,-3.3208,-3.4215,-3.6012,-3.5811,-3.5374,-3.6137,-3.6241,-3.6343,-3.6293,-3.5867,-3.5782,-3.625,-3.6792,-3.688,-3.6868,-3.6514,-3.624,-3.5783,-3.5108,-3.447,-3.4044,-3.3422,-3.4212,5.9485,5.9608,5.9714,5.9911,6.0019,5.9986,5.9939,5.9858,5.9798,5.9726,5.9603,5.9644,5.9697,5.9615,5.9397,5.9233,5.8985,5.8617,5.8345,5.7969,5.7553,5.7101,5.6652,5.6288,5.5824,5.5249,5.4248,5.3219,5.2047,5.1282,5.0213,4.8529,4.72,4.5944,4.397,4.2466,4.1376,4.0685,3.9032,3.7428,3.5882,3.4639,3.3175,3.2039,3.0573,2.9464,2.7983,2.5912,2.4689,2.3726,2.1979,1.9864,1.8815,1.7762,1.6303,1.4797,1.378,1.3033,1.2156,1.1596,1.1095,1.099,1.0661,0.9888,0.9501,0.9108,0.8338,0.757,0.6266,0.3725,0.4018,0.5684,0.6266,0.4277,0.3272,-0.0796,-0.7225,-1.0858,-1.189,-1.439,-1.7253,-2.0082,-2.2343,-2.6266,-2.7736,-2.9041,-3.139,-3.2618,-3.2957,-3.3624,-3.4973,-3.5972,-3.5405,-3.6098,-3.766,-3.7749,-3.7091,-3.6435,-3.6269,-3.6356,-3.6436,-3.631,-3.6687,-3.7612,-3.817,-3.8499,-3.8271,-3.7773,-3.7577,-3.6866,-3.6389,-3.6122,-3.4658,-3.3521,-3.4508,5.951,5.9583,5.9745,5.991,5.9965,5.9947,5.9867,5.9851,5.9866,5.9844,5.9752,5.9735,5.9742,5.9696,5.9525,5.9363,5.9152,5.8821,5.849,5.8162,5.7624,5.7219,5.6706,5.6341,5.5776,5.5198,5.45,5.3571,5.2428,5.1185,4.9967,4.7976,4.711,4.5128,4.2923,4.1135,4.0108,3.9376,3.7392,3.522,3.4208,3.2941,3.1446,3.0374,2.8903,2.7645,2.6207,2.4212,2.2951,2.196,1.9418,1.8061,1.7102,1.5819,1.448,1.3107,1.229,1.1985,1.1506,1.1237,1.125,1.126,1.1046,1.0146,0.9073,0.9096,0.858,0.7685,0.6086,0.3177,0.2009,0.4107,0.5317,0.1575,-0.1675,-0.9541,-1.7183,-1.7479,-1.7113,-1.9652,-2.2585,-2.4668,-2.6315,-2.8293,-2.9836,-3.2,-3.4431,-3.5846,-3.6083,-3.7116,-3.8631,-3.9444,-3.8568,-3.8382,-3.9429,-3.9862,-3.9244,-3.8657,-3.7534,-3.6776,-3.6287,-3.672,-3.7328,-3.8524,-3.9136,-3.886,-3.8517,-3.852,-3.8147,-3.7405,-3.7011,-3.7542,-3.6353,-3.4467,-3.5191,5.9307,5.936,5.9591,5.9773,5.9896,5.986,5.9867,5.9858,5.984,5.9866,5.9834,5.9859,5.9844,5.9745,5.9568,5.9468,5.9214,5.8893,5.8601,5.8573,5.7829,5.7295,5.6829,5.6438,5.5824,5.5349,5.4714,5.3892,5.304,5.1326,4.9091,4.6711,4.6168,4.4386,4.1738,3.991,3.844,3.7257,3.4857,3.3105,3.2354,3.0814,2.8835,2.8361,2.6839,2.5014,2.3618,2.2042,2.0218,1.9454,1.8153,1.7023,1.5795,1.4567,1.3032,1.1957,1.1866,1.1707,1.1643,1.1509,1.1815,1.1779,1.1538,0.8516,0.4153,0.2038,0.3586,0.3356,-0.0473,-0.3494,-0.7908,-0.7228,-1.1649,-1.6876,-1.9209,-2.3677,-2.6874,-2.4713,-2.4954,-2.6632,-2.9049,-2.9729,-3.133,-3.2569,-3.4343,-3.5637,-3.7376,-3.8471,-3.9439,-4.0901,-4.2303,-4.3531,-4.2586,-4.208,-4.2268,-4.0974,-4.0712,-4.0032,-3.8866,-3.797,-3.7067,-3.7352,-3.8037,-3.8641,-3.9275,-3.9082,-3.8796,-3.8725,-3.8502,-3.7731,-3.77,-3.8632,-3.7854,-3.5847,-3.5735,5.9557,5.9659,5.9781,5.9841,5.9858,5.9872,5.9871,5.9863,5.9855,5.9869,5.9848,5.9864,5.9821,5.9764,5.9544,5.9397,5.9252,5.8954,5.8536,5.8271,5.7585,5.7109,5.6616,5.6116,5.5645,5.5147,5.4589,5.38,5.2744,5.0835,4.8487,4.6028,4.3982,4.219,4.0194,3.856,3.6941,3.4509,3.2517,3.1076,3.0044,2.9045,2.7875,2.7094,2.6129,2.4508,2.2938,2.1005,1.9374,1.8262,1.6539,1.5533,1.5041,1.4632,1.3521,1.247,1.1742,1.0835,1.0721,1.1113,1.1421,1.1876,1.1289,0.24,-0.4731,-0.7379,-0.476,-0.305,-0.7098,-1.1495,-1.6386,-2.1624,-2.9211,-3.6595,-3.7673,-3.8758,-3.6066,-3.2761,-3.2947,-3.4222,-3.4834,-3.525,-3.5995,-3.7271,-3.8505,-3.8911,-3.9642,-4.0764,-4.217,-4.3704,-4.5022,-4.6208,-4.5826,-4.5423,-4.2912,-4.1427,-4.098,-4.0398,-3.951,-3.8658,-3.7871,-3.7927,-3.8515,-3.9026,-3.9467,-3.9257,-3.9003,-3.8947,-3.8544,-3.7631,-3.7307,-3.7909,-3.7621,-3.6378,-3.5896,5.9802,5.9858,5.9858,5.9844,5.9868,5.986,5.986,5.9872,5.9851,5.9882,5.9906,5.9927,5.9891,5.9726,5.9608,5.9447,5.9195,5.8916,5.8407,5.7951,5.7513,5.6837,5.6144,5.5434,5.5048,5.4576,5.3889,5.2981,5.1824,4.9791,4.7344,4.4637,4.2042,3.992,3.8331,3.7215,3.4713,3.2388,3.0478,2.9575,2.8806,2.7381,2.6406,2.5348,2.4385,2.3062,2.1497,1.9709,1.8122,1.7104,1.5499,1.4514,1.4421,1.4524,1.4515,1.3403,0.947,0.7405,0.7544,0.3968,0.022,-0.0552,-0.0114,-1.3109,-2.0075,-2.2138,-1.7265,-1.4901,-1.5461,-2.0954,-2.6175,-3.0232,-3.5695,-4.1483,-4.4817,-4.5374,-4.4695,-4.1781,-3.9839,-4.072,-3.9745,-4.0032,-3.9603,-4.0677,-4.1132,-4.1293,-4.1839,-4.3037,-4.4391,-4.5893,-4.7238,-4.8264,-4.8274,-4.8404,-4.6031,-4.3594,-4.2374,-4.0956,-4.0152,-3.9363,-3.862,-3.8494,-3.9128,-3.9273,-3.9207,-3.9097,-3.913,-3.8706,-3.8283,-3.7434,-3.7316,-3.7527,-3.755,-3.7243,-3.6765,5.9828,5.9866,5.9866,5.9841,5.9793,5.9513,5.9575,5.9765,5.9739,5.9844,6.002,6.0019,5.9924,5.9796,5.9697,5.9582,5.938,5.9022,5.8431,5.7885,5.7039,5.6255,5.5385,5.4255,5.3638,5.343,5.2723,5.1317,5.0201,4.8265,4.4741,4.1338,3.9684,3.7614,3.5653,3.4291,3.2607,3.0799,2.9097,2.8282,2.7293,2.5814,2.4602,2.3735,2.1966,2.0274,1.6886,1.5326,1.4298,1.2092,1.2804,1.2822,1.3467,1.3717,1.3989,1.0886,0.2488,-0.1346,-0.4655,-1.2275,-1.5842,-2.0423,-2.0721,-2.0997,-2.5708,-2.8771,-2.7867,-2.6897,-2.7346,-3.2086,-3.5393,-3.9091,-4.2546,-4.5717,-5.007,-5.0274,-5.0233,-4.8987,-4.6711,-4.5536,-4.45,-4.404,-4.3554,-4.3504,-4.4035,-4.4328,-4.5049,-4.6009,-4.6616,-4.8046,-4.8893,-4.9862,-4.9973,-5.0556,-4.9721,-4.7339,-4.5567,-4.2819,-4.1752,-4.0227,-3.9553,-3.9181,-3.9276,-3.9249,-3.9079,-3.8979,-3.8896,-3.8571,-3.8103,-3.8204,-3.8145,-3.8295,-3.8416,-3.803,-3.7607,5.8222,5.8364,5.943,5.9326,5.8277,5.715,5.6699,5.6889,5.7805,5.8895,5.9711,5.9896,5.9835,5.9765,5.9697,5.9571,5.9325,5.8879,5.8275,5.6472,5.5731,5.4461,5.3104,5.1818,5.1654,5.0959,5.019,4.9369,4.8283,4.6845,4.3693,3.9942,3.7395,3.5406,3.3433,3.1886,3.0554,2.888,2.6834,2.6097,2.4713,2.2884,2.1723,2.0984,1.8771,1.5096,0.9006,0.4842,0.202,-0.6341,-0.745,-0.4713,0.1319,0.3674,0.4067,0.4229,-0.1101,-0.5902,-1.3195,-2.1547,-3.101,-3.9743,-4.382,-4.3938,-4.3495,-4.0667,-4.0738,-4.0866,-4.3154,-4.5678,-4.7132,-4.664,-4.873,-4.8381,-5.0769,-4.9689,-4.9424,-4.9111,-4.7349,-4.7428,-4.6759,-4.686,-4.6759,-4.6864,-4.6889,-4.7481,-4.8099,-4.839,-4.8776,-4.9544,-5.0241,-5.0066,-4.991,-5.0037,-4.9595,-4.8668,-4.6839,-4.4857,-4.2925,-4.1065,-4.0352,-3.9526,-3.9329,-3.9131,-3.9181,-3.9106,-3.8858,-3.8734,-3.8558,-3.8558,-3.8709,-3.8933,-3.9057,-3.8807,-3.8353,5.659,5.6643,5.7746,5.7288,5.579,5.5117,5.4507,5.4326,5.5713,5.7414,5.873,5.8948,5.9017,5.913,5.8941,5.8279,5.7852,5.7454,5.6238,5.4438,5.3806,5.2265,5.1051,5.0196,4.9541,4.9103,4.7824,4.6947,4.6234,4.4269,4.1827,3.9262,3.6321,3.3652,3.2034,3.0369,2.912,2.7192,2.3342,2.0931,1.8701,1.3744,1.0477,1.0021,0.7166,0.2167,-0.4667,-0.6116,-0.9867,-1.6584,-1.7001,-1.4279,-0.9687,-0.735,-0.6968,-0.6872,-0.737,-1.2743,-2.235,-3.1852,-4.0415,-4.8282,-5.3325,-5.2557,-5.4277,-5.4358,-5.4061,-5.2425,-4.995,-5.0276,-5.3107,-5.2042,-5.149,-5.1288,-5.0673,-4.9563,-4.9,-4.8575,-4.8499,-4.8468,-4.8683,-4.8667,-4.939,-4.9607,-4.9683,-5.0096,-5.0518,-5.083,-5.0661,-5.1157,-5.1184,-5.0621,-5.0098,-4.9765,-4.8858,-4.7554,-4.5777,-4.4217,-4.2812,-4.1658,-4.0954,-4.0138,-3.9846,-3.965,-3.9526,-3.9428,-3.923,-3.9156,-3.9057,-3.8933,-3.9032,-3.9131,-3.9354,-3.9255,-3.8809,5.4973,5.4972,5.5113,5.4059,5.2567,5.3938,5.3499,5.2194,5.3715,5.5456,5.6886,5.7076,5.7593,5.7983,5.708,5.6435,5.578,5.449,5.3138,5.2356,5.1728,5.1082,4.9752,4.8401,4.7397,4.784,4.6285,4.4478,4.3751,4.1964,4.009,3.7805,3.5672,3.3695,3.3106,3.0946,2.8739,2.5712,1.6021,1.1507,0.7051,-0.0375,-0.4163,-0.5821,-0.8225,-1.128,-1.6601,-1.8583,-2.2403,-2.7299,-2.7245,-2.4428,-2.0905,-1.9282,-1.8845,-1.8774,-1.9207,-2.5442,-3.6436,-4.7912,-5.1915,-5.4419,-5.4836,-5.4358,-5.4005,-5.3547,-5.3046,-5.2897,-5.2271,-5.1982,-5.1653,-5.1318,-5.0944,-5.063,-5.003,-4.9299,-4.9075,-4.8804,-4.9044,-4.9205,-4.951,-5.0087,-5.1266,-5.2091,-5.2028,-5.2334,-5.2787,-5.2845,-5.25,-5.2518,-5.2171,-5.1579,-5.0915,-5.0484,-4.9531,-4.7284,-4.5387,-4.3715,-4.2649,-4.2031,-4.1428,-4.1006,-4.0622,-4.0261,-4.0066,-3.9871,-3.9748,-3.9551,-3.9675,-3.9675,-3.9551,-3.9526,-3.965,-3.9551,-3.8933,5.3223,5.3375,5.4472,5.3038,5.0084,5.039,5.021,5.0045,5.1505,5.3111,5.467,5.4896,5.5187,5.5332,5.4982,5.4652,5.407,5.316,5.1846,5.0623,4.943,4.8123,4.6645,4.5515,4.5105,4.4212,4.2977,4.1955,4.1134,4.0015,3.8577,3.6938,3.5171,3.3287,3.207,3.0046,2.4655,1.7946,1.101,0.7143,-0.3972,-0.9089,-1.1886,-1.5628,-1.759,-2.1792,-2.8536,-3.1104,-3.5063,-4.0119,-4.1948,-3.8992,-3.4614,-3.1425,-3.1222,-3.123,-3.2621,-3.7532,-4.6799,-5.3928,-5.4714,-5.4749,-5.4338,-5.3755,-5.3321,-5.3046,-5.2587,-5.2273,-5.2209,-5.208,-5.1851,-5.1454,-5.1049,-5.0667,-4.9998,-4.9667,-4.9489,-4.9416,-4.9646,-5.0078,-5.0649,-5.1187,-5.2209,-5.2743,-5.2803,-5.3197,-5.3133,-5.2698,-5.2558,-5.2244,-5.2188,-5.1781,-5.114,-5.0702,-5.0265,-4.8381,-4.6536,-4.4923,-4.3909,-4.3041,-4.2336,-4.2111,-4.1737,-4.1196,-4.0718,-4.0383,-4.0164,-3.9943,-4.0066,-4.0312,-4.0189,-4.0066,-4.0189,-3.9871,-3.9255,5.1091,5.1167,5.2288,5.1263,4.8882,4.8923,4.8865,4.8966,4.9747,5.0781,5.1644,5.2317,5.2805,5.2906,5.2795,5.2175,5.1687,5.0781,4.9325,4.8111,4.7444,4.6155,4.5019,4.4012,4.3159,4.277,4.1811,4.0552,3.9554,3.9093,3.765,3.6084,3.4733,3.1678,2.6515,2.2541,1.4942,0.6469,-0.1005,-0.5463,-1.5692,-1.861,-2.2881,-2.5597,-2.6683,-3.4228,-3.9754,-4.1941,-4.7837,-5.2708,-5.4124,-5.0074,-4.4979,-4.4406,-4.4113,-4.3901,-4.376,-4.7375,-5.3776,-5.5019,-5.5096,-5.45,-5.3835,-5.3321,-5.2716,-5.2683,-5.2465,-5.2209,-5.208,-5.2014,-5.1785,-5.1488,-5.1155,-5.0948,-5.0635,-5.0284,-5.0141,-5.0038,-5.0291,-5.0848,-5.158,-5.2274,-5.2803,-5.3299,-5.3662,-5.3858,-5.3056,-5.2349,-5.1734,-5.1304,-5.1266,-5.0946,-5.0227,-4.97,-4.9197,-4.8493,-4.7611,-4.647,-4.5442,-4.435,-4.3374,-4.3131,-4.2639,-4.2018,-4.1549,-4.1196,-4.0814,-4.0526,-4.0332,-4.0455,-4.0577,-4.0577,-4.048,-4.0286,-3.9453,4.8717,4.868,4.8848,4.881,4.8588,4.8867,4.8693,4.8273,4.8374,4.8368,4.8635,4.9408,5.0399,5.0695,4.9829,4.8997,4.8155,4.6531,4.6123,4.5731,4.5121,4.4776,4.4047,4.3353,4.2863,4.2446,4.1327,4.0392,3.965,3.8769,3.7478,3.5278,3.1291,2.4423,1.8985,1.388,0.5028,-0.3313,-1.3718,-2.0013,-2.6704,-3.1996,-3.7365,-3.8737,-4.3588,-4.8068,-4.8267,-5.0323,-5.3668,-5.4268,-5.5633,-5.3631,-5.2477,-5.2476,-5.227,-5.2026,-5.1969,-5.2557,-5.4175,-5.5079,-5.4941,-5.4173,-5.3489,-5.308,-5.2841,-5.2654,-5.2434,-5.2306,-5.1851,-5.1785,-5.1487,-5.1185,-5.0916,-5.0742,-5.0673,-5.0603,-5.0742,-5.0742,-5.1085,-5.1752,-5.2343,-5.3035,-5.3628,-5.3365,-5.363,-5.3299,-5.2603,-5.2104,-5.1369,-5.1026,-5.088,-5.041,-4.9549,-4.9066,-4.8544,-4.79,-4.7436,-4.6653,-4.6199,-4.5384,-4.4234,-4.3909,-4.3402,-4.2704,-4.1737,-4.1804,-4.1617,-4.1075,-4.0718,-4.0718,-4.0718,-4.0744,-4.0674,-4.0551,-3.982,4.8127,4.6881,4.6559,4.6376,4.6336,4.6413,4.6412,4.6328,4.637,4.629,4.6345,4.6743,4.7172,4.7273,4.7247,4.6915,4.6688,4.6124,4.5391,4.4681,4.4197,4.3689,4.3116,4.2479,4.2133,4.1839,4.0802,3.9257,3.8812,3.7652,3.588,3.5245,2.4769,1.7977,1.2636,0.4895,-0.2965,-1.0215,-1.9786,-2.8328,-3.4996,-3.8991,-4.1531,-4.4136,-4.6148,-4.7608,-4.9846,-5.2446,-5.3271,-5.3889,-5.4984,-5.5631,-5.5166,-5.5233,-5.5198,-5.5131,-5.5217,-5.4976,-5.4677,-5.4696,-5.4117,-5.3663,-5.3193,-5.3639,-5.3439,-5.3201,-5.2897,-5.2176,-5.1686,-5.132,-5.1017,-5.1081,-5.1013,-5.0944,-5.1045,-5.1185,-5.1454,-5.1521,-5.1883,-5.2337,-5.2794,-5.3554,-5.3492,-5.3426,-5.3132,-5.2771,-5.2344,-5.1849,-5.155,-5.1279,-5.0898,-5.0332,-4.9835,-4.972,-4.9318,-4.8683,-4.745,-4.6775,-4.6804,-4.6086,-4.4437,-4.3849,-4.3849,-4.2859,-4.1737,-4.1643,-4.1523,-4.136,-4.1101,-4.1309,-4.1343,-4.1117,-4.1073,-4.0718,-4.0138,4.7039,4.6078,4.5796,4.5494,4.5397,4.5649,4.5866,4.6006,4.5801,4.5523,4.5356,4.5336,4.5291,4.5326,4.5163,4.5129,4.4972,4.4783,4.4431,4.3878,4.3651,4.317,4.2421,4.2165,4.1692,4.1482,4.0552,3.8689,3.1885,2.9875,2.6079,2.0023,1.2598,0.7061,-0.3038,-0.8522,-1.4241,-2.0948,-2.7214,-3.4751,-3.9475,-4.1202,-4.2089,-4.4728,-4.5339,-4.725,-4.9493,-5.163,-5.2316,-5.3878,-5.4483,-5.5249,-5.4958,-5.4818,-5.4836,-5.4783,-5.5079,-5.4976,-5.4623,-5.5061,-5.4819,-5.4338,-5.4173,-5.4117,-5.3464,-5.2925,-5.2365,-5.1949,-5.1554,-5.1253,-5.1117,-5.1773,-5.1708,-5.1911,-5.2474,-5.2574,-5.2569,-5.2567,-5.2465,-5.2783,-5.3132,-5.3146,-5.3187,-5.2801,-5.2311,-5.2212,-5.2179,-5.1784,-5.1552,-5.1418,-5.0977,-5.0418,-5.0308,-5.0237,-4.9803,-4.9174,-4.7729,-4.678,-4.678,-4.59,-4.4413,-4.3882,-4.4026,-4.3402,-4.227,-4.1643,-4.1239,-4.1422,-4.1832,-4.1963,-4.1997,-4.2552,-4.3026,-4.2511,-4.1532,4.5522,4.5537,4.5459,4.518,4.4817,4.5277,4.5831,4.5998,4.546,4.5177,4.4209,4.4378,4.4115,4.3744,4.3518,4.332,4.3149,4.3127,4.3039,4.2873,4.2794,4.2536,4.2249,4.2274,4.16,4.1114,4.0958,3.3423,2.5101,1.9474,1.2268,0.434,-0.0308,-0.762,-1.4715,-2.0517,-2.895,-3.7592,-4.0212,-4.1021,-4.1274,-4.1505,-4.174,-4.2807,-4.4189,-4.6549,-4.9292,-5.0746,-5.1782,-5.4002,-5.4679,-5.4871,-5.4658,-5.45,-5.4589,-5.4783,-5.4923,-5.5063,-5.5045,-5.5314,-5.5314,-5.4642,-5.4608,-5.3971,-5.3312,-5.2616,-5.2238,-5.1818,-5.1713,-5.1578,-5.1578,-5.2863,-5.2934,-5.2969,-5.3033,-5.3384,-5.3304,-5.2783,-5.2846,-5.3065,-5.2908,-5.2883,-5.2727,-5.208,-5.1586,-5.1884,-5.2112,-5.1818,-5.1619,-5.1619,-5.1282,-5.0972,-5.0796,-5.0411,-4.9917,-4.8977,-4.7778,-4.6581,-4.6193,-4.5555,-4.4326,-4.3529,-4.3869,-4.3988,-4.3095,-4.2297,-4.2255,-4.2408,-4.2593,-4.2865,-4.3266,-4.3901,-4.461,-4.4147,-4.3398,4.3726,4.3641,4.3254,4.3006,4.294,4.3093,4.2897,4.2534,4.2985,4.2677,4.1584,4.2203,4.2292,4.1829,4.1738,4.1738,4.1684,4.1684,4.1656,4.1568,4.1508,4.1297,4.0989,4.0927,4.1051,4.0709,3.9485,3.3383,1.8549,0.9656,0.4199,-0.361,-1.1929,-1.7695,-2.1928,-2.9452,-3.523,-4.0089,-4.1574,-4.2239,-4.1716,-4.1577,-4.1936,-4.3219,-4.4314,-4.6525,-4.972,-5.1149,-5.2269,-5.2955,-5.3746,-5.4352,-5.4207,-5.3904,-5.3983,-5.4608,-5.5061,-5.5112,-5.5026,-5.5144,-5.4819,-5.4151,-5.3858,-5.3513,-5.3013,-5.2869,-5.2812,-5.2534,-5.2338,-5.2101,-5.1974,-5.2964,-5.3133,-5.2639,-5.2891,-5.3434,-5.3199,-5.3065,-5.3065,-5.2846,-5.2721,-5.2498,-5.2177,-5.1653,-5.1752,-5.2047,-5.208,-5.1818,-5.1685,-5.1685,-5.1585,-5.1279,-5.0935,-5.0482,-4.9583,-4.8705,-4.7945,-4.664,-4.574,-4.5326,-4.4353,-4.3364,-4.3659,-4.4016,-4.3349,-4.3612,-4.3475,-4.3535,-4.3924,-4.4254,-4.4522,-4.4791,-4.5029,-4.4844,-4.431,4.264,4.221,4.192,4.1438,4.1009,4.1258,4.1293,4.1171,4.1596,4.1356,4.0927,4.1112,4.1112,4.0709,4.0772,4.0958,4.1019,4.1019,4.105,4.1113,4.1113,4.1083,4.1299,4.1299,4.1176,3.9026,3.2828,2.1345,0.2731,-0.4786,-1.1548,-1.706,-2.3643,-2.787,-3.0235,-3.5269,-3.8064,-3.9789,-4.1491,-4.2611,-4.2579,-4.3713,-4.5077,-4.6166,-4.7093,-4.8859,-5.1697,-5.3307,-5.3251,-5.3835,-5.4437,-5.4334,-5.415,-5.4007,-5.4192,-5.3972,-5.4138,-5.4248,-5.4159,-5.4214,-5.4151,-5.3673,-5.3455,-5.316,-5.2869,-5.328,-5.3492,-5.3233,-5.3062,-5.2932,-5.2834,-5.3593,-5.3464,-5.2865,-5.3547,-5.3769,-5.3299,-5.3003,-5.275,-5.2465,-5.2144,-5.1851,-5.1554,-5.1785,-5.1982,-5.2047,-5.2014,-5.1949,-5.1752,-5.1619,-5.1485,-5.1247,-5.0972,-5.0205,-4.9131,-4.876,-4.8292,-4.6647,-4.5515,-4.5098,-4.4356,-4.3838,-4.3781,-4.4476,-4.4816,-4.5102,-4.5055,-4.4949,-4.5397,-4.5755,-4.5603,-4.5655,-4.5648,-4.5476,-4.4769,4.1656,4.1019,4.1019,4.0337,3.959,4.0054,4.049,4.0647,4.0772,4.0615,4.02,4.0456,4.0265,3.9972,4.0102,4.0359,4.0485,4.0918,4.1391,4.2019,4.2145,4.2208,4.246,4.2334,3.8136,3.3509,2.0458,0.4507,-1.1641,-2.0662,-2.5009,-3.3746,-3.6441,-3.6809,-3.6902,-3.8799,-3.9974,-4.1145,-4.3177,-4.4369,-4.4998,-4.6105,-4.778,-4.8854,-4.9487,-5.153,-5.4439,-5.4813,-5.5008,-5.619,-5.6047,-5.5376,-5.4909,-5.5262,-5.5161,-5.4854,-5.4796,-5.5016,-5.4855,-5.4617,-5.4412,-5.4125,-5.3827,-5.3209,-5.3361,-5.3629,-5.3759,-5.3648,-5.3681,-5.372,-5.4324,-5.4325,-5.3826,-5.3484,-5.3643,-5.3817,-5.305,-5.2528,-5.2176,-5.1916,-5.1519,-5.1182,-5.142,-5.1686,-5.1851,-5.1949,-5.1982,-5.1949,-5.1752,-5.1619,-5.1315,-5.1041,-5.0866,-4.9835,-4.8944,-4.9048,-4.8519,-4.68,-4.5341,-4.501,-4.4811,-4.4314,-4.4822,-4.6102,-4.6678,-4.676,-4.6612,-4.6603,-4.6873,-4.7313,-4.6968,-4.6446,-4.622,-4.5965,-4.5282,4.0197,4.0037,4.0068,3.9942,3.9816,3.9846,3.9674,3.9438,3.9907,3.9578,3.876,3.9214,3.9558,3.8986,3.9084,3.9093,3.9662,4.0692,4.2337,4.2779,4.2269,4.113,4.1199,3.826,3.0488,0.8533,-0.1652,-0.9358,-1.9073,-2.7046,-3.3987,-3.746,-3.9271,-3.999,-4.0804,-4.1833,-4.2625,-4.3508,-4.6037,-4.7624,-4.7859,-4.8611,-4.9162,-5.0279,-5.1302,-5.3814,-5.53,-5.6569,-5.727,-5.7314,-5.7283,-5.7148,-5.7044,-5.7345,-5.73,-5.7164,-5.6883,-5.6747,-5.6617,-5.6758,-5.6602,-5.671,-5.5152,-5.4656,-5.5085,-5.4714,-5.411,-5.4015,-5.4152,-5.4192,-5.348,-5.3954,-5.4082,-5.3313,-5.2534,-5.2342,-5.2014,-5.162,-5.1487,-5.1318,-5.1285,-5.1081,-5.1253,-5.1454,-5.1686,-5.1916,-5.1916,-5.1851,-5.1686,-5.1452,-5.0935,-5.0649,-5.0369,-4.9573,-4.9727,-4.9826,-4.8743,-4.7124,-4.5247,-4.5229,-4.5272,-4.5514,-4.6269,-4.7557,-4.8468,-4.8326,-4.8304,-4.7945,-4.8155,-4.894,-4.8451,-4.687,-4.6413,-4.6352,-4.587,3.9608,3.9334,3.9304,3.9131,3.876,3.8858,3.876,3.8691,3.9004,3.8867,3.8768,3.9584,3.9861,3.9779,4.0813,4.0902,4.1746,4.2621,4.3398,4.2209,3.5669,3.3281,3.2545,2.5494,1.38,-0.4935,-1.4413,-2.1585,-2.8059,-3.5479,-3.9447,-4.0618,-4.2124,-4.263,-4.2645,-4.3584,-4.4595,-4.5627,-4.785,-4.9757,-5.032,-5.1233,-5.1762,-5.2591,-5.4225,-5.6144,-5.7321,-5.8495,-5.8831,-5.9067,-5.9471,-5.9434,-5.8695,-5.8427,-5.7992,-5.7389,-5.7222,-5.7289,-5.7188,-5.6953,-5.6679,-5.6405,-5.498,-5.5208,-5.5467,-5.4908,-5.431,-5.4835,-5.4937,-5.4648,-5.3761,-5.3859,-5.3098,-5.2273,-5.1916,-5.1653,-5.1487,-5.0843,-5.0533,-5.1353,-5.1218,-5.0981,-5.1049,-5.1117,-5.1318,-5.1704,-5.1704,-5.164,-5.147,-5.1213,-5.0641,-5.058,-5.0254,-5.0179,-5.0427,-5.0166,-4.9231,-4.8045,-4.6717,-4.6796,-4.708,-4.7514,-4.7869,-4.9193,-5.0601,-5.0311,-4.8973,-4.906,-4.8993,-4.8374,-4.7552,-4.678,-4.6035,-4.5286,-4.4915,3.9199,3.8611,3.872,3.8303,3.7765,3.8195,3.8525,3.8454,3.8786,3.9205,3.8656,3.6531,3.566,3.5727,3.2439,3.4261,3.1472,3.2275,3.5624,3.4384,2.2945,1.8508,1.1826,0.1026,-1.0261,-1.8104,-2.1311,-2.7532,-3.5814,-3.9516,-4.179,-4.2308,-4.3659,-4.4684,-4.409,-4.51,-4.596,-4.6771,-4.8906,-5.0933,-5.2194,-5.3203,-5.3946,-5.4729,-5.5518,-5.7273,-5.913,-6.0042,-6.0144,-6.0144,-6.0473,-6.0395,-5.9648,-5.9139,-5.8404,-5.7364,-5.6864,-5.6463,-5.6393,-5.6322,-5.5964,-5.5912,-5.497,-5.4642,-5.5998,-5.5013,-5.4678,-5.5336,-5.5382,-5.4536,-5.3463,-5.2475,-5.1949,-5.1521,-5.1155,-5.0984,-5.088,-5.0252,-5.0425,-5.1049,-5.0742,-5.0347,-5.1193,-5.1111,-5.1264,-5.1424,-5.1488,-5.1456,-5.1222,-5.1001,-5.1094,-5.136,-5.1017,-5.0757,-5.1179,-5.1221,-5.0631,-4.9863,-4.927,-4.928,-4.975,-5.017,-5.0191,-5.1054,-5.2055,-5.0776,-4.9022,-4.8935,-4.7952,-4.6793,-4.5743,-4.5622,-4.5278,-4.414,-4.3697,3.8204,3.7879,3.8373,3.7992,3.7575,3.8939,3.9352,3.9145,3.9966,4.012,3.7148,2.7177,2.3823,2.1517,1.4029,0.5758,0.6141,1.0724,0.9458,1.0114,0.8697,0.0518,-1.0204,-2.342,-3.0481,-3.2802,-3.4885,-3.6584,-3.829,-4.0073,-4.1205,-4.3089,-4.4825,-4.5369,-4.5672,-4.7055,-4.8381,-4.9143,-5.1012,-5.2656,-5.355,-5.3999,-5.4623,-5.5326,-5.5103,-5.6119,-5.8295,-6.0052,-6.0637,-5.9252,-5.9315,-5.9875,-6.0633,-5.9426,-5.8586,-5.8052,-5.6953,-5.6322,-5.6355,-5.6322,-5.636,-5.6064,-5.5115,-5.5354,-5.6219,-5.4952,-5.3887,-5.4585,-5.4354,-5.3321,-5.2274,-5.2113,-5.1617,-5.1004,-5.0181,-5.0006,-5.011,-5.007,-5.0245,-5.0944,-5.0284,-5.0381,-5.1001,-5.1524,-5.1808,-5.2091,-5.2406,-5.2374,-5.2142,-5.156,-5.1498,-5.1844,-5.1793,-5.146,-5.1878,-5.2194,-5.1916,-5.1666,-5.1267,-5.1223,-5.1684,-5.1566,-5.2064,-5.1812,-5.0909,-4.9978,-4.8804,-4.7713,-4.6654,-4.5764,-4.6012,-4.5442,-4.4883,-4.4295,-4.4222,3.775,3.7477,3.8728,3.8796,3.8371,3.9865,4.0377,4.0255,4.0543,3.6832,2.903,2.3004,1.6896,0.9505,0.4346,0.2132,0.2298,0.3408,0.35,0.3681,0.39,-0.8357,-2.6187,-3.5246,-3.947,-3.875,-3.9207,-3.9741,-4.0024,-4.161,-4.3048,-4.4361,-4.6495,-4.7413,-4.7136,-4.8782,-4.9598,-4.9964,-5.1878,-5.3426,-5.423,-5.4755,-5.5451,-5.608,-5.6529,-5.6597,-5.7676,-5.8559,-5.8719,-5.8213,-5.8574,-5.8907,-5.8631,-5.8526,-5.825,-5.732,-5.6788,-5.6256,-5.618,-5.6108,-5.6114,-5.5998,-5.4977,-5.5216,-5.5782,-5.4123,-5.2687,-5.297,-5.2036,-5.1065,-5.0364,-5.1121,-5.1432,-5.0949,-4.9661,-4.9044,-4.9604,-5.0211,-5.0812,-5.1362,-5.1569,-5.1719,-5.2043,-5.2118,-5.2459,-5.2843,-5.3214,-5.3183,-5.3101,-5.2248,-5.1859,-5.2261,-5.2415,-5.265,-5.2996,-5.3191,-5.2995,-5.2891,-5.267,-5.2602,-5.2617,-5.2064,-5.1914,-5.1194,-5.0039,-4.9098,-4.8438,-4.759,-4.6322,-4.5743,-4.6435,-4.6236,-4.5834,-4.5345,-4.5519,3.8387,3.8127,3.9591,3.9731,3.9356,4.0689,4.139,4.1587,4.1592,3.3326,2.0006,1.5084,0.5664,-0.3724,-0.6497,-0.7355,-0.9244,-0.8282,-0.6491,-0.6402,-0.6173,-1.9617,-3.4915,-3.9529,-3.9927,-4.0054,-4.0608,-4.1244,-4.1334,-4.2596,-4.405,-4.5363,-4.6962,-4.8055,-4.8322,-4.918,-4.9654,-4.9673,-5.1563,-5.3033,-5.365,-5.489,-5.6064,-5.6783,-5.7217,-5.7378,-5.7071,-5.6903,-5.6519,-5.5606,-5.6574,-5.6875,-5.6703,-5.66,-5.6266,-5.5702,-5.5369,-5.5003,-5.4831,-5.4728,-5.4831,-5.4941,-5.3821,-5.3851,-5.4911,-5.2564,-5.1714,-5.1646,-5.0571,-4.9615,-4.9804,-5.0437,-5.0883,-5.0719,-4.9763,-4.9299,-4.996,-5.0723,-5.1594,-5.2094,-5.2193,-5.2294,-5.2554,-5.2767,-5.2895,-5.3322,-5.3505,-5.3505,-5.3661,-5.3221,-5.3224,-5.349,-5.3456,-5.3799,-5.3994,-5.4097,-5.402,-5.3796,-5.364,-5.3426,-5.2992,-5.2247,-5.1532,-5.0595,-4.9207,-4.8359,-4.7692,-4.7401,-4.6254,-4.5097,-4.5729,-4.6414,-4.6147,-4.5976,-4.6045,4.0416,4.0202,4.0713,4.0419,3.9932,4.14,4.2434,4.2819,4.2201,3.1119,1.3415,-0.1385,-1.2317,-1.9885,-2.8315,-3.261,-3.6392,-3.3285,-3.2105,-3.2634,-3.279,-3.3261,-3.79,-3.9235,-3.9984,-4.0689,-4.1023,-4.1525,-4.2223,-4.2529,-4.3257,-4.4891,-4.6049,-4.6616,-4.7598,-4.8254,-4.8745,-4.8966,-5.0847,-5.1829,-5.2162,-5.4059,-5.5385,-5.5604,-5.5912,-5.584,-5.5474,-5.5578,-5.4498,-5.1816,-5.2176,-5.3529,-5.5142,-5.3726,-5.3231,-5.3955,-5.287,-5.2541,-5.2278,-5.254,-5.2607,-5.2739,-5.2377,-5.2081,-5.2243,-5.1198,-5.0578,-5.1297,-5.0328,-4.9929,-5.0607,-5.0556,-4.996,-4.9803,-4.9948,-5.0408,-5.1112,-5.1945,-5.2442,-5.2513,-5.1934,-5.1755,-5.3283,-5.3374,-5.3824,-5.4485,-5.4755,-5.4727,-5.4665,-5.4515,-5.4838,-5.4775,-5.4502,-5.4641,-5.4391,-5.4436,-5.4244,-5.402,-5.3767,-5.3542,-5.3049,-5.2044,-5.1222,-4.9638,-4.8275,-4.7522,-4.701,-4.6876,-4.624,-4.5787,-4.5883,-4.6005,-4.6144,-4.5913,-4.5952,4.0315,4.0015,4.126,4.1316,4.0942,4.2213,4.2927,4.199,3.4067,1.7853,-0.085,-1.26,-2.2294,-3.1747,-3.7289,-3.965,-3.9453,-3.9156,-3.9327,-3.9719,-3.9001,-3.911,-4.0063,-3.9731,-4.0248,-4.1467,-4.2208,-4.2636,-4.2896,-4.2517,-4.3274,-4.4927,-4.5161,-4.5945,-4.747,-4.7943,-4.8054,-4.8275,-4.9718,-5.0512,-5.1034,-5.2864,-5.4126,-5.4385,-5.5544,-5.5233,-5.3551,-5.2831,-5.2127,-5.1203,-4.939,-4.9301,-5.0733,-5.1587,-5.1719,-5.162,-5.162,-5.1851,-5.1685,-5.1685,-5.1784,-5.1752,-5.1485,-5.1282,-5.0944,-5.0386,-4.9751,-4.9804,-4.928,-4.9173,-4.97,-4.9855,-5.0227,-5.0196,-5.028,-5.0702,-5.1568,-5.2475,-5.2974,-5.3128,-5.3404,-5.3943,-5.433,-5.4479,-5.4749,-5.5018,-5.5227,-5.5227,-5.5227,-5.5227,-5.5044,-5.4949,-5.5009,-5.4914,-5.4819,-5.4628,-5.4436,-5.402,-5.3601,-5.3078,-5.255,-5.1532,-5.0489,-4.8908,-4.8037,-4.734,-4.7206,-4.6831,-4.6601,-4.6846,-4.6937,-4.648,-4.5808,-4.5582,-4.548,4.1091,4.0915,4.2033,4.0027,3.5721,3.6372,3.1874,2.4826,1.6048,-0.0753,-1.8934,-2.4388,-3.0869,-3.8292,-3.9675,-3.9453,-3.9131,-3.8858,-3.9322,-4.0004,-3.9388,-3.979,-4.0728,-4.0331,-4.0627,-4.1835,-4.273,-4.2981,-4.2837,-4.2526,-4.3295,-4.4859,-4.5069,-4.5945,-4.7582,-4.772,-4.7883,-4.7969,-4.9072,-4.9798,-5.0329,-5.2162,-5.3415,-5.4,-5.5235,-5.5,-5.2723,-5.1745,-5.119,-5.0776,-4.8705,-4.7587,-4.7919,-4.9483,-5.0272,-4.9976,-5.1063,-5.1752,-5.1617,-5.1483,-5.145,-5.135,-5.0903,-5.0489,-5.0316,-4.9772,-4.9324,-4.933,-4.8822,-4.8852,-4.9113,-4.9727,-4.9973,-5.0335,-5.0549,-5.1205,-5.2247,-5.2981,-5.3433,-5.3851,-5.4659,-5.5138,-5.5197,-5.5168,-5.5138,-5.5227,-5.5227,-5.5227,-5.5227,-5.5227,-5.5103,-5.5009,-5.4884,-5.4884,-5.4599,-5.4377,-5.3865,-5.3247,-5.265,-5.2044,-5.1401,-5.0462,-4.9638,-4.8596,-4.7926,-4.7479,-4.7464,-4.7283,-4.7209,-4.727,-4.6991,-4.6409,-4.5649,-4.5182,-4.5064,4.2904,4.1846,4.2896,3.4297,2.3045,2.2401,0.9559,-0.6055,-0.9864,-1.9585,-3.4979,-3.8721,-3.8386,-3.9697,-3.9453,-3.9131,-3.8858,-3.8756,-3.9266,-4.0371,-4.0218,-4.0484,-4.1095,-4.0976,-4.1189,-4.1769,-4.2036,-4.2208,-4.2208,-4.2647,-4.3344,-4.4552,-4.5534,-4.6403,-4.7453,-4.7582,-4.7772,-4.7995,-4.8663,-4.9825,-5.109,-5.2016,-5.3119,-5.4348,-5.4789,-5.4293,-5.289,-5.2864,-5.163,-4.9711,-4.9008,-4.8653,-4.7564,-4.7806,-4.8365,-4.9552,-5.0933,-5.1653,-5.1684,-5.135,-5.1182,-5.0977,-5.0347,-4.9949,-4.9772,-4.9212,-4.9114,-4.9666,-4.9205,-4.9037,-4.9819,-4.9447,-4.9288,-5.0092,-5.1188,-5.2108,-5.3043,-5.3374,-5.3854,-5.4562,-5.489,-5.5197,-5.5227,-5.5227,-5.5103,-5.5009,-5.5009,-5.4884,-5.4694,-5.4694,-5.5009,-5.5009,-5.4569,-5.4029,-5.4029,-5.4029,-5.3218,-5.2392,-5.1504,-5.0777,-5.0039,-4.9504,-4.8553,-4.8515,-4.7957,-4.7491,-4.7544,-4.7394,-4.738,-4.6656,-4.6695,-4.6359,-4.5327,-4.4429,-4.4294,3.7674,2.9778,2.9079,2.1032,0.8914,0.8244,0.0283,-1.1893,-1.5785,-2.5744,-3.8165,-4.0256,-3.999,-3.9453,-3.9354,-3.9032,-3.8658,-3.9315,-4.0218,-4.1194,-4.1003,-4.1667,-4.2672,-4.2085,-4.1698,-4.2041,-4.2094,-4.1987,-4.162,-4.2041,-4.2985,-4.4033,-4.4903,-4.583,-4.6907,-4.7071,-4.7097,-4.7323,-4.7694,-4.806,-4.8719,-5.054,-5.1914,-5.2449,-5.3572,-5.3787,-5.2858,-5.1164,-4.9698,-4.856,-4.6519,-4.5338,-4.5672,-4.6839,-4.7839,-4.8345,-5.0377,-5.1585,-5.135,-5.1182,-5.0977,-5.0591,-5.0308,-4.9876,-4.9393,-4.9168,-4.9021,-4.9068,-4.8791,-4.8699,-4.9031,-4.9178,-4.9832,-5.1313,-5.1758,-5.2375,-5.3492,-5.3574,-5.3367,-5.323,-5.3611,-5.4029,-5.4126,-5.4789,-5.4694,-5.4029,-5.4029,-5.3611,-5.3119,-5.2921,-5.302,-5.2992,-5.3119,-5.2892,-5.2464,-5.2392,-5.1885,-5.0645,-4.9638,-4.9288,-4.8636,-4.8086,-4.7789,-4.8106,-4.8031,-4.7685,-4.7551,-4.7426,-4.6695,-4.5643,-4.5388,-4.4914,-4.4047,-4.3339,-4.1974,2.7915,1.5001,1.4895,0.68,-0.5425,-0.5913,-1.223,-2.2362,-2.5532,-3.1866,-3.9151,-3.9943,-3.9625,-3.9156,-3.9131,-3.8908,-3.8607,-3.9529,-4.0624,-4.1465,-4.1186,-4.2116,-4.3653,-4.2231,-4.1699,-4.2221,-4.1865,-4.138,-4.0937,-4.1206,-4.2162,-4.3344,-4.4151,-4.5252,-4.625,-4.6529,-4.6579,-4.6883,-4.6757,-4.6995,-4.7754,-4.9584,-5.0356,-5.0117,-5.2117,-5.2864,-5.1993,-5.0927,-4.9513,-4.8189,-4.5806,-4.4465,-4.4736,-4.5558,-4.639,-4.7394,-4.9351,-5.0635,-5.0635,-5.0635,-5.0457,-5.0308,-5.0269,-4.9803,-4.9318,-4.9093,-4.879,-4.8528,-4.8586,-4.8847,-4.8991,-4.9303,-5.0139,-5.1325,-5.1752,-5.2196,-5.286,-5.2992,-5.2664,-5.2162,-5.2363,-5.2892,-5.3091,-5.3835,-5.4126,-5.3189,-5.2864,-5.2664,-5.206,-5.1959,-5.206,-5.1959,-5.1857,-5.1681,-5.1062,-5.0749,-5.0329,-4.9098,-4.8359,-4.8112,-4.7763,-4.7276,-4.7043,-4.7325,-4.7415,-4.7137,-4.7052,-4.684,-4.5632,-4.4524,-4.3839,-4.3233,-4.1757,-4.1102,-3.9883,1.4744,0.2645,0.0943,-0.7376,-2.0042,-2.0138,-2.7643,-3.8095,-3.9078,-3.9401,-3.9599,-3.9428,-3.9131,-3.8858,-3.8858,-3.8734,-3.8555,-3.9346,-4.0281,-4.1113,-4.1,-4.1848,-4.3345,-4.1482,-4.137,-4.2554,-4.1333,-4.0468,-4.0112,-4.0508,-4.1352,-4.2526,-4.3582,-4.4552,-4.579,-4.593,-4.617,-4.6576,-4.626,-4.6478,-4.7754,-4.8963,-4.9072,-4.8474,-5.043,-5.1224,-5.0512,-5.173,-5.0894,-4.756,-4.6543,-4.5745,-4.4908,-4.4057,-4.4754,-4.6831,-4.81,-4.9057,-4.9709,-4.952,-4.9551,-4.999,-4.9542,-4.9279,-4.8773,-4.8529,-4.8233,-4.774,-4.8751,-4.9326,-4.938,-4.9742,-5.0276,-5.0418,-5.1252,-5.1716,-5.1857,-5.1857,-5.1857,-5.1653,-5.1551,-5.1653,-5.1885,-5.2664,-5.2793,-5.219,-5.1885,-5.1681,-5.1448,-5.1551,-5.1448,-5.1448,-5.1345,-5.1062,-4.9125,-4.9016,-4.8798,-4.7917,-4.747,-4.7384,-4.7035,-4.6652,-4.651,-4.6388,-4.6596,-4.6703,-4.67,-4.5921,-4.4578,-4.3652,-4.296,-4.1588,-4.0053,-3.9146,-3.8088,0.5567,0.1353,-0.9138,-2.1503,-3.3942,-3.4229,-3.6293,-3.9378,-3.9428,-3.9428,-3.9428,-3.9329,-3.9008,-3.8609,-3.8609,-3.8409,-3.8353,-3.9266,-4.0222,-4.088,-4.1491,-4.2305,-4.3297,-4.221,-4.1704,-4.163,-4.0693,-3.985,-3.9484,-4.0134,-4.1083,-4.2162,-4.332,-4.4528,-4.5624,-4.579,-4.593,-4.5955,-4.5955,-4.6045,-4.6592,-4.7445,-4.7865,-4.7787,-4.8589,-4.8891,-4.863,-4.8596,-4.7609,-4.5618,-4.5799,-4.543,-4.4334,-4.4535,-4.5436,-4.6947,-4.8057,-4.8681,-4.8756,-4.7859,-4.7556,-4.8054,-4.7273,-4.6801,-4.7239,-4.7239,-4.7414,-4.8085,-4.8893,-4.9338,-4.939,-4.9896,-5.0432,-5.0796,-5.0737,-5.0727,-5.0832,-5.0805,-5.0489,-4.9638,-4.9745,-4.9745,-5.07,-5.1579,-5.1885,-5.1014,-5.0832,-5.0595,-4.9718,-4.9638,-4.9611,-4.9504,-4.9504,-4.9207,-4.8825,-4.8386,-4.7694,-4.6995,-4.6364,-4.6038,-4.5256,-4.5083,-4.5017,-4.6222,-4.6035,-4.5887,-4.6171,-4.5077,-4.3672,-4.2793,-4.1608,-4.0072,-3.8629,-3.8294,-3.7253,-0.0189,-0.6129,-1.4882,-2.682,-3.8956,-3.965,-3.9428,-3.923,-3.9131,-3.9156,-3.9032,-3.9032,-3.8709,-3.8309,-3.8309,-3.8208,-3.8049,-3.9433,-4.0331,-4.0731,-4.1435,-4.2214,-4.2841,-4.1962,-4.1502,-4.1105,-4.0361,-3.9758,-3.9401,-3.9653,-4.0486,-4.1797,-4.2382,-4.3582,-4.5277,-4.5442,-4.5418,-4.5393,-4.5418,-4.5442,-4.5509,-4.5546,-4.5772,-4.6092,-4.6337,-4.6255,-4.5936,-4.6074,-4.5603,-4.4769,-4.4688,-4.4824,-4.4999,-4.5052,-4.565,-4.6786,-4.7408,-4.7816,-4.7894,-4.6588,-4.6087,-4.6674,-4.5903,-4.5474,-4.5784,-4.6404,-4.7133,-4.8217,-4.8961,-4.9641,-5.0025,-5.0183,-5.0305,-5.0439,-5.0227,-4.9934,-4.9692,-4.9692,-4.9369,-4.8715,-4.8606,-4.9043,-5.0093,-5.0489,-5.0278,-4.988,-4.9692,-4.9477,-4.8825,-4.8606,-4.8606,-4.8496,-4.7891,-4.7556,-4.7445,-4.7332,-4.6769,-4.607,-4.5855,-4.5635,-4.5146,-4.4916,-4.5363,-4.6245,-4.5676,-4.5392,-4.5566,-4.4524,-4.338,-4.2034,-4.0673,-3.9428,-3.7252,-3.6882,-3.5844,-0.5904,-1.8409,-1.9816,-2.7464,-3.913,-3.9354,-3.923,-3.9131,-3.8933,-3.8858,-3.8833,-3.8609,-3.8309,-3.8107,-3.8252,-3.8145,-3.8006,-3.9672,-4.0533,-4.0657,-4.1162,-4.1766,-4.2094,-4.1076,-4.0739,-4.0915,-4.0258,-3.9632,-3.9423,-3.8874,-3.9484,-4.1206,-4.1307,-4.2526,-4.4483,-4.4859,-4.4976,-4.4952,-4.4718,-4.4742,-4.4762,-4.3813,-4.3503,-4.384,-4.371,-4.3373,-4.3042,-4.3946,-4.4503,-4.4258,-4.3648,-4.4149,-4.5935,-4.5357,-4.521,-4.6276,-4.6423,-4.6588,-4.6908,-4.5638,-4.5032,-4.5539,-4.5128,-4.4698,-4.4856,-4.5695,-4.6826,-4.7998,-4.8817,-4.958,-5.0653,-5.0435,-4.9907,-4.9287,-4.9205,-4.9123,-4.8606,-4.8496,-4.8606,-4.8606,-4.8606,-4.8908,-4.9799,-4.9342,-4.8825,-4.8825,-4.8825,-4.8579,-4.8165,-4.8165,-4.8249,-4.8028,-4.6995,-4.606,-4.6085,-4.588,-4.6038,-4.5646,-4.6289,-4.6294,-4.5575,-4.5662,-4.6159,-4.5814,-4.511,-4.4663,-4.4566,-4.413,-4.3213,-4.14,-4.0091,-3.9064,-3.6808,-3.5794,-3.4728,-1.9108,-3.1869,-3.2773,-3.5061,-3.8135,-3.8734,-3.8833,-3.8685,-3.8609,-3.8609,-3.8609,-3.8509,-3.8309,-3.8204,-3.9001,-3.905,-3.8843,-3.9894,-4.0822,-4.1208,-4.1001,-4.1388,-4.1972,-4.0759,-4.0266,-4.0215,-3.938,-3.9,-3.8895,-3.8109,-3.8598,-4.009,-4.1774,-4.2865,-4.3344,-4.4365,-4.4952,-4.4835,-4.3367,-4.3271,-4.4483,-4.3608,-4.3164,-4.338,-4.2048,-4.1634,-4.2216,-4.2146,-4.2364,-4.2923,-4.3188,-4.3543,-4.4058,-4.4009,-4.4068,-4.4437,-4.4928,-4.5386,-4.5384,-4.4566,-4.441,-4.5258,-4.3362,-4.2831,-4.4273,-4.4234,-4.4752,-4.6602,-4.7764,-4.8452,-4.8749,-4.9018,-4.8745,-4.7531,-4.7556,-4.7694,-4.7694,-4.8138,-4.8606,-4.8606,-4.8606,-4.8606,-4.8934,-4.8715,-4.8496,-4.8496,-4.8606,-4.7917,-4.6882,-4.7108,-4.7108,-4.663,-4.6174,-4.5955,-4.588,-4.6343,-4.6316,-4.5326,-4.5887,-4.6222,-4.5897,-4.5235,-4.5079,-4.5632,-4.5244,-4.4463,-4.3588,-4.2981,-4.1886,-4.0033,-3.8611,-3.7147,-3.5999,-3.5556,-3.4619,-1.8881,-2.5419,-2.6299,-3.0795,-3.7577,-3.8006,-3.8309,-3.8509,-3.8232,-3.8107,-3.8107,-3.8107,-3.7929,-3.7846,-3.8849,-3.9115,-3.8759,-4.0286,-4.1045,-4.1116,-4.1319,-4.1343,-4.1061,-4.0258,-3.9779,-3.938,-3.8747,-3.8385,-3.8129,-3.7744,-3.7832,-3.8577,-4.0274,-4.1385,-4.1828,-4.2457,-4.3105,-4.3463,-3.978,-3.8317,-3.9226,-3.6755,-3.5471,-3.5557,-3.5006,-3.4835,-3.5431,-3.544,-3.5984,-3.705,-3.7542,-3.8771,-4.0741,-4.1208,-4.1737,-4.2752,-4.3188,-4.3222,-4.2575,-4.2604,-4.2773,-4.3017,-4.145,-4.1302,-4.3022,-4.2731,-4.3125,-4.4667,-4.5936,-4.6838,-4.7047,-4.7394,-4.735,-4.6755,-4.6831,-4.6831,-4.6743,-4.7108,-4.7332,-4.7332,-4.7332,-4.7332,-4.7307,-4.7332,-4.7332,-4.7332,-4.7332,-4.6969,-4.6035,-4.637,-4.6368,-4.5614,-4.5762,-4.6005,-4.6126,-4.6725,-4.6734,-4.585,-4.7042,-4.7746,-4.6953,-4.7153,-4.6825,-4.6449,-4.5286,-4.4167,-4.2974,-4.2224,-4.0881,-3.8842,-3.7405,-3.6394,-3.5175,-3.4775,-3.4016,-1.4415,-1.6084,-1.6158,-2.417,-3.6758,-3.7066,-3.7577,-3.8107,-3.7601,-3.7546,-3.775,-3.775,-3.757,-3.7334,-3.8618,-3.89,-3.8801,-4.0744,-4.1301,-4.0853,-4.1577,-4.1229,-4.0008,-3.9653,-3.9148,-3.8619,-3.8237,-3.7873,-3.7466,-3.7487,-3.7466,-3.7426,-3.8195,-3.9294,-4.023,-4.0332,-4.039,-4.0415,-3.5401,-3.3205,-3.4032,-3.0036,-2.7675,-2.7202,-2.7811,-2.772,-2.7409,-2.8108,-2.8867,-2.9828,-3.0309,-3.2396,-3.6324,-3.6673,-3.7845,-3.9866,-4.0266,-3.9946,-3.8996,-4.0034,-4.0516,-4.0269,-3.9738,-3.9801,-4.0653,-4.1098,-4.1822,-4.2741,-4.3917,-4.487,-4.5234,-4.5412,-4.5444,-4.5559,-4.5886,-4.5873,-4.5417,-4.5706,-4.5945,-4.606,-4.583,-4.592,-4.606,-4.5945,-4.606,-4.583,-4.5855,-4.574,-4.5632,-4.5735,-4.5488,-4.5222,-4.5649,-4.6164,-4.6586,-4.7215,-4.7543,-4.678,-4.8719,-4.9495,-4.8095,-4.8209,-4.7869,-4.6771,-4.5205,-4.3746,-4.2472,-4.1618,-3.988,-3.7862,-3.7147,-3.6505,-3.4305,-3.321,-3.2709,-1.8404,-2.8593,-2.9614,-3.1399,-3.389,-3.58,-3.6528,-3.6448,0.0,0.0,0.0,-3.775,-3.757,-3.7507,-3.9266,-3.9981,-3.9923,-4.1417,-4.2077,-4.1835,-4.0893,-4.0112,-3.9653,-3.9148,-3.864,-3.8237,-3.7852,-3.7595,-3.7466,-3.7337,-3.7575,-3.8067,-3.7446,-3.8047,-4.0003,-4.0149,-3.797,-3.3612,-3.1771,-3.3744,-3.9191,-3.6482,-3.3486,-3.0439,-3.0283,-2.8664,-2.5617,-2.6777,-2.7354,-2.6904,-2.6958,-2.7783,-2.9337,-2.9337,-2.9964,-3.1645,-3.2596,-3.3789,-3.5253,-3.6216,-3.749,-3.9177,-3.8745,-3.7814,-3.6415,-3.8755,-4.0718,-4.1733,-4.2715,-4.2826,-4.1811,-4.2455,-4.2483,-4.1318,-4.2623,-4.3585,-4.3521,-4.4916,-4.5616,-4.583,-4.5665,-4.5805,-4.569,-4.5715,-4.5715,-4.5112,-4.4811,-4.4859,-4.4932,-4.4554,-4.4571,-4.5568,-4.6187,-4.6584,-4.7286,-4.8086,-4.888,-4.8556,-4.8995,-4.9049,-4.7912,-4.6603,-4.5571,-4.5062,-4.4414,-4.3171,-4.2039,-4.0691,-3.9189,-3.755,-3.6204,-3.4857,-3.3585,-3.1924,-3.058,-2.5445,-3.1545,-3.1969,-3.241,0.0,-3.4105,-3.4297,-3.3869,-3.5042,-3.624,-3.7342,-3.7342,-3.7339,-3.7478,-3.8985,-3.9845,-3.9869,-4.1206,-4.1497,-4.1105,-4.0361,-3.9736,-3.9148,-3.8619,-3.8129,-3.7724,-3.7466,-3.7337,-3.7337,-3.6949,-3.6024,-3.4261,-3.3397,-3.253,-3.1539,-3.1258,-2.9892,-2.7415,-2.9004,-3.1393,-3.46,-3.2024,-2.9174,-2.6629,-2.73,0.0,0.0,0.0,0.0,0.0,0.0,0.0,0.0,0.0,0.0,-2.8682,-2.7452,-2.6884,-2.772,-2.8975,-3.0346,-3.1923,-3.2611,-3.1877,-2.9398,-3.2217,-3.4671,-3.5849,-3.7216,-3.845,-3.9532,-4.0005,-4.0259,-4.0081,-4.0911,-4.1307,-4.1265,-4.1985,-4.2577,-4.2658,-4.28,-4.2896,-4.3392,-4.3487,-4.3344,-4.3008,-4.2911,-4.3055,-4.3342,-4.3327,-4.3751,-4.5355,-4.6432,-4.7245,-4.7319,-4.7405,-4.725,-4.7313,-4.7276,-4.673,-4.592,-4.54,-4.4628,-4.3448,-4.2955,-4.1974,-4.0196,-3.8981,-3.7826,-3.6418,-3.5048,-3.382,-3.2033,-3.0724,-2.9825,-3.1342,-3.1323,-3.1046,-3.1474,-3.23,-3.2169,-3.1818,-3.1687,-3.3545,-3.5169,-3.639,-3.6702,-3.7151,-3.7568,-3.8617,-3.9362,-3.9722,-4.0559,-4.0632,-4.0008,-3.9861,-3.9232,-3.8216,-3.7981,-3.7616,-3.7079,-3.7079,-3.7059,-3.7059,-3.669,-3.4723,-3.15,-3.0962,-2.8606,-2.4476,0.0,0.0,0.0,-2.6907,-2.9656,-3.056,-2.7761,-2.5073,-2.292,-2.4454,0.0,-2.3068,-2.4023,-2.4467,-2.4313,-2.4718,0.0,0.0,0.0,0.0,0.0,0.0,0.0,0.0,0.0,0.0,0.0,-2.5133,-2.5164,-2.3539,-2.5895,-2.7961,-2.9028,-3.1328,-3.363,-3.5791,-3.6215,-3.6831,-3.8239,-3.8607,-3.8725,-3.8865,-3.8935,-3.9207,-3.9349,-3.9416,-3.9841,-4.0836,-4.096,-4.1027,-4.1083,-4.1128,-4.1251,-4.1206,-4.1426,-4.2396,-4.4004,-4.5302,-4.6489,-4.6241,-4.5469,-4.5,-4.4813,-4.4696,-4.406,-4.3185,-4.3385,-4.2998,-4.1544,-4.1201,-4.0279,-3.7829,-3.6911,-3.616,-3.4846,-3.3655,-3.2344,-3.0476,-2.9813,-2.9084,-3.1342,-3.1323,-3.1027,-3.0934,-3.0802,-3.0219,-3.0313,-3.106,-3.1505,-3.2718,-3.4385,-3.602,-3.7036,-3.7613,-3.8998,-3.9543,-3.9602,-4.0068,-4.0112,-4.0008,-3.9254,-3.7939,-3.637,-3.7188,-3.68,-3.5324,-3.6149,-3.682,-3.7079,-3.6429,-3.579,-3.5296,-3.5016,-3.2377,-2.7785,-2.3569,-2.1373,-2.1158,-2.6143,-3.1221,-3.6213,-3.3912,-3.0666,-2.6982,-2.6765,-2.4936,-2.1267,-2.2539,-2.3029,-2.2278,-2.23,-2.2533,-2.3113,-1.9553,-1.7599,0.0,-1.5046,0.0,0.0,0.0,0.0,0.0,0.0,0.0,0.0,-2.4025,-2.4441,-2.3944,-2.8059,-2.9683,-2.7322,-2.7841,-2.9514,-3.227,-3.3418,-3.4842,-3.6821,-3.7917,-3.8478,-3.8453,-3.8476,-3.8834,-3.9633,-3.9886,-3.9904,-4.0062,-4.031,-3.9407,-3.8112,-3.8236,-3.9382,-4.0956,-4.1585,-4.263,-4.3042,-4.3029,-4.2836,-4.2925,-4.2082,-4.1161,-4.0257,-3.9313,-3.8541,-3.8142,-3.8215,-3.7822,-3.6957,-3.5009,-3.379,-3.3716,-3.2156,-3.0574,-2.9825,-2.8862,-2.7397,-3.1027,-3.0783,-3.0558,-2.9951,-2.9253,-2.8379,-2.8697,-2.9898,-2.9711,-3.0434,-3.165,-3.303,-3.4746,-3.6533,-3.7629,-3.838,-3.8987,-3.8135,-3.777,-3.7662,-3.661,-3.5416,-3.4475,-3.5003,-3.4626,-3.3849,-3.3982,-3.4664,-3.5474,-3.4815,-3.3801,-3.2322,-3.1884,-2.8873,-2.3559,-2.2123,-2.2176,-2.3784,-2.6962,-3.1272,-3.6663,-3.623,-3.4321,-3.1117,-3.055,-2.9088,-2.6492,-2.6945,-2.7099,-2.683,-2.6449,-2.5398,-2.3469,-1.9172,-1.5936,0.0,0.0,0.0,0.0,0.0,0.0,0.0,0.0,0.0,0.0,0.0,-1.8114,-1.9224,-2.4806,-2.7715,-2.6051,-2.6238,-2.6597,-2.699,-2.6984,-2.7841,-3.0168,-3.2225,-3.3037,-3.1917,-3.3621,-3.533,-3.621,-3.6754,-3.7467,-3.8557,-3.4822,-3.1518,-3.0452,-3.2814,-3.5224,-3.6266,-3.8318,-4.0093,-4.0933,-3.9775,-3.8938,-3.9277,-3.8117,-3.6972,-3.6576,-3.6374,-3.6105,-3.5675,-3.6008,-3.5814,-3.3939,-3.2683,-3.1875,-3.1347,-2.9408,-2.7963,-2.8227,-2.72,-2.5877,-3.0088,-2.9699,-2.7281,-2.6448,-2.6739,-2.5986,-2.6865,-2.861,-2.8372,-2.8095,-2.8234,-2.9963,-3.1328,-3.2286,-3.3005,-3.4315,-3.5815,-3.4591,-3.4427,-3.5147,-3.4136,-3.3412,-3.2707,-3.2975,-3.2877,-3.2374,-3.2221,-3.276,-3.3849,-3.2386,-3.05,-2.8352,-2.6884,-2.4025,-1.998,-2.213,-2.4582,-2.6954,-2.8118,-3.0726,-3.4501,-3.564,-3.5291,-3.3424,-3.2794,-3.1916,-3.0453,-3.0333,-3.0351,-3.0313,-2.8892,-2.6743,-2.3912,-1.8209,0.0,0.0,0.0,0.0,0.0,0.0,0.0,0.0,0.0,-1.0747,-0.7848,0.0,-1.3335,0.0,-2.1444,-2.4673,-2.44,-2.3899,0.0,0.0,-2.1486,-2.1548,-2.3648,-2.6192,-2.7296,-2.5721,-2.8457,-3.0736,-3.1364,-3.217,-3.3231,-3.489,-2.9627,-2.5185,-2.3887,-2.7528,-3.0375,-3.0525,-3.2513,-3.4881,-3.5132,-3.4346,-3.3967,-3.5244,-3.4255,-3.3168,-3.3168,-3.3535,-3.3507,-3.2949,-3.3214,-3.2657,-3.0413,-2.9955,-2.9569,-2.8314,-2.6532,-2.5264,-2.5911,-2.5198,-2.4063,-2.8276,-2.7525,-1.912,-1.8265,-2.2229,-2.2384,-2.4288,-2.7298,-2.7541,-2.6087,-2.3775,-2.7422,-2.6593,-2.2284,-2.3054,0.0,-2.7983,-2.8417,-3.021,-3.3112,-3.318,-3.2572,-3.1374,-3.2356,-3.2239,-3.0914,-3.1425,-3.1951,-3.2251,-2.8619,-2.6197,-2.5201,-2.1614,-2.0118,-2.0983,-2.6163,-2.8985,-2.893,-2.8996,-2.9255,-2.9734,-3.1389,-3.2277,-3.2254,-3.1487,-3.0253,-2.8492,-2.9156,-2.931,-2.8647,-2.5222,-2.2803,-2.1791,0.0,0.0,0.0,0.0,0.0,0.0,0.0,0.0,0.0,0.0,0.0,0.0,0.0,0.0,-1.6181,-1.7985,0.0,-1.8892,-1.744,0.0,0.0,0.0,-1.7253,-1.9626,-2.1752,-2.2894,-2.2745,0.0,0.0,-2.5461,-2.5406,-2.6246,-2.8326,-2.8488,-2.668,-2.2038,-2.402,-2.5441,-2.3803,-2.2997,-2.3159,-2.5327,-2.6267,-2.8047,-3.0526,-3.1048,-3.081,-3.0827,-3.0254,-2.956,-2.9548,-2.895,-2.823,-2.6925,-2.6623,-2.5851,-2.4093,-2.3881,-2.3865,-2.3291,-2.3158,-2.2509,-2.1162,-1.7147,-1.3586,-1.2734,-1.3992,-1.4941,-1.9506,-2.595,-2.2649,-2.0822,-2.0105,-2.169,-2.1538,-2.0111,-1.9456,0.0,0.0,0.0,-2.5467,-2.6469,-2.6321,-2.69,-2.8355,-2.9193,-2.9246,-2.8707,-2.8568,-2.8749,-2.9371,-2.7342,-2.2576,-1.5404,0.0,0.0,-1.3171,-1.84,-2.1769,-2.3205,-2.6122,-2.737,-2.7053,-2.8302,-2.9013,-2.8793,-2.777,-2.7187,-2.7178,-2.7001,-2.5937,-2.3884,-2.1846,-1.8337,0.0,0.0,0.0,0.0,0.0,0.0,0.0,0.0,0.0,0.0,0.0,-0.6623,-0.453,0.0,0.0,0.0,-1.434,-1.5345,-1.4105,-1.4692,0.0,0.0,0.0,0.0,0.0,0.0,0.0,-1.5939,-1.9786,-2.2944,-2.3717,-2.0498,-1.8162,-1.8321,-1.757,-1.6369,-1.4169,0.0,-1.9913,-2.0783,-2.0941,-2.1729,-2.4118,-2.3044,-2.2597,-2.4699,-2.5963,-2.6953,-2.7029,-2.7569,-2.7946,-2.7883,-2.7312,-2.6553,-2.5261,-2.3901,-2.2626,-2.1921,-2.1876,-2.1878,-2.1456,-2.0512,-1.9277,-1.2926,0.0,0.0,0.0,0.0,-0.9103,-1.3729,-2.0118,-1.7416,-1.6416,-1.659,-1.6545,0.0,0.0,0.0,0.0,0.0,0.0,-2.009,-2.0,-2.1618,-2.3219,-2.4566,-2.4995,-2.518,-2.5166,-2.3606,-2.3406,-2.4513,-2.3588,-1.7882,-0.8152,0.0,0.0,0.0,0.0,-1.4325,-1.7782,-2.231,-2.4288,-2.3814,-2.5031,-2.545,-2.5118,-2.4464,-2.4192,-2.4709,-2.3376,-2.1659,-1.9338,-1.6825,0.0,0.0,0.0,0.0,0.0,0.0,0.0,0.0,0.0,0.0,0.0,0.0,0.0,0.0,0.0,0.0,0.0,0.0,0.0,-1.0355,-1.1112,-1.0448,0.0,0.0,0.0,0.0,0.0,0.0,0.0,0.0,0.0,-1.9773,-1.6166,-1.3619,0.0,0.0,-1.2102,-1.043,-1.2887,-1.5448,-1.6892,-1.8951,0.0,-2.0985,-1.9,-1.8196,-2.0594,-2.2053,-2.3021,-2.3015,-2.3255,-2.3441,-2.3295,-2.3513,-2.2927,-2.1153,-1.9071,-1.7717,-1.7717,-1.7491,-1.7111,-1.6609,-1.5471,-1.4014,0.0,0.0,0.0,0.0,0.0,0.0,0.0,0.0,-1.2315,-1.365,0.0,-1.2814,0.0,0.0,0.0,0.0,-1.059,-1.3089,0.0,0.0,-2.1077,-2.2856,-2.0329,-2.0058,-1.9922,-1.9724,-1.6484,-1.5727,-1.7144,-1.5748,0.0,0.0,0.0,0.0,0.0,0.0,-0.8635,-1.3957,-1.7874,-1.9683,-1.9703,-2.0895,-2.1588,-2.1664,-2.183,-2.1377,-2.0533,-1.8061,-1.6474,-1.6086,-0.9259,0.0,0.0,0.0,0.0,0.0,0.0,0.0,0.0,0.0,0.0,0.0,0.0,0.0,0.0,0.0,0.0,0.0,0.0,0.0,0.0,-0.5694,0.0,0.0,0.0,0.0,0.0,0.0,0.0,0.0,0.0,0.0,-1.1872,-1.2504,-1.4439,-1.6483,0.0,0.0,0.0,0.0,-1.2604,-1.0688,-1.5529,-1.7244,-1.1188,-1.2157,-1.5172,-1.9358,0.0,0.0,-1.9439,-1.6554,-1.4438,-1.4303,-1.6213,-1.6239,-1.2695,-1.1223,-1.0486,-1.0486,-1.0067,-0.8854,-0.7287,-0.7648,-0.7105,0.0,0.0,0.0,0.0,0.0,0.0,0.0,0.0,0.0,-0.7263,0.0,-0.7219,0.0,0.0,0.0,0.0,0.0,0.0,0.0,0.0,-1.2558,-1.4186,-1.5352,-1.6737,-1.587,0.0,-1.3204,-1.0483,0.0,0.0,0.0,0.0,0.0,0.0,0.0,0.0,-0.7496,-0.9109,-1.4571,-1.7073,-1.654,-1.7192,-1.7415,-1.6843,-1.6916,-1.634,-1.5158,-1.2464,-1.0116,0.0,0.0,0.0,0.0,0.0,0.0,0.0,0.0,0.0,0.0,0.0,0.0,0.0,0.0,0.0,0.0,0.0,0.0,0.0,0.0,0.0,0.0,0.0,-0.2858,0.0,0.0,0.0,0.0,0.0,0.0,0.0,0.0,0.0,-0.8142,-0.89,-1.0359,-1.2452,-1.2648,-1.2585,-1.247,0.0,0.0,0.0,0.0,0.0,0.0,0.0,-0.923,-1.0606,-1.4327,-1.5681,-1.1211,-1.078,-1.0998,-1.099,0.0,0.0,-0.6348,-0.6334,-0.7249,-0.7249,-0.6759,-0.5991,-0.4935,-0.4066,-0.3293,0.0,0.0,0.0,0.0,0.0,0.0,0.0,0.0,0.0,-0.1482,-0.1692,0.0,0.0,0.0,0.0,0.0,0.0,0.0,0.0,0.0,0.0,0.0,-1.0364,-1.203,0.0,0.0,0.0,0.0,0.0,0.0,0.0,0.0,0.0,0.0,0.0,0.0,-0.6414,-0.6051,-1.1687,-1.4444,-1.3965,-1.3674,-1.3355,-1.284,-1.2833,-1.2039,-1.0359,0.0,0.0,0.0,0.0,0.0,0.0,0.0,0.0,0.0,0.0,0.0,0.0,0.0,0.0,0.0,0.0,0.0,0.0,0.0,0.0,0.0,0.0,0.0,0.0,0.0,-0.214,0.0,0.0,0.0,0.0,0.0,0.0,0.0,0.0,0.0,0.0,0.0,-0.668,-0.8667,-0.9661,-1.0643,-1.1726,-1.1929,-1.2993,0.0,0.0,0.0,0.0,0.0,0.0,0.0,0.0,0.0,0.0,0.0,0.0,0.0,0.0,-0.5238,-0.102,-0.1001,-0.1706,-0.1706,0.0,0.0,0.0,0.0,0.0,0.0,0.0,0.0,0.0,0.0,0.0,0.0,0.0,0.0,0.0,0.339,0.0,0.0,0.2004,0.0,0.0,0.0,0.0,0.0,0.0,0.0,0.0,0.0,0.0,0.0,0.0,0.0,0.0,0.0,0.0,0.0,0.0,0.0,0.0,0.0,0.0,-0.502,-0.4643,-0.9072,-1.1439,-1.1527,-1.0414,-0.9777,-0.9772,-0.9601,-0.8611,-0.6342,0.0,0.0,0.0,0.0,0.0,0.0,0.0,0.0,0.0,0.0,0.0,0.0,0.0,0.0,0.0,0.0,0.0,0.0,0.0,0.0,0.0,0.0,0.0,0.0,0.0,0.0,-0.4731,-0.1653,-0.0455,0.0,0.0,0.0,0.0,0.0,0.0,0.0,0.0,0.0,-0.5769,-1.0358,-1.2895,-1.1606,-1.1508,-1.1951,-1.3048,-1.0694,-1.0298,-1.4732,-1.0565,-0.7823,0.0,0.0,0.0,0.0,0.0,0.0,0.0,0.0,0.0,0.0,0.0,0.0,0.0,0.0,0.0,0.0,0.0,0.0,0.0,0.0,0.0,0.0,0.0,0.0,0.0,0.0,0.0,0.0,0.0,0.0,0.0,0.0,0.0,0.0,0.0,0.0,0.0,0.0,0.0,0.0,0.0,0.0,0.0,0.0,0.0,0.0,0.0,0.0,0.0,0.0,0.0,0.0,0.0,0.0,-0.3027,-0.2653,-0.6602,-0.8608,-0.862,-0.8142,-0.7822,-0.7497,-0.6474,-0.4688,0.0,0.0,0.0,0.0,0.0,0.0,0.0,0.0,0.0,0.0,0.0,0.0,0.0,0.0,0.0,0.0,0.0,0.0,0.0,0.0,0.0,0.0,0.0,0.0,0.0,0.0,0.0,0.0,-0.3007,-0.2103,-0.1403,0.0,0.0,0.0,0.0,0.0,0.0,0.0,0.0,0.0,0.0,-0.8306,-0.9192,-0.9669,-1.0423,-1.1914,-1.1095,-1.0551,-1.1571,-1.1941,-1.1589,-0.99,0.0,0.0,0.0,0.0,0.0,0.0,0.0,0.0,0.0,0.0,0.0,0.0,0.0,0.0,0.0,0.0,0.0,0.0,0.0,0.0,0.0,0.0,0.0,0.0,0.0,0.0,0.0,0.0,0.0,0.0,0.0,0.0,0.0,0.0,0.0,0.0,0.0,0.0,0.0,0.0,0.0,0.0,0.0,0.0,0.0,0.0,0.0,0.0,0.0,0.0,0.0,0.0,0.0,-0.1824,-0.1391,-0.461,-0.6383,-0.6346,-0.5985,-0.5662,-0.5388,-0.3866,-0.1838,0.0,0.0,0.0,0.0,0.0,0.0,0.0,0.0,0.0,0.0,0.0,0.0,0.0,0.0,0.0,0.0,0.0,0.0,0.0,0.0,0.0,0.0,0.0,0.0,0.0,0.0,0.0,0.0,-0.1968,-0.1919,-0.1002,0.0,0.0,0.0,0.0,0.0,0.0,0.0,0.0,0.0,0.0,-0.4669,-0.609,-0.6642,0.0,0.0,-0.9461,-0.8816,-0.9886,-1.2414,-1.2602,-0.7698,-0.5566,0.0,0.0,0.0,0.0,0.0,0.0,0.0,0.0,0.0,0.0,0.0,0.0,0.0,0.0,0.0,0.0,0.0,0.0,0.0,0.0,0.0,0.0,0.0,0.0,0.0,0.0,0.0,0.0,0.0,0.0,0.0,0.0,0.0,0.0,0.0,0.0,0.0,0.0,0.0,0.0,0.0,0.0,0.0,0.0,0.0,0.0,0.0,0.0,0.0,0.0,0.0,0.0,0.0,-0.0598,-0.3247,-0.4839,-0.4894,-0.3997,-0.3516,-0.3269,-0.1674,0.0138,0.0,0.0,0.0,0.0,0.0,0.0,0.0,0.0,0.0,0.0,0.0,0.0,0.0,0.0,0.0,0.0,0.0,0.0,0.0,0.0,0.0,0.0,0.0,0.0,0.0,0.0,0.0,0.0,0.0,0.0,0.0,0.0,0.0,0.0,0.0,0.0,0.0,0.0,0.0,0.0,0.0,-0.21,-0.2601,-0.2923,-0.4485,0.0,-0.628,-0.5451,-0.8512,-1.1471,-1.1282,-0.486,0.0,0.0,0.0,0.0,0.0,0.0,0.0,0.0,0.0,0.0,0.0,0.0,0.0,0.0,0.0,0.0,0.0,0.0,0.0,0.0,0.0,0.0,0.0,0.0,0.0,0.0,0.0,0.0,0.0,0.0,0.0,0.0,0.0,0.0,0.0,0.0,0.0,0.0,0.0,0.0,0.0,0.0,0.0,0.0,0.0,0.0,0.0,0.0,0.0,0.0,0.0,0.0,0.0,0.0,-0.0,-0.1979,-0.3123,-0.3103,-0.3041,-0.258,-0.1671,0.1041,0.0,0.0,0.0,0.0,0.0,0.0,0.0,0.0,0.0,0.0,0.0,0.0,0.0,0.0,0.0,0.0,0.0,0.0,0.0,0.0,0.0,0.0,0.0,0.0,0.0,0.0,0.0,0.2744,0.0,0.0,0.0,0.0,0.0,0.0,0.0,0.0,0.0,0.0,0.0,0.0,0.0,0.0,-0.0498,-0.0127,-0.0257,-0.0909,0.0,0.0,-0.1638,-0.0237,-0.5049,-0.6763,0.0,0.0,0.0,0.0,0.0,0.0,0.0,0.0,0.0,0.0,0.0,0.0,0.0,0.0,0.0,0.0,0.0,0.0,0.0,0.0,0.0,0.0,0.0,0.0,0.0,0.0,0.0,0.0,0.0,0.0,0.0,0.0,0.0,0.0,0.0,0.0,0.0,0.0,0.0,0.0,0.0,0.0,0.0,0.0,0.0,0.0,0.0,0.0,0.0,0.0,0.0,0.0,0.0,0.0,0.225,0.0957,-0.0276,-0.0764,-0.0326,0.016,0.1124,0.2658,0.4242,0.5513,0.0,0.0,0.0,0.0,0.0,0.0,0.0,0.0,0.0,0.0,0.0,0.0,0.0,0.0,0.0,0.0,0.0,0.0,0.0,0.0,0.0,0.0,0.0,0.0,0.0,0.0,0.0,0.0,0.0,0.0,0.0,0.0,0.0,0.0,0.0,0.0,0.0,0.0,0.0,0.0,0.0,0.0,0.2961,0.2794,0.0,0.0,0.0,0.0241,0.2117,0.0,0.0,0.0,0.0,0.0,0.0,0.0,0.0,0.0,0.0,0.0,0.0,0.0,0.0,0.0,0.0,0.0,0.0,0.0,0.0,0.0,0.0,0.0,0.0,0.0,0.0,0.0,0.0,0.0,0.0,0.0,0.0,0.0,0.0,0.0,0.0,0.0,0.0,0.0,0.0,0.0,0.0,0.0,0.0,0.0,0.0,0.0,0.0,0.0,0.0,0.0,0.0,0.0,0.0,0.0,0.0,0.0,0.2272,0.1743,0.1931,0.2752,0.4623,0.6542,0.8334,0.7881,0.7869,0.0,0.0,0.0,0.0,0.0,0.0,0.0,0.0,0.0,0.0,0.0,0.0,0.0,0.0,0.0,0.0,0.0,0.0,0.0,0.0,0.0,0.0,0.0,0.0,0.0,0.0,0.0,0.0,0.0,0.0,0.0,0.0,0.0,0.0,0.0,0.0,0.0,0.0,0.0,0.0,0.0,0.5795,0.599,0.5605,0.5367,0.0,0.0,0.1718,0.2295,-0.0746,0.0,0.0,0.0,0.0,0.0,0.0,0.0,0.0,0.0,0.0,0.0,0.0,0.0,0.0,0.0,0.0,0.0,0.0,0.0,0.0,0.0,0.0,0.0,0.0,0.0,0.0,0.0,0.0,0.0,0.0,0.0,0.0,0.0,0.0,0.0,0.0,0.0,0.0,0.0,0.0,0.0,0.0,0.0,0.0,0.0,0.0,0.0,0.0,0.0,0.0,0.0,0.0,0.0,0.0,0.0,0.0,0.371,0.3881,0.3557,0.2915,0.8303,1.1789,1.2579,1.1011,1.0633,0.0,0.0,0.0,0.0,0.0,0.0,0.0,0.0,0.0,0.0,0.0,0.0,0.0,0.0,0.0,0.0,0.0,0.0,0.0,0.0,0.0,0.0,0.0,0.0,0.0,0.0,0.0,0.0,0.0,0.0,0.0,0.0,0.0,0.0,0.0,0.0,0.0,0.0,0.0,0.0,0.0,0.6778,0.6764,0.7065,0.0,0.0,0.0,0.0,0.8214,0.5882,0.0,0.0,0.0,0.0,0.0,0.0,0.0,0.0,0.0,0.0,0.0,0.0,0.0,0.0,0.0,0.0,0.0,0.0,0.0,0.0,0.0,0.0,0.0,0.0,0.0,0.0,0.0,0.0,0.0,0.0,0.0,0.0,0.0,0.0,0.0,0.0,0.0,0.0,0.0,0.0,0.0,0.0,0.0,0.0,0.0,0.0,0.0,0.0,0.0,0.0,0.0,0.0,0.0,0.0,0.0,0.0,0.4857,0.551,0.6072,0.6634,0.9994,1.2344,1.3442,1.2581,1.218,0.0,0.0,0.0,0.0,0.0,0.0,0.0,0.0,0.0,0.0,0.0,0.0,0.0,0.0,0.0,0.0,0.0,0.0,0.0,0.0,0.0,0.0,0.0,0.0,0.0,0.0,0.0,0.0,0.0,0.0,0.0,0.0,0.0,0.0,0.0,0.0,0.0,0.0,0.0,0.0,0.9299,0.8867,0.8959,0.0,0.0,0.0,0.0,0.0,0.0,0.7628,0.6603,0.0,0.0,0.0,0.0,0.0,0.0,0.0,0.0,0.0,0.0,0.0,0.0,0.0,0.0,0.0,0.0,0.0,0.0,0.0,0.0,0.0,0.0,0.0,0.0,0.0,0.0,0.0,0.0,0.0,0.0,0.0,0.0,0.0,0.0,0.0,0.0,0.0,0.0,0.0,0.0,0.0,0.0,0.0,0.0,0.0,0.0,0.0,0.0,0.0,0.0,0.0,0.0,0.0,0.0,0.0,0.5713,0.7135,0.8833,1.0733,1.0982,1.1831,1.3168,1.332,1.3102,1.2367,0.0,0.0,0.0,0.0,0.0,0.0,0.0,0.0,0.0,0.0,0.0,0.0,0.0,0.0,0.0,0.0,0.0,0.0,0.0,0.0,0.0,0.0,0.0,0.0,0.0,0.0,0.0,0.0,0.0,0.0,0.0,0.0,0.0,0.0,0.0,0.0,0.0,0.0,0.0,1.0425,1.0832,0.0,0.0,0.0,0.0,0.0,0.0,0.0,0.0,0.7476,0.0,0.0,0.0,0.0,0.0,0.0,0.0,0.0,0.0,0.0,0.0,0.0,0.0,0.0,0.0,0.0,0.0,0.0,0.0,0.0,0.0,0.0,0.0,0.0,0.0,0.0,0.0,0.0,0.0,0.0,0.0,0.0,0.0,0.0,0.0,0.0,0.0,0.0,0.0,0.0,0.0,0.0,0.0,0.0,0.0,0.0,0.0,0.0,0.0,0.0,0.0,0.0,0.0,0.0,0.0,0.0,0.9606,1.1269,1.1592,1.2668,1.3559,1.4132,1.3732,1.3419,1.307,0.0,0.0,0.0,0.0,0.0,0.0,0.0,0.0,0.0,0.0,0.0,0.0,0.0,0.0,0.0,0.0,0.0,0.0,0.0,0.0,0.0,0.0,0.0,0.0,0.0,0.0,0.0,0.0,0.0,0.0,0.0,0.0,0.0,0.0,0.0,0.0,0.0,0.0,0.8314,0.9547,0.0,0.0,0.0,0.0,0.0,0.0,0.0,0.0,1.0396,0.0,0.0,0.0,0.0,0.0,0.0,0.0,0.0,0.0,0.0,0.0,0.0,0.0,0.0,0.0,0.0,0.0,0.0,0.0,0.0,0.0,0.0,0.0,0.0,0.0,0.0,0.0,0.0,0.0,0.0,0.0,0.0,0.0,0.0,0.0,0.0,0.0,0.0,0.0,0.0,0.0,0.0,0.0,0.0,0.0,0.0,0.0,0.0,0.0,0.0,0.0,0.0,0.0,0.0,0.0,0.0,0.0,0.0,1.2317,1.298,1.3502,1.3981,1.4409,1.4179,1.388,0.0,0.0,0.0,0.0,0.0,0.0,0.0,0.0,0.0,0.0,0.0,0.0,0.0,0.0,0.0,0.0,0.0,0.0,0.0,0.0,0.0,0.0,0.0,0.0,0.0,0.0,0.0,0.0,0.0,0.0,0.0,0.0,0.0,0.0,0.0,0.0,0.0,0.0,0.0,0.0,0.0,0.0,0.0,0.0,0.0,0.0,0.0,0.0,0.0,0.0,0.0,0.0,0.0,0.0,0.0,0.0,0.0,0.0,0.0,0.0,0.0,0.0,0.0,0.0,0.0,0.0,0.0,0.0,0.0,0.0,0.0,0.0,0.0,0.0,0.0,0.0,0.0,0.0,0.0,0.0,0.0,0.0,0.0,0.0,0.0,0.0,0.0,0.0,0.0,0.0,0.0,0.0,0.0,0.0,0.0,0.0,0.0,0.0,0.0,0.0,0.0,0.0,0.0,0.0,0.0,0.0,0.0,0.0,1.3292,1.4314,1.4094,1.4191,1.4525,1.4759,1.4242,0.0,0.0,0.0,0.0,0.0,0.0,0.0,0.0,0.0,0.0,0.0,0.0,0.0,0.0,0.0,0.0,0.0,0.0,0.0,0.0,0.0,0.0,0.0,0.0,0.0,0.0,0.0,0.0,0.0,0.0,0.0,0.0,0.0,0.0,0.0,0.0,0.0,0.0,0.0,0.0,0.0,0.0,0.0,0.0,0.0,0.0,0.0,0.0,1.0361,0.0,0.0,0.0,0.0,0.0,0.0,0.0,0.0,0.0,0.0,0.0,0.0,0.0,0.0,0.0,0.0,0.0,0.0,0.0,0.0,0.0,0.0,0.0,0.0,0.0,0.0,0.0,0.0,0.0,0.0,0.0,0.0,0.0,0.0,0.0,0.0,0.0,0.0,0.0,0.0,0.0,0.0,0.0,0.0,0.0,0.0,0.0,0.0,0.0,0.0,0.0,0.0,0.0,0.0,0.0,0.0,0.0,0.0,0.0,1.4492,1.4757,1.4532,1.4769,1.5069,1.5468,1.4701,0.0,0.0,0.0,0.0,0.0,0.0,0.0,0.0,0.0,0.0,0.0,0.0,0.0,0.0,0.0,0.0,0.0,0.0,0.0,0.0,0.0,0.0,0.0,0.0,0.0,0.0,0.0,0.0,0.0,0.0,0.0,0.0,0.0,0.0,0.0,0.0,0.0,0.0,0.0,0.0,0.0,0.0,0.0,0.0,0.0,0.0,0.0,0.0,0.0,0.0,0.0,0.0,0.0,0.0,0.0,0.0,0.0,0.0,0.0,0.0,0.0,0.0,0.0,0.0,0.0,0.0,0.0,0.0,0.0,0.0,0.0,0.0,0.0,0.0,0.0,0.0,0.0,0.0,0.0,0.0,0.0,0.0,0.0,0.0,0.0,0.0,0.0,0.0,0.0,0.0,0.0,0.0,0.0,0.0,0.0,0.0,0.0,0.0,0.0,0.0,0.0,0.0,0.0,0.0,0.0,0.0,0.0,0.0,1.5087,1.5618,1.5271,1.5087,1.482,1.4772,1.4062,0.0,0.0,0.0,0.0,0.0,0.0,0.0,0.0,0.0,0.0,0.0,0.0,0.0,0.0,0.0,0.0,0.0,0.0,0.0,0.0,0.0,0.0,0.0,0.0,0.0,0.0,0.0,0.0,0.0,0.0,0.0,0.0,0.0,0.0,0.0,0.0,0.0,0.0,0.0,0.0,0.0,0.0,0.0,0.0,0.0,0.0,0.0,0.0,0.0,0.0,0.0,0.0,0.0,0.0,0.0,0.0,0.0,0.0,0.0,0.0,0.0,0.0,0.0,0.0,0.0,0.0,0.0,0.0,0.0,0.0,0.0,0.0,0.0,0.0,0.0,0.0,0.0,0.0,0.0,0.0,0.0,0.0,0.0,0.0,0.0,0.0,0.0,0.0,0.0,0.0,0.0,0.0,0.0,0.0,0.0,0.0,0.0,0.0,0.0,0.0,0.0,0.0,0.0,0.0,0.0,0.0,0.0,0.0,0.0,1.5858,1.5698,1.5247,1.4647,1.4415,1.3572,0.0,0.0,0.0,0.0,0.0,0.0,0.0,0.0,0.0,0.0,0.0,0.0,0.0,0.0,0.0,0.0,0.0,0.0,0.0,0.0,0.0,0.0,0.0,0.0,0.0,0.0,0.0,0.0,0.0,0.0,0.0,0.0,0.0,0.0,0.0,0.0,0.0,0.0,0.0,0.0,0.0,0.0,0.0,0.0,0.0,0.0,0.0,0.0,0.0,0.0,0.0,0.0,0.0,0.0,0.0,0.0,0.0,0.0,0.0,0.0,0.0,0.0,0.0,0.0,0.0,0.0,0.0,0.0,0.0,0.0,0.0,0.0,0.0,0.0,0.0,0.0,0.0,0.0,0.0,0.0,0.0,0.0,0.0,0.0,0.0,0.0,0.0,0.0,0.0,0.0,0.0,0.0,0.0,0.0,0.0,0.0,0.0,0.0,0.0,0.0,0.0,0.0,0.0,0.0,0.0,0.0,0.0,0.0,0.0,1.4889,1.5279,1.5288,1.482,1.4923,1.3897,0.0,0.0,0.0,0.0,0.0,0.0,0.0,0.0,0.0,0.0,0.0,0.0,0.0,0.0,0.0,0.0,0.0,0.0,0.0,0.0,0.0,0.0,0.0,0.0,0.0,0.0,0.0,0.0,0.0,0.0,0.0,0.0,0.0,0.0,0.0,0.0,0.0,0.0,0.0,0.0,0.0,0.0,0.0,0.0,0.0,0.0,0.0,0.0,0.0,0.0,0.0,0.0,0.0,0.0,0.0,0.0,0.0,0.0,0.0,0.0,0.0,0.0,0.0,0.0,0.0,0.0,0.0,0.0,0.0,0.0,0.0,0.0,0.0,0.0,0.0,0.0,0.0,0.0,0.0,0.0,0.0,0.0,0.0,0.0,0.0,0.0,0.0,0.0,0.0,0.0,0.0,0.0,0.0,0.0,0.0,0.0,0.0,0.0,0.0,0.0,0.0,0.0,0.0,0.0,0.0,0.0,0.0,0.0,0.0,1.4779,1.4592,1.4399,1.443,1.422,1.3102,1.118,0.0,0.0,0.0,0.0,0.0,0.0,0.0,0.0,0.0,0.0,0.0,0.0,0.0,0.0,0.0,0.0,0.0,0.0,0.0,0.0,0.0,0.0,0.0,0.0,0.0,0.0,0.0,0.0,0.0,0.0,0.0,0.0,0.0,0.0,0.0,0.0,0.0,0.0,0.0,0.0,0.0,0.0,0.0,0.0,0.0,0.0,0.0,0.0,0.0,0.0,0.0,0.0,0.0,0.0,0.0,0.0,0.0,0.0,0.0,0.0,0.0,0.0,0.0,0.0,0.0,0.0,0.0,0.0,0.0,0.0,0.0,0.0,0.0,0.0,0.0,0.0,0.0,0.0,0.0,0.0,0.0,0.0,0.0,0.0,0.0,0.0,0.0,0.0,0.0,0.0,0.0,0.0,0.0,0.0,0.0,0.0,0.0,0.0,0.0,0.0,0.0,0.0,0.0,0.0,0.0,0.0,0.0,0.0,1.41,1.378,1.3683,1.373,1.3537,1.2664,0.0,0.0,0.0,0.0,0.0,0.0,0.0,0.0,0.0,0.0,0.0,0.0,0.0,0.0,0.0,0.0,0.0,0.0,0.0,0.0,0.0,0.0,0.0,0.0,0.0,0.0,0.0,0.0,0.0,0.0,0.0,0.0,0.0,0.0,0.0,0.0,0.0,0.0,0.0,0.0,0.0,0.0,0.0,0.0,0.0,0.0,0.0,0.0,0.0,0.0,0.0,0.0,0.0,0.0,0.0,0.0,0.0,0.0,0.0,0.0,0.0,0.0,0.0,0.0,0.0,0.0,0.0,0.0,0.0,0.0,0.0,0.0,0.0,0.0,0.0,0.0,0.0,0.0,0.0,0.0,0.0,0.0,0.0,0.0,0.0,0.0,0.0,0.0,0.0,0.0,0.0,0.0,0.0,0.0,0.0,0.0,0.0,0.0,0.0,0.0,0.0,0.0,0.0,0.0,0.0,0.0,0.0,0.0,1.2512,1.2632,1.3094,1.3253,1.2766,1.3197,1.2668,0.0,0.0,0.0,0.0,0.0,0.0,0.0,0.0,0.0,0.0,0.0,0.0,0.0,0.0,0.0,0.0,0.0,0.0,0.0,0.0,0.0,0.0,0.0,0.0,0.0,0.0,0.0,0.0,0.0,0.0,0.0,0.0,0.0,0.0,0.0,0.0,0.0,0.0,0.0,0.0,0.0,0.0,0.0,0.0,0.0,0.0,0.0,0.0,0.0,0.0,0.0,0.0,0.0,0.0,0.0,0.0,0.0,0.0,0.0,0.0,0.0,0.0,0.0,0.0,0.0,0.0,0.0,0.0,0.0,0.0,0.0,0.0,0.0,0.0,0.0,0.0,0.0,0.0,0.0,0.0,0.0,0.0,0.0,0.0,0.0,0.0,0.0,0.0,0.0,0.0,0.0,0.0,0.0,0.0,0.0,0.0,0.0,0.0,0.0,0.0,0.0,0.0,0.0,0.0,0.0,0.0,0.0,0.0,0.0,1.2551,0.0,1.3553,0.0,1.3576,1.283,0.0,0.0,0.0,0.0,0.0,0.0,0.0,0.0,0.0,0.0,0.0,0.0,0.0,0.0,0.0,0.0,0.0,0.0,0.0,0.0,0.0,0.0,0.0,0.0,0.0,0.0,0.0,0.0,0.0,0.0,0.0,0.0,0.0,0.0,0.0,0.0,0.0,0.0,0.0,0.0,0.0,0.0,0.0,0.0,0.0,0.0,0.0,0.0,0.0,0.0,0.0,0.0,0.0,0.0,0.0,0.0,0.0,0.0,0.0,0.0,0.0,0.0,0.0,0.0,0.0,0.0,0.0,0.0,0.0,0.0,0.0,0.0,0.0,0.0,0.0,0.0,0.0,0.0,0.0,0.0,0.0,0.0,0.0,0.0,0.0,0.0,0.0,0.0,0.0,0.0,0.0,0.0,0.0,0.0,0.0,0.0,0.0,0.0,0.0,0.0,0.0,0.0,0.0,0.0,0.0,0.0,0.0,0.0,0.0,1.2484,1.2791,1.3275,1.3889,1.3488,1.2897,0.0,0.0,0.0,0.0,0.0,0.0,0.0,0.0,0.0,0.0,0.0,0.0,0.0,0.0,0.0,0.0,0.0,0.0,0.0,0.0,0.0,0.0,0.0,0.0,0.0,0.0,0.0,0.0,0.0,0.0,0.0,0.0,0.0,0.0,0.0,0.0,0.0,0.0,0.0,0.0,0.0,0.0,0.0,0.0,0.0,0.0,0.0,0.0,0.0,0.0,0.0,0.0,0.0,0.0,0.0,0.0,0.0,0.0,0.0,0.0,0.0,0.0,0.0,0.0,0.0,0.0,0.0,0.0,0.0,0.0,0.0,0.0,0.0,0.0,0.0,0.0,0.0,0.0,0.0,0.0,0.0,0.0,0.0,0.0,0.0,0.0,0.0,0.0,0.0,0.0,0.0,0.0,0.0,0.0,0.0,0.0,0.0,0.0,0.0,0.0,0.0,0.0,0.0,0.0,0.0,0.0,0.0,0.0,0.0,0.0,1.2508,1.2508,1.2519,1.2945,1.2732,0.0,0.0,0.0,0.0,0.0,0.0,0.0,0.0,0.0,0.0,0.0,0.0,0.0,0.0,0.0,0.0,0.0,0.0,0.0,0.0,0.0,0.0,0.0,0.0,0.0,0.0,0.0,0.0,0.0,0.0,0.0,0.0,0.0,0.0,0.0,0.0,0.0,0.0,0.0,0.0,0.0,0.0,0.0,0.0,0.0,0.0,0.0,0.0,0.0,0.0,0.0,0.0,0.0,0.0,0.0,0.0,0.0,0.0,0.0,0.0,0.0,0.0,0.0,0.0,0.0,0.0,0.0,0.0,0.0,0.0,0.0,0.0,0.0,0.0,0.0,0.0,0.0,0.0,0.0,0.0,0.0,0.0,0.0,0.0,0.0,0.0,0.0,0.0,0.0,0.0,0.0,0.0,0.0,0.0,0.0,0.0,0.0,0.0,0.0,0.0,0.0,0.0,0.0,0.0,0.0,0.0,0.0,0.0,0.0,0.0,1.2838,0.0,1.2496,1.2602,1.272,1.2791,0.0,0.0,0.0,0.0,0.0,0.0,0.0,0.0,0.0,0.0,0.0,0.0,0.0,0.0,0.0,0.0,0.0,0.0,0.0,0.0,0.0,0.0,0.0,0.0,0.0,0.0,0.0,0.0,0.0,0.0,0.0,0.0,0.0,0.0,0.0,0.0,0.0,0.0,0.0,0.0,0.0,0.0,0.0,0.0,0.0,0.0,0.0,0.0,0.0,0.0,0.0,0.0,0.0,0.0,0.0,0.0,0.0,0.0,0.0,0.0,0.0,0.0,0.0,0.0,0.0,0.0,0.0,0.0,0.0,0.0,0.0,0.0,0.0,0.0,0.0,0.0,0.0,0.0,0.0,0.0,0.0,0.0,0.0,0.0,0.0,0.0,0.0,0.0,0.0,0.0,0.0,0.0,0.0,0.0,0.0,0.0,0.0,0.0,0.0,0.0,0.0,0.0,0.0,0.0,0.0,0.0,0.0,0.0,0.0,0.0,0.0,1.2472,1.246,1.2602,0.0,0.0,0.0,0.0,0.0,0.0,0.0,0.0,0.0,0.0,0.0,0.0,0.0,0.0,0.0,0.0,0.0,0.0,0.0,0.0,0.0,0.0,0.0,0.0,0.0,0.0,0.0,0.0,0.0,0.0,0.0,0.0,0.0,0.0,0.0,0.0,0.0,0.0,0.0,0.0,0.0,0.0,0.0,0.0,0.0,0.0,0.0,0.0,0.0,0.0,0.0,0.0,0.0,0.0,0.0,0.0,0.0,0.0,0.0,0.0,0.0,0.0,0.0,0.0,0.0,0.0,0.0,0.0,0.0,0.0,0.0,0.0,0.0,0.0,0.0,0.0,0.0,0.0,0.0,0.0,0.0,0.0,0.0,0.0,0.0,0.0,0.0,0.0,0.0,0.0,0.0,0.0,0.0,0.0,0.0,0.0,0.0,0.0,0.0,0.0,0.0,0.0,0.0,0.0,0.0,0.0,0.0,0.0,0.0,0.0,0.0,1.246,1.246,1.246,0.0,1.246,0.0,0.0,0.0,0.0,0.0,0.0,0.0,0.0,0.0,0.0,0.0,0.0,0.0,0.0,0.0,0.0,0.0,0.0,0.0,0.0,0.0,0.0,0.0,0.0,0.0,0.0,0.0,0.0,0.0,0.0,0.0,0.0,0.0,0.0,0.0,0.0,0.0,0.0,0.0,0.0,0.0,0.0,0.0,0.0,0.0,0.0,0.0,0.0,0.0,0.0,0.0,0.0,0.0,0.0,0.0,0.0,0.0,0.0,0.0,0.0,0.0,0.0,0.0,0.0,0.0,0.0,0.0,0.0,0.0,0.0,0.0,0.0,0.0,0.0,0.0,0.0,0.0,0.0,0.0,0.0,0.0,0.0,0.0,0.0,0.0,0.0,0.0,0.0,0.0,0.0,0.0,0.0,0.0,0.0,0.0,0.0,0.0,0.0,0.0,0.0,0.0,0.0,0.0,0.0,0.0,0.0,0.0,0.0,0.0,0.0,0.0,0.0,1.246,1.246,1.246,0.0,0.0,0.0,0.0,0.0,0.0,0.0,0.0,0.0,0.0,0.0,0.0,0.0,0.0,0.0,0.0,0.0,0.0,0.0,0.0,0.0,0.0,0.0,0.0,0.0,0.0,0.0,0.0,0.0,0.0,0.0,0.0,0.0,0.0,0.0,0.0,0.0,0.0,0.0,0.0,0.0,0.0,0.0,0.0,0.0,0.0,0.0,0.0,0.0,0.0,0.0,0.0,0.0,0.0,0.0,0.0,0.0,0.0,0.0,0.0,0.0,0.0,0.0,0.0,0.0,0.0,0.0,0.0,0.0,0.0,0.0,0.0,0.0,0.0,0.0,0.0,0.0,0.0,0.0,0.0,0.0,0.0,0.0,0.0,0.0,0.0,0.0,0.0,0.0,0.0,0.0,0.0,0.0,0.0,0.0,0.0,0.0,0.0,0.0,0.0,0.0,0.0,0.0,0.0,0.0,0.0,0.0,0.0,0.0,0.0,1.246,1.246,1.246,1.246,1.246,0.0,0.0,0.0,0.0,0.0,0.0,0.0,0.0,0.0,0.0,0.0,0.0,0.0,0.0,0.0,0.0,0.0,0.0,0.0,0.0,0.0,0.0,0.0,0.0,0.0,0.0,0.0,0.0,0.0,0.0,0.0,0.0,0.0,0.0,0.0,0.0,0.0,0.0,0.0,0.0,0.0,0.0,0.0,0.0,0.0,0.0,0.0,0.0,0.0,0.0,0.0,0.0,0.0,0.0,0.0,0.0,0.0,0.0,0.0,0.0,0.0,0.0,0.0,0.0,0.0,0.0,0.0,0.0,0.0,0.0,0.0,0.0,0.0,0.0,0.0,0.0,0.0,0.0,0.0,0.0,0.0,0.0,0.0,0.0,0.0,0.0,0.0,0.0,0.0,0.0,0.0,0.0,0.0,0.0,0.0,0.0,0.0,0.0,0.0,0.0,0.0,0.0,0.0,0.0,0.0,0.0,0.0,0.0,0.0,0.0,0.0,0.0,0.0,0.0,1.246,0.0,0.0,0.0,0.0,0.0,0.0,0.0,0.0,0.0,0.0,0.0,0.0,0.0,0.0,0.0,0.0,0.0,0.0,0.0,0.0,0.0,0.0,0.0,0.0,0.0,0.0,0.0,0.0,0.0,0.0,0.0,0.0,0.0,0.0,0.0,0.0,0.0,0.0,0.0,0.0,0.0,0.0,0.0,0.0,0.0,0.0,0.0,0.0,0.0,0.0,0.0,0.0,0.0,0.0,0.0,0.0,0.0,0.0,0.0,0.0,0.0,0.0,0.0,0.0,0.0,0.0,0.0,0.0,0.0,0.0,0.0,0.0,0.0,0.0,0.0,0.0,0.0,0.0,0.0,0.0,0.0,0.0,0.0,0.0,0.0,0.0,0.0,0.0,0.0,0.0,0.0,0.0,0.0,0.0,0.0,0.0,0.0,0.0,0.0,0.0,0.0,0.0,0.0,0.0,0.0,0.0,0.0,0.0,0.0,0.0,0.0,0.0,0.0,0.0,0.0,0.0,0.0,0.0,0.0,0.0,0.0,0.0,0.0,0.0,0.0,0.0,0.0,0.0,0.0,0.0,0.0,0.0,0.0,0.0,0.0,0.0,0.0,0.0,0.0,0.0,0.0,0.0,0.0,0.0,0.0,0.0,0.0,0.0,0.0,0.0,0.0,0.0,0.0,0.0,0.0,0.0,0.0,0.0,0.0,0.0,0.0,0.0,0.0,0.0,0.0,0.0,0.0,0.0,0.0,0.0,0.0,0.0,0.0,0.0,0.0,0.0,0.0,0.0,0.0,0.0,0.0,0.0,0.0,0.0,0.0,0.0,0.0,0.0,0.0,0.0,0.0,0.0,0.0,0.0,0.0,0.0,0.0,0.0,0.0,0.0,0.0,0.0,0.0,0.0,0.0,0.0,0.0,0.0,0.0,0.0,0.0,0.0,0.0,0.0,0.0,0.0,0.0,0.0,0.0,0.0,0.0,0.0,0.0,0.0,0.0,0.0,0.0,0.0,0.0,0.0,0.0,0.0,0.0,0.0,0.0,0.0,0.0,0.0,0.0,0.0,0.0,0.0,0.0,0.0,0.0,0.0,0.0,0.0,0.0,0.0,0.0,0.0,0.0,0.0,0.0,0.0,0.0,0.0,0.0,0.0,0.0,0.0,0.0,0.0,0.0,0.0,0.0,0.0,0.0,0.0,0.0,0.0,0.0,0.0,0.0,0.0,0.0,0.0,0.0,0.0,0.0,0.0,0.0,0.0,0.0,0.0,0.0,0.0,0.0,0.0,0.0,0.0,0.0,0.0,0.0,0.0,0.0,0.0,0.0,0.0,0.0,0.0,0.0,0.0,0.0,0.0,0.0,0.0,0.0,0.0,0.0,0.0,0.0,0.0,0.0,0.0,0.0,0.0,0.0,0.0,0.0,0.0,0.0,0.0,0.0,0.0,0.0,0.0,0.0,0.0,0.0,0.0,0.0,0.0,0.0,0.0,0.0,0.0,0.0,0.0,0.0,0.0,0.0,0.0,0.0,0.0,0.0,0.0,0.0,0.0,0.0,0.0,0.0,0.0,0.0,0.0,0.0,0.0,0.0,0.0,0.0,0.0,0.0,0.0,0.0,0.0,0.0,0.0,0.0,0.0,0.0,0.0,0.0,0.0,0.0,0.0,0.0,0.0,0.0,0.0,0.0,0.0,0.0,0.0,0.0,0.0,0.0,0.0,0.0,0.0,0.0,0.0,0.0,0.0,0.0,0.0,0.0,0.0,0.0,0.0,0.0,0.0,0.0,0.0,0.0,0.0,0.0,0.0,0.0,0.0,0.0,0.0,0.0,0.0,0.0,0.0,0.0,0.0,0.0,0.0,0.0,0.0,0.0,0.0,0.0,0.0,0.0,0.0,0.0,0.0,0.0,0.0,0.0,0.0,0.0,0.0,0.0,0.0,0.0,0.0,0.0,0.0,0.0,0.0,0.0,0.0,0.0,0.0,0.0,0.0,0.0,0.0,0.0,0.0,0.0,0.0,0.0,0.0,0.0,0.0,0.0,0.0,0.0,0.0,0.0,0.0,0.0,0.0,0.0,0.0,0.0,0.0,0.0,0.0,0.0,0.0,0.0,0.0,0.0,0.0,0.0,0.0,0.0,0.0,0.0,0.0,0.0,0.0,0.0,0.0,0.0,0.0,0.0,0.0,0.0,0.0,0.0,0.0,0.0,0.0,0.0,0.0,0.0,0.0,0.0,0.0,0.0,0.0,0.0,0.0,0.0,0.0,0.0,0.0,0.0,0.0,0.0,0.0,0.0,0.0,0.0,0.0,0.0,0.0,0.0,0.0,0.0,0.0,0.0,0.0,0.0,0.0,0.0,0.0,0.0,0.0,0.0,0.0,0.0,0.0,0.0,0.0,0.0,0.0,0.0,0.0,0.0,0.0,0.0,0.0,0.0,0.0,0.0,0.0,0.0,0.0,0.0,0.0,0.0,0.0,0.0,0.0,0.0,0.0,0.0,0.0,0.0,0.0,0.0,0.0,0.0,0.0,0.0,0.0,0.0,0.0,0.0,0.0,0.0,0.0,0.0,0.0,0.0,0.0,0.0,0.0,0.0,0.0,0.0,0.0,0.0,0.0,0.0,0.0,0.0,0.0,0.0,0.0,0.0,0.0,0.0,0.0,0.0,0.0,0.0,0.0,0.0,0.0,0.0,0.0,0.0,0.0,0.0,0.0,0.0,0.0,0.0,0.0,0.0,0.0,0.0,0.0,0.0,0.0,0.0,0.0,0.0,0.0,0.0,0.0,0.0,0.0,0.0,0.0,0.0,0.0,0.0,0.0,0.0,0.0,0.0,0.0,0.0,0.0,0.0,0.0,0.0,0.0,0.0,0.0,0.0,0.0,0.0,0.0,0.0,0.0,0.0,0.0,0.0,0.0,0.0,0.0,0.0,0.0,0.0,0.0,0.0,0.0,0.0,0.0,0.0,0.0,0.0,0.0,0.0,0.0,0.0,0.0,0.0,0.0,0.0,0.0,0.0,0.0,0.0,0.0,0.0,0.0,0.0,0.0,0.0,0.0,0.0,0.0,0.0,0.0,0.0,0.0,0.0,0.0,0.0,0.0,0.0,0.0,0.0,0.0,0.0,0.0,0.0,0.0,0.0,0.0,0.0,0.0,0.0,0.0,0.0,0.0,0.0,0.0,0.0,0.0,0.0,0.0,0.0,0.0,0.0,0.0,0.0,0.0,0.0,0.0,0.0,0.0,0.0,0.0,0.0,0.0,0.0,0.0,0.0,0.0,0.0,0.0,0.0,0.0,0.0,0.0,0.0,0.0,0.0,0.0,0.0,0.0,0.0,0.0,0.0,0.0,0.0,0.0,0.0,0.0,0.0,0.0,0.0,0.0,0.0,0.0,0.0,0.0,0.0,0.0,0.0,0.0,0.0,0.0,0.0,0.0,0.0,0.0,0.0,0.0,0.0,0.0,0.0,0.0,0.0,0.0,0.0,0.0,0.0,0.0,0.0,0.0,0.0,0.0,0.0,0.0,0.0,0.0,0.0,0.0,0.0,0.0,0.0,0.0,0.0,0.0,0.0,0.0,0.0,0.0,0.0,0.0,0.0,0.0,0.0,0.0,0.0,0.0,0.0,0.0,0.0,0.0,0.0,0.0,0.0,0.0,0.0,0.0,0.0,0.0,0.0,0.0,0.0,0.0,0.0,0.0,0.0,0.0,0.0,0.0,0.0,0.0,0.0,0.0,0.0,0.0,0.0,0.0,0.0,0.0,0.0,0.0,0.0,0.0,0.0,0.0,0.0,0.0,0.0,0.0,0.0,0.0,0.0,0.0,0.0,0.0,0.0,0.0,0.0,0.0,0.0,0.0,0.0,0.0,0.0,0.0,0.0,0.0,0.0,0.0,0.0,0.0,0.0,0.0,0.0,0.0,0.0,0.0,0.0,0.0,0.0,0.0,0.0,0.0,0.0,0.0,0.0,0.0,0.0,0.0,0.0,0.0,0.0,0.0,0.0,0.0,0.0,0.0,0.0,0.0,0.0,0.0,0.0,0.0,0.0,0.0,0.0,0.0,0.0,0.0,0.0,0.0,0.0,0.0,0.0,0.0,0.0,0.0,0.0,0.0,0.0,0.0,0.0,0.0,0.0,0.0,0.0,0.0,0.0,0.0,0.0,0.0,0.0,0.0,0.0,0.0,0.0,0.0,0.0,0.0,0.0,0.0,0.0,0.0,0.0,0.0,0.0,0.0,0.0,0.0,0.0,0.0,0.0,0.0,0.0,0.0,0.0,0.0,0.0,0.0,0.0,0.0,0.0,0.0,0.0,0.0,0.0,0.0,0.0,0.0,0.0,0.0,0.0,0.0,0.0,0.0]}]]]